ftp/pub/palmer/observations_modified/2019/June/original_files/AR190622_BASE.txt
Download
Sample DateTime Unit Id WS Avg 2min WD Avg 2min WGS 10min WGD 10min Air Temp Rel Humidity Dew Point Pyranometer Quantum Air Pressure Snow Level Rainfall PW Current Visibility CBase 1 CBase 2 CBase 3 Vert Vis
2019/06/22 00:00:00 BASE 3.68 169 7.61 176 -4.7 95 -5.4 0 0 989.1 NA 0.0000 9999 2330 0 0 0
2019/06/22 00:01:00 BASE 4.12 165 7.61 176 -4.7 95 -5.4 0 0 989.1 NA 0.0000 9999 2300 0 0 0
2019/06/22 00:02:00 BASE 4.55 165 7.61 176 -4.8 95 -5.4 0 0 989.1 NA 0.0000 9999 1900 0 0 0
2019/06/22 00:03:00 BASE 4.18 153 6.89 175 -4.8 95 -5.4 0 0 989.1 NA 0.0000 9999 2100 0 0 0
2019/06/22 00:04:00 BASE 4.13 150 6.89 175 -4.8 96 -5.4 0 0 989.1 NA 0.0000 9999 2100 0 0 0
2019/06/22 00:05:00 BASE 4.23 155 6.48 186 -4.8 96 -5.4 0 0 989.1 NA 0.0000 9999 2130 0 0 0
2019/06/22 00:06:00 BASE 3.96 156 5.35 188 -4.8 96 -5.3 0 0 989.1 NA 0.0000 9999 2070 0 0 0
2019/06/22 00:07:00 BASE 3.77 158 5.35 188 -4.8 96 -5.3 0 0 989.1 NA 0.0000 9999 2300 0 0 0
2019/06/22 00:08:00 BASE 4.14 167 5.20 176 -4.8 96 -5.3 0 0 989.1 NA 0.0000 9999 2170 0 0 0
2019/06/22 00:09:00 BASE 4.58 172 5.20 176 -4.8 96 -5.3 0 0 989.1 NA 0.0000 9999 2130 0 0 0
2019/06/22 00:10:00 BASE 4.66 169 5.20 176 -4.8 96 -5.3 0 0 989.2 NA 0.0000 9999 2070 0 0 0
2019/06/22 00:11:00 BASE 5.03 169 5.92 171 -4.8 96 -5.3 0 0 989.2 NA 0.0000 9999 1800 0 0 0
2019/06/22 00:12:00 BASE 4.89 167 5.92 171 -4.8 96 -5.3 0 0 989.2 NA 0.0000 9999 1640 0 0 0
2019/06/22 00:13:00 BASE 4.03 162 5.92 171 -4.8 96 -5.3 0 0 989.2 NA 0.0000 9999 1540 2300 0 0
2019/06/22 00:14:00 BASE 3.85 155 5.92 171 -4.8 96 -5.3 0 0 989.2 NA 0.0000 9999 2330 0 0 0
2019/06/22 00:15:00 BASE 4.25 152 5.92 171 -4.8 96 -5.3 0 0 989.2 NA 0.0000 9999 2300 0 0 0
2019/06/22 00:16:00 BASE 4.49 154 5.92 171 -4.8 96 -5.3 0 0 989.2 NA 0.0000 9999 2300 2920 0 0
2019/06/22 00:17:00 BASE 4.53 155 5.92 171 -4.8 96 -5.3 0 0 989.2 NA 0.0000 9999 2530 0 0 0
2019/06/22 00:18:00 BASE 4.34 152 5.92 171 -4.8 96 -5.3 0 0 989.2 NA 0.0000 9999 2360 0 0 0
2019/06/22 00:19:00 BASE 4.09 145 5.92 171 -4.8 96 -5.3 0 0 989.2 NA 0.0000 9999 2300 0 0 0
2019/06/22 00:20:00 BASE 4.10 140 5.92 171 -4.8 96 -5.3 0 0 989.2 NA 0.0000 9999 2070 0 0 0
2019/06/22 00:21:00 BASE 4.20 142 4.84 157 -4.8 96 -5.3 0 0 989.2 NA 0.0000 9999 2130 0 0 0
2019/06/22 00:22:00 BASE 4.16 149 4.84 157 -4.8 96 -5.3 0 0 989.2 NA 0.0000 9999 2170 0 0 0
2019/06/22 00:23:00 BASE 3.91 154 4.84 157 -4.8 96 -5.3 0 0 989.2 NA 0.0000 9999 2170 0 0 0
2019/06/22 00:24:00 BASE 3.82 159 4.84 157 -4.8 96 -5.3 0 0 989.2 NA 0.0000 9999 2070 0 0 0
2019/06/22 00:25:00 BASE 3.92 159 4.84 157 -4.8 96 -5.4 0 0 989.2 NA 0.0000 9999 2230 0 0 0
2019/06/22 00:26:00 BASE 4.28 152 5.66 149 -4.8 96 -5.4 0 0 989.2 NA 0.0000 9999 2230 0 0 0
2019/06/22 00:27:00 BASE 4.84 150 5.71 150 -4.9 96 -5.3 0 0 989.2 NA 0.0000 9999 2170 0 0 0
2019/06/22 00:28:00 BASE 4.68 153 5.71 150 -4.9 97 -5.3 0 0 989.2 NA 0.0000 9999 2130 0 0 0
2019/06/22 00:29:00 BASE 4.00 154 5.71 150 -4.8 97 -5.3 0 0 989.2 NA 0.0000 9999 2100 0 0 0
2019/06/22 00:30:00 BASE 3.60 151 5.71 150 -4.8 97 -5.2 0 0 989.2 NA 0.0000 9999 2100 0 0 0
2019/06/22 00:31:00 BASE 3.19 146 5.71 150 -4.8 97 -5.2 0 0 989.2 NA 0.0000 9999 1800 0 0 0
2019/06/22 00:32:00 BASE 2.78 145 5.71 150 -4.8 97 -5.2 0 0 989.2 NA 0.0000 9999 1840 0 0 0
2019/06/22 00:33:00 BASE 2.79 152 5.71 150 -4.8 97 -5.2 0 0 989.4 NA 0.0000 9999 1940 0 0 0
2019/06/22 00:34:00 BASE 3.51 162 5.71 150 -4.8 97 -5.3 0 0 989.4 NA 0.0000 9999 1900 0 0 0
2019/06/22 00:35:00 BASE 4.29 164 5.71 150 -4.8 97 -5.3 0 0 989.4 NA 0.0000 9999 1870 0 0 0
2019/06/22 00:36:00 BASE 4.45 163 5.71 150 -4.9 97 -5.3 0 0 989.4 NA 0.0000 9999 1870 0 0 0
2019/06/22 00:37:00 BASE 4.92 166 5.97 169 -4.9 97 -5.3 0 0 989.4 NA 0.0000 9999 1900 0 0 0
2019/06/22 00:38:00 BASE 5.72 169 6.33 175 -4.8 97 -5.3 0 0 989.4 NA 0.0000 9999 1870 0 0 0
2019/06/22 00:39:00 BASE 5.69 173 6.33 175 -4.8 97 -5.2 0 0 989.4 NA 0.0000 9999 1840 0 0 0
2019/06/22 00:40:00 BASE 4.98 169 6.33 175 -4.8 97 -5.2 0 0 989.4 NA 0.0000 9999 1870 0 0 0
2019/06/22 00:41:00 BASE 4.11 164 6.33 175 -4.8 97 -5.2 0 0 989.4 NA 0.0000 9999 1970 0 0 0
2019/06/22 00:42:00 BASE 3.29 159 6.33 175 -4.8 97 -5.2 0 0 989.4 NA 0.0000 9999 1940 0 0 0
2019/06/22 00:43:00 BASE 2.88 151 6.33 175 -4.8 97 -5.2 0 0 989.4 NA 0.0000 9999 2000 0 0 0
2019/06/22 00:44:00 BASE 2.77 146 6.33 175 -4.8 97 -5.3 0 0 989.4 NA 0.0000 9999 2130 0 0 0
2019/06/22 00:45:00 BASE 2.57 147 6.33 175 -4.8 96 -5.3 0 0 989.4 NA 0.0000 9999 2000 0 0 0
2019/06/22 00:46:00 BASE 2.23 139 6.33 175 -4.8 96 -5.3 0 0 989.4 NA 0.0000 9999 1870 0 0 0
2019/06/22 00:47:00 BASE 1.68 118 6.33 175 -4.8 96 -5.3 0 0 989.5 NA 0.0000 9999 1900 0 0 0
2019/06/22 00:48:00 BASE 2.22 86 6.07 175 -4.8 96 -5.3 0 0 989.4 NA 0.0000 9999 1670 0 0 0
2019/06/22 00:49:00 BASE 3.12 59 4.94 169 -4.8 96 -5.3 0 0 989.5 NA 0.0000 9999 2200 0 0 0
2019/06/22 00:50:00 BASE 2.12 40 4.22 162 -4.8 96 -5.4 0 0 989.5 NA 0.0000 9999 1770 2460 0 0
2019/06/22 00:51:00 BASE 0.54 13 3.76 55 -4.8 96 -5.4 0 0 989.5 NA 0.0000 9999 1640 0 0 0
2019/06/22 00:52:00 BASE 0.14 347 3.76 55 -4.8 96 -5.4 0 0 989.5 NA 0.0000 9999 1640 0 0 0
2019/06/22 00:53:00 BASE 0.71 309 3.76 55 -4.8 96 -5.4 0 0 989.5 NA 0.0000 9999 1510 0 0 0
2019/06/22 00:54:00 BASE 0.61 311 3.76 55 -4.8 95 -5.4 0 0 989.5 NA 0.0000 9999 1570 0 0 0
2019/06/22 00:55:00 BASE 0.05 322 3.76 55 -4.8 95 -5.5 0 0 989.5 NA 0.0000 9999 1640 0 0 0
2019/06/22 00:56:00 BASE 0.88 267 3.76 55 -4.8 94 -5.5 0 0 989.6 NA 0.0000 9999 1610 0 0 0
2019/06/22 00:57:00 BASE 2.48 239 3.81 253 -4.7 94 -5.6 0 0 989.6 NA 0.0000 9999 1570 0 0 0
2019/06/22 00:58:00 BASE 3.96 242 7.31 209 -4.7 94 -5.6 0 0 989.6 NA 0.0000 9999 1570 0 0 0
2019/06/22 00:59:00 BASE 5.43 223 7.31 210 -4.7 93 -5.6 0 0 989.6 NA 0.0000 9999 1640 2400 0 0
2019/06/22 01:00:00 BASE 6.48 198 7.97 188 -4.6 93 -5.5 0 0 989.6 NA 0.0000 9999 2360 0 0 0
2019/06/22 01:01:00 BASE 5.71 179 7.97 188 -4.6 93 -5.6 0 0 989.6 NA 0.0000 9999 1940 0 0 0
2019/06/22 01:02:00 BASE 4.67 171 7.97 188 -4.6 93 -5.6 0 0 989.6 NA 0.0000 9999 2070 0 0 0
2019/06/22 01:03:00 BASE 4.19 167 7.97 188 -4.6 93 -5.6 0 0 989.6 NA 0.0000 9999 2230 0 0 0
2019/06/22 01:04:00 BASE 3.64 161 7.97 188 -4.6 93 -5.6 0 0 989.6 NA 0.0000 9999 2300 0 0 0
2019/06/22 01:05:00 BASE 3.92 160 7.97 188 -4.6 93 -5.6 0 0 989.6 NA 0.0000 9999 2000 0 0 0
2019/06/22 01:06:00 BASE 4.54 163 7.97 188 -4.7 93 -5.6 0 0 989.7 NA 0.0000 9999 1770 0 0 0
2019/06/22 01:07:00 BASE 4.29 164 7.97 188 -4.7 93 -5.6 0 0 989.7 NA 0.0000 9999 1770 2430 0 0
2019/06/22 01:08:00 BASE 3.64 163 7.97 188 -4.7 93 -5.6 0 0 989.7 NA 0.0000 9999 1610 2430 0 0
2019/06/22 01:09:00 BASE 3.60 178 7.97 188 -4.7 93 -5.6 0 0 989.7 NA 0.0000 9999 2300 0 0 0
2019/06/22 01:10:00 BASE 3.53 218 5.81 168 -4.7 93 -5.6 0 0 989.7 NA 0.0000 9999 2330 0 0 0
2019/06/22 01:11:00 BASE 3.48 256 5.81 168 -4.7 93 -5.7 0 0 989.6 NA 0.0000 9999 2260 0 0 0
2019/06/22 01:12:01 BASE 5.11 246 9.26 236 -4.7 93 -5.6 0 0 989.7 NA 0.0000 9999 1900 0 0 0
2019/06/22 01:13:00 BASE 6.28 233 9.26 236 -4.7 93 -5.7 0 0 989.7 NA 0.0000 9999 2030 0 0 0
2019/06/22 01:14:00 BASE 5.77 243 9.26 236 -4.7 92 -5.7 0 0 989.7 NA 0.0000 9999 2100 0 0 0
2019/06/22 01:15:00 BASE 5.86 243 9.26 236 -4.7 92 -5.8 0 0 989.7 NA 0.0000 9999 2100 0 0 0
2019/06/22 01:16:00 BASE 5.22 238 9.26 236 -4.7 91 -6.0 0 0 989.7 NA 0.0000 9999 2070 0 0 0
2019/06/22 01:17:00 BASE 3.63 231 9.26 236 -4.7 90 -6.1 0 0 989.7 NA 0.0000 9999 2100 0 0 0
2019/06/22 01:18:00 BASE 3.29 225 9.26 236 -4.7 89 -6.2 0 0 989.7 NA 0.0000 9999 2200 0 0 0
2019/06/22 01:19:00 BASE 5.62 219 9.26 236 -4.7 88 -6.3 0 0 989.6 NA 0.0000 9999 2260 0 0 0
2019/06/22 01:20:00 BASE 6.63 233 9.26 236 -4.6 87 -6.4 0 0 989.6 NA 0.0000 9999 2260 0 0 0
2019/06/22 01:21:00 BASE 5.20 244 9.26 236 -4.6 86 -6.5 0 0 989.7 NA 0.0000 9999 2230 0 0 0
2019/06/22 01:22:00 BASE 5.55 225 10.13 205 -4.5 85 -6.6 0 0 989.7 NA 0.0000 9999 2230 0 0 0
2019/06/22 01:23:00 BASE 8.26 210 10.80 215 -4.5 85 -6.7 0 0 989.6 NA 0.0000 9999 2330 0 0 0
2019/06/22 01:24:00 BASE 9.62 211 10.80 215 -4.5 84 -6.8 0 0 989.7 NA 0.0000 9999 2230 0 0 0
2019/06/22 01:25:00 BASE 9.05 212 10.80 215 -4.5 84 -6.8 0 0 989.7 NA 0.0000 9999 2200 0 0 0
2019/06/22 01:26:00 BASE 8.14 214 10.80 215 -4.5 83 -6.9 0 0 989.7 NA 0.0000 9999 2100 0 0 0
2019/06/22 01:27:00 BASE 6.98 209 10.80 215 -4.5 83 -7.0 0 0 989.7 NA 0.0000 9999 2070 0 0 0
2019/06/22 01:28:00 BASE 6.39 204 10.80 215 -4.5 83 -7.0 0 0 989.7 NA 0.0000 9999 2030 0 0 0
2019/06/22 01:29:00 BASE 4.52 205 10.80 215 -4.5 82 -7.1 0 0 989.7 NA 0.0000 9999 2070 0 0 0
2019/06/22 01:30:00 BASE 2.45 216 10.80 215 -4.5 82 -7.1 0 0 989.7 NA 0.0000 9999 2130 0 0 0
2019/06/22 01:31:00 BASE 2.69 226 10.80 215 -4.5 82 -7.2 0 0 989.7 NA 0.0000 9999 2100 0 0 0
2019/06/22 01:32:00 BASE 2.71 231 10.80 215 -4.5 81 -7.2 0 0 989.7 NA 0.0000 9999 1840 0 0 0
2019/06/22 01:33:00 BASE 2.74 229 9.98 212 -4.5 81 -7.2 0 0 989.7 NA 0.0000 9999 1940 0 0 0
2019/06/22 01:34:00 BASE 3.01 223 9.62 213 -4.5 81 -7.3 0 0 989.7 NA 0.0000 9999 2030 0 0 0
2019/06/22 01:35:00 BASE 2.21 215 9.16 217 -4.5 81 -7.3 0 0 989.7 NA 0.0000 9999 1970 0 0 0
2019/06/22 01:36:00 BASE 1.61 201 7.92 215 -4.5 80 -7.4 0 0 989.7 NA 0.0000 9999 1970 0 0 0
2019/06/22 01:37:00 BASE 1.20 188 7.20 198 -4.5 80 -7.4 0 0 989.7 NA 0.0000 9999 2070 0 0 0
2019/06/22 01:38:00 BASE 1.52 184 3.76 231 -4.5 80 -7.4 0 0 989.7 NA 0.0000 9999 2100 0 0 0
2019/06/22 01:39:00 BASE 2.01 182 3.76 231 -4.5 80 -7.4 0 0 989.7 NA 0.0000 9999 2200 0 0 0
2019/06/22 01:40:00 BASE 1.24 187 3.76 231 -4.5 80 -7.4 0 0 989.7 NA 0.0000 9999 2070 0 0 0
2019/06/22 01:41:00 BASE 0.69 201 3.70 221 -4.5 80 -7.4 0 0 989.7 NA 0.0000 9999 2070 0 0 0
2019/06/22 01:42:00 BASE 1.39 225 3.70 221 -4.5 80 -7.5 0 0 989.7 NA 0.0000 9999 2100 0 0 0
2019/06/22 01:43:00 BASE 2.42 247 3.24 248 -4.5 80 -7.5 0 0 989.7 NA 0.0000 9999 2000 0 0 0
2019/06/22 01:44:00 BASE 2.63 243 3.24 248 -4.5 79 -7.5 0 0 989.7 NA 0.0000 9999 1940 0 0 0
2019/06/22 01:45:00 BASE 1.57 230 3.24 248 -4.5 79 -7.5 0 0 989.7 NA 0.0000 9999 2000 0 0 0
2019/06/22 01:46:00 BASE 0.91 209 3.24 248 -4.5 79 -7.6 0 0 989.7 NA 0.0000 9999 2130 0 0 0
2019/06/22 01:47:00 BASE 1.28 215 3.24 248 -4.5 79 -7.6 0 0 989.7 NA 0.0000 9999 2170 0 0 0
2019/06/22 01:48:00 BASE 1.91 226 3.24 248 -4.5 79 -7.6 0 0 989.7 NA 0.0000 9999 2170 0 0 0
2019/06/22 01:49:00 BASE 2.37 228 3.24 248 -4.5 79 -7.6 0 0 989.8 NA 0.0000 9999 2000 0 0 0
2019/06/22 01:50:00 BASE 2.61 237 3.24 248 -4.6 79 -7.6 0 0 989.8 NA 0.0000 9999 2030 0 0 0
2019/06/22 01:51:00 BASE 2.77 237 3.24 248 -4.6 80 -7.6 0 0 989.8 NA 0.0000 9999 2100 0 0 0
2019/06/22 01:52:00 BASE 2.78 237 3.24 248 -4.6 80 -7.5 0 0 989.8 NA 0.0000 9999 2100 0 0 0
2019/06/22 01:53:00 BASE 3.05 242 4.37 244 -4.6 80 -7.5 0 0 989.8 NA 0.0000 9999 2200 0 0 0
2019/06/22 01:54:00 BASE 3.45 235 4.37 238 -4.6 80 -7.5 0 0 989.8 NA 0.0000 9999 2130 0 0 0
2019/06/22 01:55:00 BASE 3.08 226 4.37 238 -4.6 80 -7.4 0 0 989.8 NA 0.0000 9999 2070 0 0 0
2019/06/22 01:56:00 BASE 2.62 230 4.37 238 -4.5 81 -7.4 0 0 989.8 NA 0.0000 9999 2030 0 0 0
2019/06/22 01:57:00 BASE 2.63 227 4.37 238 -4.5 81 -7.3 0 0 989.8 NA 0.0000 9999 1970 0 0 0
2019/06/22 01:58:00 BASE 2.62 222 4.37 238 -4.5 81 -7.3 0 0 989.8 NA 0.0000 9999 2130 0 0 0
2019/06/22 01:59:00 BASE 2.30 218 4.37 238 -4.5 81 -7.3 0 0 989.8 NA 0.0000 9999 2130 0 0 0
2019/06/22 02:00:00 BASE 1.88 214 4.37 238 -4.5 81 -7.3 0 0 989.8 NA 0.0000 9999 2130 0 0 0
2019/06/22 02:01:00 BASE 1.64 221 4.37 238 -4.5 80 -7.3 0 0 989.8 NA 0.0000 9999 2130 0 0 0
2019/06/22 02:02:00 BASE 1.66 236 4.37 238 -4.5 80 -7.4 0 0 989.8 NA 0.0000 9999 2130 0 0 0
2019/06/22 02:03:00 BASE 1.86 244 4.37 238 -4.5 81 -7.3 0 0 989.8 NA 0.0000 9999 2170 0 0 0
2019/06/22 02:04:00 BASE 1.81 248 3.55 232 -4.5 81 -7.3 0 0 989.8 NA 0.0000 9999 2170 0 0 0
2019/06/22 02:05:00 BASE 1.98 252 3.55 232 -4.5 81 -7.3 0 0 989.8 NA 0.0000 9999 2170 0 0 0
2019/06/22 02:06:00 BASE 2.10 257 3.55 232 -4.6 81 -7.3 0 0 989.8 NA 0.0000 9999 2170 0 0 0
2019/06/22 02:07:00 BASE 2.09 264 3.55 232 -4.6 81 -7.3 0 0 989.8 NA 0.0000 9999 2170 0 0 0
2019/06/22 02:08:00 BASE 1.86 277 2.57 250 -4.6 81 -7.3 0 0 989.8 NA 0.0000 9999 2130 0 0 0
2019/06/22 02:09:00 BASE 1.99 274 3.65 255 -4.6 81 -7.3 0 0 989.8 NA 0.0000 9999 2130 0 0 0
2019/06/22 02:10:00 BASE 2.53 252 3.65 255 -4.5 81 -7.2 0 0 989.8 NA 0.0000 9999 2130 0 0 0
2019/06/22 02:11:00 BASE 2.40 243 3.65 255 -4.5 81 -7.2 0 0 989.8 NA 0.0000 9999 2130 0 0 0
2019/06/22 02:12:00 BASE 2.61 243 3.65 255 -4.5 81 -7.2 0 0 989.8 NA 0.0000 9999 2170 0 0 0
2019/06/22 02:13:00 BASE 3.20 236 4.01 231 -4.5 81 -7.3 0 0 989.8 NA 0.0000 9999 2170 0 0 0
2019/06/22 02:14:00 BASE 3.91 240 5.09 238 -4.5 81 -7.3 0 0 989.8 NA 0.0000 9999 2130 0 0 0
2019/06/22 02:15:00 BASE 4.51 256 5.25 253 -4.5 81 -7.2 0 0 989.8 NA 0.0000 9999 2130 0 0 0
2019/06/22 02:16:00 BASE 4.56 263 5.45 261 -4.5 81 -7.2 0 0 989.8 NA 0.0000 9999 2170 0 0 0
2019/06/22 02:17:00 BASE 4.91 263 6.58 257 -4.5 81 -7.2 0 0 989.8 NA 0.0000 9999 2130 0 0 0
2019/06/22 02:18:00 BASE 5.08 262 6.58 257 -4.5 82 -7.1 0 0 989.8 NA 0.0000 9999 2030 0 0 0
2019/06/22 02:19:00 BASE 4.83 261 6.58 257 -4.5 82 -7.1 0 0 989.8 NA 0.0000 9999 1940 0 0 0
2019/06/22 02:20:00 BASE 4.34 264 6.58 257 -4.4 82 -7.1 0 0 989.9 NA 0.0000 9999 2070 0 0 0
2019/06/22 02:21:00 BASE 3.75 264 6.58 257 -4.4 81 -7.1 0 0 989.9 NA 0.0000 9999 2100 0 0 0
2019/06/22 02:22:00 BASE 3.12 275 6.58 257 -4.4 81 -7.2 0 0 989.9 NA 0.0000 9999 2070 0 0 0
2019/06/22 02:23:00 BASE 3.41 289 6.58 257 -4.4 81 -7.2 0 0 989.9 NA 0.0000 9999 2100 0 0 0
2019/06/22 02:24:00 BASE 4.04 294 6.58 257 -4.4 81 -7.2 0 0 989.9 NA 0.0000 9999 2030 0 0 0
2019/06/22 02:25:00 BASE 4.55 287 6.58 257 -4.4 81 -7.2 0 0 989.9 NA 0.0000 9999 2100 0 0 0
2019/06/22 02:26:00 BASE 5.30 263 6.58 257 -4.4 81 -7.1 0 0 989.9 NA 0.0000 9999 2170 0 0 0
2019/06/22 02:27:00 BASE 5.96 254 8.13 260 -4.4 81 -7.1 0 0 989.9 NA 0.0000 9999 2030 0 0 0
2019/06/22 02:28:00 BASE 6.32 257 8.54 254 -4.3 81 -7.1 0 0 989.8 NA 0.0000 9999 2100 0 0 0
2019/06/22 02:29:00 BASE 7.49 257 11.21 255 -4.3 81 -7.0 0 0 989.8 NA 0.0000 9999 2100 0 0 0
2019/06/22 02:30:00 BASE 9.29 259 11.32 260 -4.3 82 -7.0 0 0 989.8 NA 0.0000 9999 2170 0 0 0
2019/06/22 02:31:00 BASE 8.77 263 11.32 260 -4.3 82 -7.0 0 0 989.8 NA 0.0000 9999 2030 0 0 0
2019/06/22 02:32:00 BASE 6.73 267 11.32 260 -4.4 82 -6.9 0 0 989.8 NA 0.0000 9999 2070 0 0 0
2019/06/22 02:33:00 BASE 6.37 264 11.32 260 -4.4 83 -6.9 0 0 989.8 NA 0.0000 9999 2070 0 0 0
2019/06/22 02:34:00 BASE 7.51 253 11.32 260 -4.4 83 -6.9 0 0 989.8 NA 0.0000 9999 2130 0 0 0
2019/06/22 02:35:00 BASE 8.07 245 11.32 260 -4.4 83 -6.9 0 0 989.8 NA 0.0000 9999 2070 0 0 0
2019/06/22 02:36:00 BASE 8.56 245 11.32 260 -4.4 83 -6.9 0 0 989.8 NA 0.0000 9999 2030 0 0 0
2019/06/22 02:37:00 BASE 8.73 248 11.32 260 -4.5 83 -6.9 0 0 989.9 NA 0.0000 9999 1940 0 0 0
2019/06/22 02:38:00 BASE 7.15 254 11.32 260 -4.5 83 -7.0 0 0 989.9 NA 0.0000 9999 1940 0 0 0
2019/06/22 02:39:00 BASE 5.41 258 11.32 260 -4.5 82 -7.0 0 0 989.9 NA 0.0000 9999 2000 0 0 0
2019/06/22 02:40:00 BASE 5.86 249 10.29 255 -4.5 82 -7.1 0 0 989.9 NA 0.0000 9999 2130 0 0 0
2019/06/22 02:41:00 BASE 6.90 237 10.29 255 -4.5 82 -7.1 0 0 989.9 NA 0.0000 9999 2230 0 0 0
2019/06/22 02:42:00 BASE 5.90 243 10.29 255 -4.5 82 -7.2 0 0 989.9 NA 0.0000 9999 2030 0 0 0
2019/06/22 02:43:00 BASE 4.68 250 10.29 255 -4.5 81 -7.2 0 0 989.9 NA 0.0000 9999 2230 0 0 0
2019/06/22 02:44:00 BASE 5.47 247 10.29 255 -4.5 81 -7.2 0 0 989.9 NA 0.0000 9999 2300 0 0 0
2019/06/22 02:45:00 BASE 6.44 250 10.29 255 -4.5 81 -7.3 0 0 989.9 NA 0.0000 9999 2400 0 0 0
2019/06/22 02:46:00 BASE 6.31 259 9.67 247 -4.5 80 -7.3 0 0 989.9 NA 0.0000 9999 2170 0 0 0
2019/06/22 02:47:00 BASE 6.17 271 8.64 235 -4.5 80 -7.4 0 0 989.9 NA 0.0000 9999 2260 0 0 0
2019/06/22 02:48:00 BASE 5.54 272 8.64 235 -4.5 80 -7.4 0 0 990.0 NA 0.0000 9999 2170 0 0 0
2019/06/22 02:49:00 BASE 5.01 273 8.64 235 -4.5 80 -7.4 0 0 990.0 NA 0.0000 9999 2230 0 0 0
2019/06/22 02:50:00 BASE 5.74 270 8.64 235 -4.5 80 -7.4 0 0 990.0 NA 0.0000 9999 2230 0 0 0
2019/06/22 02:51:00 BASE 6.26 259 7.56 274 -4.5 80 -7.4 0 0 990.0 NA 0.0000 9999 2230 0 0 0
2019/06/22 02:52:00 BASE 6.10 254 8.54 241 -4.4 80 -7.4 0 0 990.0 NA 0.0000 9999 2200 0 0 0
2019/06/22 02:53:00 BASE 6.77 248 8.54 241 -4.4 80 -7.4 0 0 989.9 NA 0.0000 9999 2200 0 0 0
2019/06/22 02:54:00 BASE 7.27 240 8.54 241 -4.4 80 -7.4 0 0 989.9 NA 0.0000 9999 2130 0 0 0
2019/06/22 02:55:00 BASE 6.46 232 8.54 241 -4.4 80 -7.3 0 0 990.0 NA 0.0000 9999 2170 0 0 0
2019/06/22 02:56:00 BASE 5.53 224 8.54 241 -4.4 80 -7.3 0 0 990.0 NA 0.0000 9999 2100 0 0 0
2019/06/22 02:57:00 BASE 5.08 220 8.54 241 -4.4 81 -7.3 0 0 990.0 NA 0.0000 9999 2070 0 0 0
2019/06/22 02:58:00 BASE 5.10 226 8.54 241 -4.4 81 -7.2 0 0 990.0 NA 0.0000 9999 2100 0 0 0
2019/06/22 02:59:00 BASE 5.65 240 8.54 241 -4.4 81 -7.2 0 0 990.0 NA 0.0000 9999 2030 0 0 0
2019/06/22 03:00:00 BASE 6.34 250 8.54 241 -4.4 81 -7.1 0 0 990.0 NA 0.0000 9999 2030 0 0 0
2019/06/22 03:01:00 BASE 6.78 251 8.54 241 -4.4 81 -7.1 0 0 990.0 NA 0.0000 9999 2100 0 0 0
2019/06/22 03:02:00 BASE 7.50 247 8.95 235 -4.4 81 -7.1 0 0 990.0 NA 0.0000 9999 2130 0 0 0
2019/06/22 03:03:00 BASE 7.53 241 8.95 235 -4.4 82 -7.1 0 0 990.0 NA 0.0000 9999 2130 0 0 0
2019/06/22 03:04:00 BASE 7.11 244 8.95 235 -4.5 82 -7.1 0 0 990.1 NA 0.0000 9999 2130 0 0 0
2019/06/22 03:05:00 BASE 7.07 248 8.95 235 -4.5 82 -7.1 0 0 990.1 NA 0.0000 9999 2100 0 0 0
2019/06/22 03:06:00 BASE 7.15 242 8.95 235 -4.5 82 -7.1 0 0 990.0 NA 0.0000 9999 2170 0 0 0
2019/06/22 03:07:00 BASE 8.39 240 10.08 247 -4.5 82 -7.1 0 0 990.0 NA 0.0000 9999 2130 0 0 0
2019/06/22 03:08:00 BASE 8.69 246 10.08 247 -4.5 82 -7.1 0 0 990.1 NA 0.0000 9999 2130 0 0 0
2019/06/22 03:09:00 BASE 8.42 248 10.44 248 -4.6 82 -7.2 0 0 990.0 NA 0.0000 9999 2130 0 0 0
2019/06/22 03:10:00 BASE 8.51 243 10.44 248 -4.6 82 -7.2 0 0 990.1 NA 0.0000 9999 2170 0 0 0
2019/06/22 03:11:00 BASE 7.45 238 10.44 248 -4.6 82 -7.1 0 0 990.1 NA 0.0000 9999 2200 0 0 0
2019/06/22 03:12:00 BASE 7.79 237 10.44 248 -4.6 82 -7.1 0 0 990.1 NA 0.0000 9999 2200 0 0 0
2019/06/22 03:13:00 BASE 9.16 242 10.44 248 -4.6 83 -7.1 0 0 990.1 NA 0.0000 9999 2200 0 0 0
2019/06/22 03:14:00 BASE 9.84 242 10.65 235 -4.6 83 -7.1 0 0 990.1 NA 0.0000 9999 2330 0 0 0
2019/06/22 03:15:00 BASE 9.67 242 10.65 235 -4.6 83 -7.0 0 0 990.1 NA 0.0000 9999 2330 0 0 0
2019/06/22 03:16:00 BASE 9.12 242 10.65 235 -4.6 83 -7.0 0 0 990.1 NA 0.0000 9999 2170 0 0 0
2019/06/22 03:17:00 BASE 8.58 240 10.65 235 -4.6 83 -7.1 0 0 990.1 NA 0.0000 9999 2490 0 0 0
2019/06/22 03:18:00 BASE 8.95 240 10.65 237 -4.6 83 -7.1 0 0 990.1 NA 0.0000 9999 2260 2820 0 0
2019/06/22 03:19:00 BASE 9.33 236 10.65 237 -4.6 83 -7.1 0 0 990.2 NA 0.0000 9999 2330 0 0 0
2019/06/22 03:20:00 BASE 8.57 233 10.65 237 -4.7 83 -7.1 0 0 990.2 NA 0.0000 9999 2170 0 0 0
2019/06/22 03:21:00 BASE 8.04 233 10.65 237 -4.7 83 -7.1 0 0 990.2 NA 0.0000 9999 2300 0 0 0
2019/06/22 03:22:00 BASE 8.67 233 10.65 238 -4.7 83 -7.1 0 0 990.2 NA 0.0000 9999 2130 0 0 0
2019/06/22 03:23:00 BASE 9.00 236 10.65 238 -4.7 83 -7.2 0 0 990.2 NA 0.0000 9999 2430 0 0 0
2019/06/22 03:24:00 BASE 8.83 241 10.65 238 -4.7 82 -7.2 0 0 990.2 NA 0.0000 9999 2490 0 0 0
2019/06/22 03:25:00 BASE 8.91 240 10.65 238 -4.7 82 -7.3 0 0 990.2 NA 0.0000 9999 2430 0 0 0
2019/06/22 03:26:00 BASE 9.35 236 10.75 229 -4.7 82 -7.3 0 0 990.1 NA 0.0000 9999 2400 0 0 0
2019/06/22 03:27:00 BASE 9.62 235 10.75 234 -4.7 82 -7.4 0 0 990.2 NA 0.0000 9999 2330 0 0 0
2019/06/22 03:28:00 BASE 9.33 240 10.75 234 -4.8 82 -7.4 0 0 990.2 NA 0.0000 9999 2260 0 0 0
2019/06/22 03:29:00 BASE 9.14 243 10.75 234 -4.8 81 -7.5 0 0 990.2 NA 0.0000 9999 2300 0 0 0
2019/06/22 03:30:00 BASE 7.82 243 10.75 234 -4.8 81 -7.5 0 0 990.3 NA 0.0000 9999 2330 0 0 0
2019/06/22 03:31:00 BASE 7.40 245 10.75 234 -4.8 81 -7.6 0 0 990.2 NA 0.0000 9999 2330 0 0 0
2019/06/22 03:32:00 BASE 8.85 245 10.75 234 -4.8 81 -7.7 0 0 990.2 NA 0.0000 9999 2460 0 0 0
2019/06/22 03:33:00 BASE 8.94 245 10.75 234 -4.9 80 -7.7 0 0 990.2 NA 0.0000 9999 2430 0 0 0
2019/06/22 03:34:00 BASE 7.85 244 10.75 234 -4.9 80 -7.8 0 0 990.2 NA 0.0000 9999 2430 0 0 0
2019/06/22 03:35:00 BASE 7.22 239 10.75 234 -4.9 80 -7.8 0 0 990.3 NA 0.0000 9999 2690 0 0 0
2019/06/22 03:36:00 BASE 6.84 237 10.75 234 -4.9 80 -7.9 0 0 990.3 NA 0.0000 9999 2400 0 0 0
2019/06/22 03:37:00 BASE 5.64 239 10.24 245 -4.9 79 -7.9 0 0 990.3 NA 0.0000 9999 2460 0 0 0
2019/06/22 03:38:00 BASE 5.26 239 10.24 245 -4.9 79 -8.0 0 0 990.3 NA 0.0000 9999 2590 0 0 0
2019/06/22 03:39:00 BASE 6.46 236 10.24 245 -4.9 79 -8.0 0 0 990.3 NA 0.0000 9999 2560 0 0 0
2019/06/22 03:40:00 BASE 6.17 239 10.24 245 -4.9 79 -8.0 0 0 990.3 NA 0.0000 9999 2430 0 0 0
2019/06/22 03:41:00 BASE 4.61 242 10.24 245 -4.9 78 -8.1 0 0 990.3 NA 0.0000 9999 2300 0 0 0
2019/06/22 03:42:00 BASE 3.30 239 9.67 242 -4.9 78 -8.1 0 0 990.3 NA 0.0000 9999 2230 0 0 0
2019/06/22 03:43:00 BASE 2.91 238 8.54 237 -4.9 78 -8.2 0 0 990.3 NA 0.0000 9999 2430 0 0 0
2019/06/22 03:44:00 BASE 3.61 234 8.54 237 -4.9 78 -8.2 0 0 990.3 NA 0.0000 9999 2530 0 0 0
2019/06/22 03:45:00 BASE 3.93 227 8.54 237 -4.9 77 -8.2 0 0 990.3 NA 0.0000 9999 2490 0 0 0
2019/06/22 03:46:00 BASE 5.14 232 8.54 237 -4.9 77 -8.2 0 0 990.3 NA 0.0000 9999 2460 0 0 0
2019/06/22 03:47:00 BASE 6.15 243 8.54 237 -4.8 77 -8.2 0 0 990.3 NA 0.0000 9999 2360 0 0 0
2019/06/22 03:48:00 BASE 5.70 245 8.54 237 -4.8 77 -8.2 0 0 990.3 NA 0.0000 9999 2430 0 0 0
2019/06/22 03:49:00 BASE 6.44 235 8.18 233 -4.8 77 -8.2 0 0 990.3 NA 0.0000 9999 2460 0 0 0
2019/06/22 03:50:00 BASE 6.67 231 8.18 233 -4.8 78 -8.1 0 0 990.3 NA 0.0000 9999 2590 0 0 0
2019/06/22 03:51:00 BASE 6.33 229 8.18 233 -4.9 78 -8.1 0 0 990.3 NA 0.0000 9999 2460 0 0 0
2019/06/22 03:52:00 BASE 6.45 230 8.18 233 -4.9 79 -8.0 0 0 990.4 NA 0.0000 9999 2460 0 0 0
2019/06/22 03:53:00 BASE 6.44 234 8.18 233 -4.9 79 -7.9 0 0 990.4 NA 0.0000 9999 2460 0 0 0
2019/06/22 03:54:00 BASE 6.27 225 8.18 233 -4.9 80 -7.8 0 0 990.4 NA 0.0000 9999 2490 0 0 0
2019/06/22 03:55:00 BASE 6.04 220 8.18 233 -4.9 80 -7.8 0 0 990.4 NA 0.0000 9999 2490 0 0 0
2019/06/22 03:56:00 BASE 6.14 224 8.18 233 -4.9 80 -7.8 0 0 990.4 NA 0.0000 9999 2530 0 0 0
2019/06/22 03:57:00 BASE 6.61 225 8.44 243 -4.9 80 -7.8 0 0 990.4 NA 0.0000 9999 2560 0 0 0
2019/06/22 03:58:00 BASE 7.20 234 8.44 243 -4.8 80 -7.8 0 0 990.4 NA 0.0000 9999 2720 0 0 0
2019/06/22 03:59:00 BASE 7.10 237 8.44 243 -4.8 80 -7.7 0 0 990.4 NA 0.0000 9999 2690 0 0 0
2019/06/22 04:00:00 BASE 6.65 234 8.44 243 -4.8 80 -7.8 0 0 990.4 NA 0.0000 9999 2690 0 0 0
2019/06/22 04:01:00 BASE 6.64 242 8.44 243 -4.8 80 -7.8 0 0 990.4 NA 0.0000 9999 2560 0 0 0
2019/06/22 04:02:00 BASE 7.65 253 9.41 257 -4.9 80 -7.8 0 0 990.4 NA 0.0000 9999 2760 0 0 0
2019/06/22 04:03:00 BASE 8.33 255 9.41 257 -4.9 80 -7.9 0 0 990.4 NA 0.0000 9999 0 0 0 0
2019/06/22 04:04:00 BASE 7.89 252 9.41 257 -4.9 80 -7.9 0 0 990.4 NA 0.0000 9999 2490 0 0 0
2019/06/22 04:06:00 BASE 7.00 250 9.41 257 -4.9 79 -8.0 0 0 990.4 NA 0.0000 9999 2620 0 0 0
2019/06/22 04:07:00 BASE 5.83 247 9.41 257 -5.0 79 -8.0 0 0 990.4 NA 0.0000 9999 2490 0 0 0
2019/06/22 04:08:00 BASE 5.53 247 9.41 257 -5.0 79 -8.0 0 0 990.4 NA 0.0000 9999 2330 0 0 0
2019/06/22 04:09:00 BASE 5.61 252 9.41 257 -4.9 79 -8.0 0 0 990.4 NA 0.0000 9999 2400 0 0 0
2019/06/22 04:10:00 BASE 5.47 264 9.41 257 -4.9 79 -8.0 0 0 990.4 NA 0.0000 9999 2400 0 0 0
2019/06/22 04:11:00 BASE 5.09 270 9.41 257 -4.9 79 -8.0 0 0 990.4 NA 0.0000 9999 2400 0 0 0
2019/06/22 04:12:00 BASE 5.13 269 9.11 254 -4.8 78 -8.0 0 0 990.4 NA 0.0000 9999 2400 0 0 0
2019/06/22 04:13:00 BASE 5.02 267 9.11 254 -4.8 78 -8.0 0 0 990.4 NA 0.0000 9999 2430 0 0 0
2019/06/22 04:14:00 BASE 5.16 273 9.11 254 -4.8 78 -8.1 0 0 990.4 NA 0.0000 9999 2460 0 0 0
2019/06/22 04:15:00 BASE 5.59 281 7.36 254 -4.8 78 -8.0 0 0 990.4 NA 0.0000 9999 2590 0 0 0
2019/06/22 04:16:00 BASE 5.06 273 7.36 254 -4.8 78 -8.0 0 0 990.4 NA 0.0000 9999 2460 0 0 0
2019/06/22 04:17:00 BASE 4.00 267 7.36 254 -4.7 78 -8.0 0 0 990.4 NA 0.0000 9999 2460 0 0 0
2019/06/22 04:18:00 BASE 3.55 268 7.36 254 -4.7 78 -8.0 0 0 990.4 NA 0.0000 9999 2460 0 0 0
2019/06/22 04:19:00 BASE 4.71 263 7.15 254 -4.7 78 -8.0 0 0 990.4 NA 0.0000 9999 2490 0 0 0
2019/06/22 04:20:00 BASE 5.03 266 7.15 254 -4.7 78 -8.0 0 0 990.4 NA 0.0000 9999 2330 0 0 0
2019/06/22 04:21:00 BASE 4.07 269 7.15 254 -4.7 78 -8.0 0 0 990.4 NA 0.0000 9999 2300 0 0 0
2019/06/22 04:22:00 BASE 4.25 257 7.15 254 -4.7 78 -8.0 0 0 990.4 NA 0.0000 9999 2260 0 0 0
2019/06/22 04:23:00 BASE 4.75 247 7.15 254 -4.8 78 -8.0 0 0 990.4 NA 0.0000 9999 2170 0 0 0
2019/06/22 04:24:00 BASE 4.52 239 7.15 254 -4.8 78 -8.1 0 0 990.4 NA 0.0000 9999 2230 0 0 0
2019/06/22 04:25:00 BASE 3.61 229 7.15 254 -4.8 78 -8.1 0 0 990.4 NA 0.0000 9999 2260 0 0 0
2019/06/22 04:26:00 BASE 2.65 227 7.15 254 -4.8 78 -8.1 0 0 990.4 NA 0.0000 9999 3120 0 0 0
2019/06/22 04:27:00 BASE 4.33 238 8.13 236 -4.8 78 -8.1 0 0 990.4 NA 0.0000 9999 2720 0 0 0
2019/06/22 04:28:00 BASE 6.07 241 8.13 236 -4.8 78 -8.1 0 0 990.4 NA 0.0000 9999 2460 0 0 0
2019/06/22 04:29:00 BASE 4.94 237 8.13 236 -4.8 77 -8.1 0 0 990.4 NA 0.0000 9999 2230 0 0 0
2019/06/22 04:30:00 BASE 4.31 237 8.13 236 -4.7 77 -8.1 0 0 990.4 NA 0.0000 9999 2130 0 0 0
2019/06/22 04:31:00 BASE 5.92 242 8.64 243 -4.8 77 -8.2 0 0 990.4 NA 0.0000 9999 2230 0 0 0
2019/06/22 04:32:00 BASE 7.43 249 9.05 250 -4.8 77 -8.2 0 0 990.4 NA 0.0000 9999 2230 0 0 0
2019/06/22 04:33:00 BASE 8.25 249 9.41 246 -4.8 77 -8.2 0 0 990.4 NA 0.0000 9999 2330 0 0 0
2019/06/22 04:34:00 BASE 8.30 243 9.41 246 -4.7 77 -8.2 0 0 990.4 NA 0.0000 9999 2200 0 0 0
2019/06/22 04:35:00 BASE 7.21 243 9.41 246 -4.7 77 -8.1 0 0 990.4 NA 0.0000 9999 2200 0 0 0
2019/06/22 04:36:00 BASE 6.46 246 9.41 246 -4.7 77 -8.1 0 0 990.4 NA 0.0000 9999 2300 0 0 0
2019/06/22 04:37:00 BASE 5.60 247 9.41 246 -4.7 78 -8.1 0 0 990.4 NA 0.0000 9999 2460 0 0 0
2019/06/22 04:38:00 BASE 4.84 248 9.41 246 -4.7 78 -8.0 0 0 990.4 NA 0.0000 9999 2490 0 0 0
2019/06/22 04:39:00 BASE 4.58 246 9.41 246 -4.8 78 -8.0 0 0 990.4 NA 0.0000 9999 2400 0 0 0
2019/06/22 04:40:00 BASE 4.99 247 9.41 246 -4.8 78 -8.0 0 0 990.4 NA 0.0000 9999 2330 0 0 0
2019/06/22 04:41:00 BASE 5.78 252 9.41 246 -4.8 78 -8.0 0 0 990.4 NA 0.0000 9999 2300 0 0 0
2019/06/22 04:42:00 BASE 5.93 260 9.41 246 -4.7 78 -8.0 0 0 990.4 NA 0.0000 9999 2460 0 0 0
2019/06/22 04:43:00 BASE 6.00 268 8.85 234 -4.7 78 -8.0 0 0 990.4 NA 0.0000 9999 2430 0 0 0
2019/06/22 04:44:00 BASE 6.36 264 9.26 256 -4.7 78 -8.0 0 0 990.4 NA 0.0000 9999 2490 0 0 0
2019/06/22 04:45:00 BASE 7.98 259 10.70 253 -4.6 78 -7.9 0 0 990.4 NA 0.0000 9999 2430 0 0 0
2019/06/22 04:46:00 BASE 9.11 260 11.11 257 -4.6 77 -7.9 0 0 990.4 NA 0.0000 9999 2430 0 0 0
2019/06/22 04:47:00 BASE 8.33 258 11.11 257 -4.6 77 -8.0 0 0 990.4 NA 0.0000 9999 2430 0 0 0
2019/06/22 04:48:00 BASE 6.96 261 11.11 257 -4.6 77 -8.0 0 0 990.5 NA 0.0000 9999 2460 0 0 0
2019/06/22 04:49:00 BASE 5.74 262 11.11 257 -4.6 77 -8.0 0 0 990.5 NA 0.0000 9999 2400 0 0 0
2019/06/22 04:50:00 BASE 5.96 259 11.11 257 -4.6 77 -8.0 0 0 990.5 NA 0.0000 9999 2360 0 0 0
2019/06/22 04:51:00 BASE 5.94 261 11.11 257 -4.6 77 -8.0 0 0 990.5 NA 0.0000 9999 2360 0 0 0
2019/06/22 04:52:00 BASE 5.26 271 11.11 257 -4.6 77 -8.0 0 0 990.5 NA 0.0000 9999 2400 0 0 0
2019/06/22 04:53:00 BASE 5.54 272 11.11 257 -4.6 77 -8.1 0 0 990.5 NA 0.0000 9999 2400 0 0 0
2019/06/22 04:54:00 BASE 6.99 260 11.11 257 -4.6 77 -8.1 0 0 990.5 NA 0.0000 9999 2430 0 0 0
2019/06/22 04:55:00 BASE 7.24 254 11.11 257 -4.6 76 -8.1 0 0 990.5 NA 0.0000 9999 2430 0 0 0
2019/06/22 04:56:00 BASE 6.55 256 9.31 255 -4.6 76 -8.2 0 0 990.5 NA 0.0000 9999 2430 0 0 0
2019/06/22 04:57:00 BASE 5.68 258 9.31 255 -4.7 76 -8.3 0 0 990.5 NA 0.0000 9999 2460 0 0 0
2019/06/22 04:58:00 BASE 5.08 249 9.31 255 -4.7 75 -8.4 0 0 990.5 NA 0.0000 9999 2530 0 0 0
2019/06/22 04:59:01 BASE 5.42 241 9.31 255 -4.7 75 -8.4 0 0 990.5 NA 0.0000 9999 2360 0 0 0
2019/06/22 05:00:01 BASE 5.74 250 9.31 255 -4.7 75 -8.5 0 0 990.5 NA 0.0000 9999 2400 0 0 0
2019/06/22 05:01:01 BASE 6.45 259 9.31 255 -4.7 74 -8.5 0 0 990.6 NA 0.0000 9999 2590 0 0 0
2019/06/22 05:02:01 BASE 6.32 264 9.31 255 -4.7 74 -8.6 0 0 990.6 NA 0.0000 9999 2560 0 0 0
2019/06/22 05:03:01 BASE 5.30 269 9.31 255 -4.7 74 -8.6 0 0 990.6 NA 0.0000 9999 2530 0 0 0
2019/06/22 05:04:01 BASE 4.09 276 8.80 265 -4.7 74 -8.6 0 0 990.7 NA 0.0000 9999 2660 0 0 0
2019/06/22 05:05:01 BASE 2.71 275 8.80 265 -4.6 74 -8.6 0 0 990.6 NA 0.0000 9999 2530 0 0 0
2019/06/22 05:06:01 BASE 1.71 266 8.80 265 -4.6 73 -8.7 0 0 990.6 NA 0.0000 9999 2530 0 0 0
2019/06/22 05:07:01 BASE 0.69 259 8.80 265 -4.6 73 -8.7 0 0 990.6 NA 0.0000 9999 2460 0 0 0
2019/06/22 05:08:01 BASE 0.00 250 8.80 265 -4.6 73 -8.8 0 0 990.5 NA 0.0000 9999 2530 0 0 0
2019/06/22 05:09:01 BASE 0.15 246 8.80 265 -4.6 73 -8.8 0 0 990.6 NA 0.0000 9999 2590 0 0 0
2019/06/22 05:10:01 BASE 0.47 244 8.80 265 -4.6 72 -8.8 0 0 990.6 NA 0.0000 9999 2490 0 0 0
2019/06/22 05:11:01 BASE 1.28 239 6.84 271 -4.6 72 -8.8 0 0 990.6 NA 0.0000 9999 2560 0 0 0
2019/06/22 05:12:01 BASE 2.00 241 6.84 271 -4.7 72 -8.9 0 0 990.5 NA 0.0000 9999 2560 0 0 0
2019/06/22 05:13:01 BASE 2.93 239 4.32 235 -4.7 73 -8.8 0 0 990.5 NA 0.0000 9999 2460 0 0 0
2019/06/22 05:14:01 BASE 3.23 236 4.32 235 -4.7 73 -8.7 0 0 990.5 NA 0.0000 9999 0 0 0 0
2019/06/22 05:15:01 BASE 2.67 243 4.78 237 -4.7 74 -8.7 0 0 990.5 NA 0.0000 9999 2490 0 0 0
2019/06/22 05:16:01 BASE 3.84 232 6.02 224 -4.6 74 -8.6 0 0 990.5 NA 0.0000 9999 2430 0 0 0
2019/06/22 05:17:01 BASE 4.80 222 6.02 224 -4.6 74 -8.6 0 0 990.5 NA 0.0000 9999 2490 0 0 0
2019/06/22 05:18:01 BASE 4.11 225 6.02 224 -4.6 74 -8.5 0 0 990.5 NA 0.0000 9999 2530 0 0 0
2019/06/22 05:19:01 BASE 3.29 219 6.02 224 -4.6 74 -8.6 0 0 990.5 NA 0.0000 9999 2690 0 0 0
2019/06/22 05:20:01 BASE 2.72 214 6.02 224 -4.6 74 -8.6 0 0 990.5 NA 0.0000 9999 2590 0 0 0
2019/06/22 05:21:01 BASE 2.39 221 6.02 224 -4.6 74 -8.6 0 0 990.5 NA 0.0000 9999 2590 0 0 0
2019/06/22 05:22:01 BASE 2.38 230 6.02 224 -4.6 73 -8.6 0 0 990.5 NA 0.0000 9999 2560 0 0 0
2019/06/22 05:23:01 BASE 3.01 228 6.02 224 -4.6 73 -8.6 0 0 990.5 NA 0.0000 9999 2490 0 0 0
2019/06/22 05:24:01 BASE 4.59 228 6.12 221 -4.6 74 -8.6 0 0 990.5 NA 0.0000 9999 2430 0 0 0
2019/06/22 05:25:01 BASE 5.40 224 6.12 221 -4.6 74 -8.5 0 0 990.5 NA 0.0000 9999 2430 0 0 0
2019/06/22 05:26:01 BASE 5.52 221 6.58 222 -4.6 74 -8.5 0 0 990.6 NA 0.0000 9999 2430 0 0 0
2019/06/22 05:27:01 BASE 5.86 221 6.74 221 -4.6 75 -8.4 0 0 990.6 NA 0.0000 9999 2400 0 0 0
2019/06/22 05:28:01 BASE 5.33 220 6.74 221 -4.6 75 -8.4 0 0 990.6 NA 0.0000 9999 2360 2820 0 0
2019/06/22 05:29:01 BASE 5.10 220 6.74 221 -4.5 75 -8.3 0 0 990.6 NA 0.0000 9999 2620 0 0 0
2019/06/22 05:30:01 BASE 5.39 216 6.74 221 -4.5 75 -8.3 0 0 990.6 NA 0.0000 9999 2590 0 0 0
2019/06/22 05:31:01 BASE 4.63 207 6.74 221 -4.5 75 -8.3 0 0 990.7 NA 0.0000 9999 2530 2920 0 0
2019/06/22 05:32:01 BASE 4.54 215 6.74 221 -4.5 75 -8.3 0 0 990.6 NA 0.0000 9999 2460 0 0 0
2019/06/22 05:33:01 BASE 5.16 240 6.74 221 -4.5 75 -8.3 0 0 990.7 NA 0.0000 9999 2430 0 0 0
2019/06/22 05:34:01 BASE 4.94 251 6.74 221 -4.5 75 -8.4 0 0 990.7 NA 0.0000 9999 2660 0 0 0
2019/06/22 05:35:01 BASE 4.37 246 6.74 221 -4.6 75 -8.4 0 0 990.7 NA 0.0000 9999 2660 0 0 0
2019/06/22 05:36:01 BASE 3.90 243 6.74 221 -4.6 75 -8.3 0 0 990.7 NA 0.0000 9999 2530 3020 0 0
2019/06/22 05:37:01 BASE 3.58 249 6.43 219 -4.6 76 -8.3 0 0 990.7 NA 0.0000 9999 2590 0 0 0
2019/06/22 05:38:01 BASE 3.20 261 6.43 219 -4.7 76 -8.2 0 0 990.7 NA 0.0000 9999 2660 0 0 0
2019/06/22 05:39:01 BASE 2.56 272 6.17 248 -4.7 77 -8.1 0 0 990.7 NA 0.0000 9999 2430 0 0 0
2019/06/22 05:40:01 BASE 1.73 271 6.17 248 -4.7 77 -8.1 0 0 990.7 NA 0.0000 9999 2460 0 0 0
2019/06/22 05:41:01 BASE 1.16 253 6.17 248 -4.7 77 -8.1 0 0 990.7 NA 0.0000 9999 2690 0 0 0
2019/06/22 05:42:01 BASE 1.28 242 5.81 253 -4.7 76 -8.2 0 0 990.7 NA 0.0000 9999 2590 0 0 0
2019/06/22 05:43:01 BASE 2.03 244 5.45 251 -4.6 76 -8.2 0 0 990.7 NA 0.0000 9999 2560 0 0 0
2019/06/22 05:44:01 BASE 2.22 241 4.37 242 -4.6 76 -8.2 0 0 990.7 NA 0.0000 9999 2560 0 0 0
2019/06/22 05:45:01 BASE 2.31 235 4.73 229 -4.6 76 -8.2 0 0 990.7 NA 0.0000 9999 2560 0 0 0
2019/06/22 05:46:01 BASE 3.50 231 4.73 229 -4.6 76 -8.2 0 0 990.7 NA 0.0000 9999 2560 0 0 0
2019/06/22 05:47:01 BASE 4.06 219 4.73 229 -4.5 75 -8.2 0 0 990.7 NA 0.0000 9999 2560 0 0 0
2019/06/22 05:48:01 BASE 3.39 214 4.73 229 -4.5 75 -8.2 0 0 990.7 NA 0.0000 9999 2490 0 0 0
2019/06/22 05:49:01 BASE 2.58 222 4.73 229 -4.5 75 -8.3 0 0 990.7 NA 0.0000 9999 2530 0 0 0
2019/06/22 05:50:01 BASE 1.95 222 4.73 229 -4.5 75 -8.3 0 0 990.7 NA 0.0000 9999 2530 0 0 0
2019/06/22 05:51:01 BASE 1.19 221 4.73 229 -4.5 75 -8.3 0 0 990.7 NA 0.0000 9999 2530 0 0 0
2019/06/22 05:52:01 BASE 0.66 218 4.73 229 -4.5 75 -8.3 0 0 990.7 NA 0.0000 9999 2560 0 0 0
2019/06/22 05:53:01 BASE 0.35 246 4.73 229 -4.5 75 -8.3 0 0 990.7 NA 0.0000 9999 2560 0 0 0
2019/06/22 05:54:01 BASE 0.11 277 4.73 229 -4.5 74 -8.4 0 0 990.7 NA 0.0000 9999 2430 0 0 0
2019/06/22 05:55:01 BASE 0.76 258 4.68 222 -4.6 74 -8.5 0 0 990.7 NA 0.0000 9999 2430 0 0 0
2019/06/22 05:56:01 BASE 1.89 226 4.12 216 -4.6 74 -8.5 0 0 990.7 NA 0.0000 9999 2430 0 0 0
2019/06/22 05:57:01 BASE 3.30 206 4.32 206 -4.6 74 -8.5 0 0 990.7 NA 0.0000 9999 2430 0 0 0
2019/06/22 05:58:01 BASE 4.13 211 4.89 217 -4.6 74 -8.4 0 0 990.7 NA 0.0000 9999 2430 0 0 0
2019/06/22 05:59:01 BASE 3.93 214 4.89 217 -4.6 75 -8.4 0 0 990.7 NA 0.0000 9999 2530 0 0 0
2019/06/22 06:00:01 BASE 3.61 215 4.89 217 -4.5 75 -8.3 0 0 990.7 NA 0.0000 9999 2430 0 0 0
2019/06/22 06:01:01 BASE 3.32 222 4.89 217 -4.5 75 -8.2 0 0 990.7 NA 0.0000 9999 2560 0 0 0
2019/06/22 06:02:01 BASE 2.97 230 4.89 217 -4.4 75 -8.2 0 0 990.7 NA 0.0000 9999 2530 0 0 0
2019/06/22 06:03:01 BASE 2.58 234 4.89 217 -4.4 75 -8.3 0 0 990.7 NA 0.0000 9999 2490 0 0 0
2019/06/22 06:04:01 BASE 2.39 240 4.89 217 -4.4 74 -8.3 0 0 990.7 NA 0.0000 9999 2460 0 0 0
2019/06/22 06:05:01 BASE 2.88 248 4.89 217 -4.4 74 -8.3 0 0 990.7 NA 0.0000 9999 2460 0 0 0
2019/06/22 06:06:01 BASE 3.00 247 4.89 217 -4.4 74 -8.3 0 0 990.7 NA 0.0000 9999 2490 0 0 0
2019/06/22 06:07:01 BASE 2.38 244 4.89 217 -4.4 74 -8.3 0 0 990.8 NA 0.0000 9999 2560 0 0 0
2019/06/22 06:08:01 BASE 2.50 249 4.37 216 -4.4 74 -8.3 0 0 990.8 NA 0.0000 9999 2690 0 0 0
2019/06/22 06:09:01 BASE 3.14 251 3.91 218 -4.4 75 -8.3 0 0 990.8 NA 0.0000 9999 2560 0 0 0
2019/06/22 06:10:01 BASE 3.46 250 4.84 262 -4.4 75 -8.2 0 0 990.7 NA 0.0000 9999 2530 0 0 0
2019/06/22 06:11:01 BASE 3.51 249 4.84 262 -4.5 75 -8.2 0 0 990.7 NA 0.0000 9999 2400 0 0 0
2019/06/22 06:12:01 BASE 4.35 239 7.31 252 -4.5 75 -8.2 0 0 990.7 NA 0.0000 9999 2400 0 0 0
2019/06/22 06:13:01 BASE 5.39 216 7.31 252 -4.5 76 -8.2 0 0 990.7 NA 0.0000 9999 2400 0 0 0
2019/06/22 06:14:01 BASE 5.78 206 7.31 252 -4.5 76 -8.1 0 0 990.7 NA 0.0000 9999 2400 0 0 0
2019/06/22 06:15:01 BASE 5.77 208 7.31 252 -4.5 77 -8.0 0 0 990.8 NA 0.0000 9999 2360 0 0 0
2019/06/22 06:16:01 BASE 5.40 203 7.31 252 -4.5 77 -8.0 0 0 990.8 NA 0.0000 9999 2360 0 0 0
2019/06/22 06:17:00 BASE 5.07 202 7.31 252 -4.5 77 -7.9 0 0 990.8 NA 0.0000 9999 2360 0 0 0
2019/06/22 06:18:00 BASE 4.45 199 7.31 252 -4.5 77 -7.9 0 0 990.8 NA 0.0000 9999 2330 0 0 0
2019/06/22 06:19:00 BASE 4.14 196 7.31 252 -4.5 77 -7.9 0 0 990.8 NA 0.0000 9999 2360 0 0 0
2019/06/22 06:20:00 BASE 4.24 196 7.31 252 -4.5 77 -7.9 0 0 990.8 NA 0.0000 9999 2430 0 0 0
2019/06/22 06:21:00 BASE 4.56 196 7.31 252 -4.5 77 -7.9 0 0 990.8 NA 0.0000 9999 2330 0 0 0
2019/06/22 06:22:00 BASE 4.91 200 6.79 207 -4.5 77 -7.9 0 0 990.8 NA 0.0000 9999 2300 0 0 0
2019/06/22 06:23:00 BASE 4.63 209 6.79 207 -4.5 77 -7.9 0 0 990.8 NA 0.0000 9999 2360 0 0 0
2019/06/22 06:24:00 BASE 4.19 213 6.28 204 -4.5 77 -7.9 0 0 990.8 NA 0.0000 9999 2360 0 0 0
2019/06/22 06:25:00 BASE 4.33 217 5.92 190 -4.5 77 -7.9 0 0 990.8 NA 0.0000 9999 2260 0 0 0
2019/06/22 06:26:00 BASE 4.19 228 5.45 193 -4.5 77 -7.9 0 0 990.8 NA 0.0000 9999 2260 0 0 0
2019/06/22 06:27:00 BASE 3.15 235 5.45 193 -4.5 77 -7.9 0 0 990.8 NA 0.0000 9999 2300 0 0 0
2019/06/22 06:28:00 BASE 2.85 218 5.45 193 -4.5 77 -7.9 0 0 990.8 NA 0.0000 9999 2300 0 0 0
2019/06/22 06:29:00 BASE 3.00 192 5.45 193 -4.5 77 -7.9 0 0 990.8 NA 0.0000 9999 2400 0 0 0
2019/06/22 06:30:00 BASE 2.53 192 5.45 193 -4.5 77 -7.9 0 0 990.8 NA 0.0000 9999 2360 0 0 0
2019/06/22 06:31:00 BASE 2.26 211 5.45 193 -4.5 77 -8.0 0 0 990.8 NA 0.0000 9999 2360 0 0 0
2019/06/22 06:32:00 BASE 2.45 217 5.04 229 -4.5 77 -8.0 0 0 990.9 NA 0.0000 9999 2360 0 0 0
2019/06/22 06:33:01 BASE 2.58 208 5.04 229 -4.5 77 -8.0 0 0 990.9 NA 0.0000 9999 2400 0 0 0
2019/06/22 06:34:01 BASE 2.73 209 5.04 229 -4.5 77 -7.9 0 0 990.9 NA 0.0000 9999 2490 0 0 0
2019/06/22 06:35:00 BASE 3.81 219 5.92 237 -4.5 77 -7.9 0 0 990.9 NA 0.0000 9999 2400 0 0 0
2019/06/22 06:36:00 BASE 4.92 236 5.92 237 -4.5 77 -7.9 0 0 990.9 NA 0.0000 9999 2490 0 0 0
2019/06/22 06:37:00 BASE 5.71 245 6.94 245 -4.5 77 -7.9 0 0 990.9 NA 0.0000 9999 2490 0 0 0
2019/06/22 06:38:00 BASE 6.20 246 6.94 245 -4.5 77 -7.9 0 0 990.9 NA 0.0000 9999 2530 0 0 0
2019/06/22 06:39:00 BASE 5.86 246 6.94 245 -4.6 77 -8.0 0 0 990.9 NA 0.0000 9999 2760 3310 0 0
2019/06/22 06:40:00 BASE 5.21 245 6.94 245 -4.6 77 -8.0 0 0 990.9 NA 0.0000 9999 2590 0 0 0
2019/06/22 06:41:00 BASE 4.48 246 6.94 245 -4.6 76 -8.1 0 0 990.9 NA 0.0000 9999 2690 0 0 0
2019/06/22 06:42:00 BASE 3.81 252 6.94 245 -4.6 76 -8.2 0 0 991.0 NA 0.0000 9999 2720 0 0 0
2019/06/22 06:43:00 BASE 3.55 257 6.94 245 -4.6 76 -8.3 0 0 991.0 NA 0.0000 9999 0 0 0 0
2019/06/22 06:44:00 BASE 3.34 261 6.94 245 -4.6 75 -8.3 0 0 991.0 NA 0.0000 9999 3250 0 0 0
2019/06/22 06:45:00 BASE 3.00 263 6.94 245 -4.6 75 -8.3 0 0 991.0 NA 0.0000 9999 3080 0 0 0
2019/06/22 06:46:00 BASE 3.58 258 6.94 245 -4.5 75 -8.3 0 0 991.0 NA 0.0000 9999 2820 0 0 0
2019/06/22 06:47:00 BASE 4.07 260 6.94 245 -4.5 75 -8.4 0 0 991.0 NA 0.0000 9999 2690 0 0 0
2019/06/22 06:48:00 BASE 4.04 263 5.92 247 -4.5 74 -8.4 0 0 991.0 NA 0.0000 9999 2590 0 0 0
2019/06/22 06:49:00 BASE 4.07 254 5.35 243 -4.5 74 -8.4 0 0 991.0 NA 0.0000 9999 2560 0 0 0
2019/06/22 06:50:00 BASE 4.30 235 5.45 215 -4.5 74 -8.5 0 0 991.0 NA 0.0000 9999 2560 0 0 0
2019/06/22 06:51:00 BASE 4.34 209 5.45 215 -4.5 74 -8.4 0 0 991.0 NA 0.0000 9999 2530 0 0 0
2019/06/22 06:52:00 BASE 5.35 208 8.33 223 -4.5 74 -8.4 0 0 990.9 NA 0.0000 9999 2490 0 0 0
2019/06/22 06:53:00 BASE 6.02 232 8.33 223 -4.5 75 -8.4 0 0 990.9 NA 0.0000 9999 2490 0 0 0
2019/06/22 06:54:00 BASE 5.53 241 8.33 223 -4.5 75 -8.3 0 0 990.9 NA 0.0000 9999 2430 0 0 0
2019/06/22 06:55:00 BASE 6.20 237 8.33 223 -4.5 75 -8.3 0 0 990.9 NA 0.0000 9999 2430 0 0 0
2019/06/22 06:56:00 BASE 6.82 232 8.33 223 -4.5 75 -8.3 0 0 990.9 NA 0.0000 9999 2460 0 0 0
2019/06/22 06:57:00 BASE 7.41 227 8.54 229 -4.5 75 -8.3 0 0 990.9 NA 0.0000 9999 2460 0 0 0
2019/06/22 06:58:00 BASE 7.76 229 8.54 229 -4.5 75 -8.3 0 0 990.9 NA 0.0000 9999 2430 0 0 0
2019/06/22 06:59:00 BASE 6.78 228 8.54 229 -4.5 75 -8.3 0 0 990.9 NA 0.0000 9999 3250 0 0 0
2019/06/22 07:00:00 BASE 5.65 228 8.54 229 -4.5 75 -8.3 0 0 991.0 NA 0.0000 9999 2690 0 0 0
2019/06/22 07:01:00 BASE 5.51 233 8.54 229 -4.5 75 -8.3 0 0 991.0 NA 0.0000 9999 2660 0 0 0
2019/06/22 07:02:00 BASE 5.96 239 8.54 229 -4.5 74 -8.4 0 0 991.0 NA 0.0000 9999 2620 0 0 0
2019/06/22 07:03:00 BASE 6.80 239 8.54 229 -4.5 74 -8.4 0 0 990.9 NA 0.0000 9999 2620 0 0 0
2019/06/22 07:04:00 BASE 7.34 234 8.54 229 -4.6 74 -8.4 0 0 991.0 NA 0.0000 9999 2620 0 0 0
2019/06/22 07:05:00 BASE 6.63 234 8.54 229 -4.6 75 -8.4 0 0 991.0 NA 0.0000 9999 2620 0 0 0
2019/06/22 07:06:00 BASE 5.93 241 8.54 229 -4.6 75 -8.5 0 0 991.0 NA 0.0000 9999 2490 0 0 0
2019/06/22 07:07:00 BASE 5.27 246 8.39 243 -4.7 75 -8.5 0 0 991.0 NA 0.0000 9999 2690 0 0 0
2019/06/22 07:08:00 BASE 4.70 252 8.39 243 -4.7 74 -8.5 0 0 991.0 NA 0.0000 9999 2560 0 0 0
2019/06/22 07:09:00 BASE 4.59 260 8.39 243 -4.7 74 -8.6 0 0 991.0 NA 0.0000 9999 2430 0 0 0
2019/06/22 07:10:00 BASE 4.42 259 8.39 243 -4.7 74 -8.7 0 0 991.0 NA 0.0000 9999 2460 0 0 0
2019/06/22 07:11:00 BASE 3.99 263 8.39 243 -4.7 73 -8.7 0 0 991.0 NA 0.0000 9999 2490 0 0 0
2019/06/22 07:12:00 BASE 3.48 270 8.39 243 -4.7 73 -8.7 0 0 991.0 NA 0.0000 9999 2560 0 0 0
2019/06/22 07:13:00 BASE 2.95 266 7.72 233 -4.6 73 -8.8 0 0 991.0 NA 0.0000 9999 2590 0 0 0
2019/06/22 07:14:00 BASE 2.65 260 6.53 231 -4.6 73 -8.8 0 0 991.0 NA 0.0000 9999 2560 0 0 0
2019/06/22 07:15:00 BASE 2.87 252 6.12 244 -4.6 72 -8.8 0 0 991.0 NA 0.0000 9999 2530 0 0 0
2019/06/22 07:16:00 BASE 4.05 233 6.07 218 -4.6 72 -8.9 0 0 991.0 NA 0.0000 9999 2560 0 0 0
2019/06/22 07:17:00 BASE 5.21 219 6.07 218 -4.6 72 -8.9 0 0 991.0 NA 0.0000 9999 2490 0 0 0
2019/06/22 07:18:00 BASE 5.32 214 6.07 213 -4.6 72 -8.8 0 0 991.0 NA 0.0000 9999 2490 0 0 0
2019/06/22 07:19:00 BASE 4.94 213 6.07 213 -4.6 73 -8.7 0 0 991.0 NA 0.0000 9999 2530 0 0 0
2019/06/22 07:20:00 BASE 4.48 209 6.07 213 -4.6 73 -8.7 0 0 991.0 NA 0.0000 9999 2530 0 0 0
2019/06/22 07:21:00 BASE 4.23 209 6.07 213 -4.6 74 -8.6 0 0 991.0 NA 0.0000 9999 2430 0 0 0
2019/06/22 07:22:00 BASE 4.25 209 6.07 213 -4.6 74 -8.5 0 0 991.0 NA 0.0000 9999 2490 0 0 0
2019/06/22 07:23:00 BASE 4.18 208 6.07 213 -4.6 74 -8.5 0 0 991.0 NA 0.0000 9999 2620 0 0 0
2019/06/22 07:24:00 BASE 3.86 220 6.07 213 -4.6 74 -8.5 0 0 991.0 NA 0.0000 9999 0 0 0 0
2019/06/22 07:25:00 BASE 4.24 244 6.07 213 -4.6 74 -8.5 0 0 991.0 NA 0.0000 9999 0 0 0 0
2019/06/22 07:26:00 BASE 4.42 256 6.07 213 -4.7 74 -8.6 0 0 991.0 NA 0.0000 9999 0 0 0 0
2019/06/22 07:27:00 BASE 3.66 256 6.07 213 -4.7 74 -8.6 0 0 991.0 NA 0.0000 9999 0 0 0 0
2019/06/22 07:28:00 BASE 2.71 249 5.25 215 -4.7 74 -8.7 0 0 991.0 NA 0.0000 9999 2490 0 0 0
2019/06/22 07:29:00 BASE 2.00 241 4.99 215 -4.8 74 -8.8 0 0 991.0 NA 0.0000 9999 2460 3640 0 0
2019/06/22 07:30:00 BASE 1.43 240 4.99 215 -4.7 73 -8.8 0 0 991.0 NA 0.0000 9999 3580 0 0 0
2019/06/22 07:31:00 BASE 0.55 237 4.89 244 -4.7 73 -8.9 0 0 991.0 NA 0.0000 9999 0 0 0 0
2019/06/22 07:32:00 BASE 1.03 230 4.89 244 -4.7 72 -9.0 0 0 991.0 NA 0.0000 9999 0 0 0 0
2019/06/22 07:33:00 BASE 2.80 231 4.89 244 -4.6 71 -9.0 0 0 991.0 NA 0.0000 9999 2590 0 0 0
2019/06/22 07:34:00 BASE 3.73 237 4.89 244 -4.6 71 -9.1 0 0 991.0 NA 0.0000 9999 0 0 0 0
2019/06/22 07:35:00 BASE 4.37 236 5.66 238 -4.7 70 -9.2 0 0 991.0 NA 0.0000 9999 2360 0 0 0
2019/06/22 07:36:00 BASE 4.66 233 5.66 238 -4.7 71 -9.2 0 0 991.0 NA 0.0000 9999 0 0 0 0
2019/06/22 07:37:00 BASE 4.41 232 5.66 238 -4.7 71 -9.2 0 0 991.0 NA 0.0000 9999 0 0 0 0
2019/06/22 07:38:00 BASE 3.95 238 5.66 238 -4.8 71 -9.2 0 0 991.0 NA 0.0000 9999 0 0 0 0
2019/06/22 07:39:00 BASE 3.46 246 5.66 238 -4.8 72 -9.1 0 0 991.0 NA 0.0000 9999 0 0 0 0
2019/06/22 07:40:00 BASE 3.27 252 5.66 238 -4.8 72 -9.0 0 0 991.0 NA 0.0000 9999 0 0 0 0
2019/06/22 07:41:00 BASE 3.20 252 5.66 238 -4.8 72 -9.0 0 0 991.0 NA 0.0000 9999 0 0 0 0
2019/06/22 07:42:00 BASE 3.20 250 5.66 238 -4.8 72 -9.1 0 0 991.0 NA 0.0000 9999 2490 0 0 0
2019/06/22 07:43:00 BASE 3.06 243 5.66 238 -4.8 72 -9.1 0 0 991.0 NA 0.0000 9999 0 0 0 0
2019/06/22 07:44:00 BASE 2.67 236 5.66 238 -4.8 72 -9.1 0 0 991.0 NA 0.0000 9999 3610 0 0 0
2019/06/22 07:45:00 BASE 2.24 244 5.40 231 -4.8 72 -9.1 0 0 991.1 NA 0.0000 9999 2490 0 0 0
2019/06/22 07:46:00 BASE 2.13 246 5.04 231 -4.8 72 -9.1 0 0 991.1 NA 0.0000 9999 2430 3480 0 0
2019/06/22 07:47:00 BASE 2.40 243 4.12 243 -4.8 72 -9.1 0 0 991.1 NA 0.0000 9999 2460 3510 0 0
2019/06/22 07:48:00 BASE 3.14 248 4.32 244 -4.8 72 -9.1 0 0 991.2 NA 0.0000 9999 3450 0 0 0
2019/06/22 07:49:00 BASE 3.92 247 4.42 246 -4.9 72 -9.1 0 0 991.1 NA 0.0000 9999 3410 0 0 0
2019/06/22 07:50:00 BASE 4.19 235 4.78 219 -4.9 72 -9.1 0 0 991.2 NA 0.0000 9999 3380 0 0 0
2019/06/22 07:51:00 BASE 4.57 225 5.25 228 -5.0 73 -9.1 0 0 991.2 NA 0.0000 9999 3380 0 0 0
2019/06/22 07:52:00 BASE 4.66 218 5.25 228 -5.0 73 -9.0 0 0 991.2 NA 0.0000 9999 3510 0 0 0
2019/06/22 07:53:00 BASE 3.84 214 5.25 228 -4.9 74 -8.9 0 0 991.2 NA 0.0000 9999 3250 0 0 0
2019/06/22 07:54:00 BASE 3.39 220 5.25 228 -4.8 74 -8.8 0 0 991.2 NA 0.0000 9999 3250 3580 0 0
2019/06/22 07:55:00 BASE 3.85 234 5.25 228 -4.8 74 -8.7 0 0 991.2 NA 0.0000 9999 3510 0 0 0
2019/06/22 07:56:00 BASE 3.89 245 5.25 228 -4.8 74 -8.7 0 0 991.2 NA 0.0000 9999 3480 0 0 0
2019/06/22 07:57:00 BASE 3.22 245 5.25 228 -4.8 74 -8.8 0 0 991.2 NA 0.0000 9999 3450 0 0 0
2019/06/22 07:58:00 BASE 2.52 248 5.25 228 -4.8 74 -8.8 0 0 991.2 NA 0.0000 9999 3250 0 0 0
2019/06/22 07:59:00 BASE 1.93 254 5.25 228 -4.9 74 -8.9 0 0 991.2 NA 0.0000 9999 3220 0 0 0
2019/06/22 08:00:00 BASE 1.87 256 5.25 228 -4.8 74 -8.8 0 0 991.2 NA 0.0000 9999 3180 0 0 0
2019/06/22 08:01:00 BASE 1.72 267 5.14 218 -4.8 73 -8.8 0 0 991.2 NA 0.0000 9999 3180 0 0 0
2019/06/22 08:02:00 BASE 0.87 280 4.89 254 -4.7 73 -8.8 0 0 991.2 NA 0.0000 9999 3150 0 0 0
2019/06/22 08:03:00 BASE 0.80 276 4.89 254 -4.7 73 -8.8 0 0 991.2 NA 0.0000 9999 3050 0 0 0
2019/06/22 08:04:00 BASE 1.66 256 4.89 254 -4.7 73 -8.8 0 0 991.2 NA 0.0000 9999 2460 3080 0 0
2019/06/22 08:05:00 BASE 2.22 246 4.32 251 -4.7 73 -8.8 0 0 991.2 NA 0.0000 9999 2720 3150 0 0
2019/06/22 08:06:00 BASE 2.49 246 3.24 242 -4.7 73 -8.8 0 0 991.2 NA 0.0000 9999 2660 0 0 0
2019/06/22 08:07:00 BASE 3.03 245 3.76 246 -4.7 73 -8.8 0 0 991.3 NA 0.0000 9999 2920 0 0 0
2019/06/22 08:08:00 BASE 3.59 244 4.01 242 -4.8 74 -8.8 0 0 991.3 NA 0.0000 9999 2920 0 0 0
2019/06/22 08:09:00 BASE 3.41 240 4.01 242 -4.9 74 -8.8 0 0 991.3 NA 0.0000 9999 2920 0 0 0
2019/06/22 08:10:00 BASE 2.93 243 4.01 242 -4.9 74 -8.8 0 0 991.3 NA 0.0000 9999 2850 0 0 0
2019/06/22 08:11:00 BASE 2.87 250 4.01 242 -4.9 74 -8.9 0 0 991.3 NA 0.0000 9999 2920 0 0 0
2019/06/22 08:12:00 BASE 3.39 249 4.12 250 -4.9 74 -8.9 0 0 991.3 NA 0.0000 9999 2850 3670 0 0
2019/06/22 08:13:00 BASE 3.55 247 4.12 250 -4.9 74 -8.8 0 0 991.3 NA 0.0000 9999 2790 3670 0 0
2019/06/22 08:14:00 BASE 3.16 243 4.12 250 -4.9 74 -8.8 0 0 991.3 NA 0.0000 9999 2590 0 0 0
2019/06/22 08:15:00 BASE 2.91 234 4.12 250 -4.9 74 -8.8 0 0 991.3 NA 0.0000 9999 2590 0 0 0
2019/06/22 08:16:00 BASE 2.70 236 4.12 250 -4.9 74 -8.8 0 0 991.3 NA 0.0000 9999 2660 0 0 0
2019/06/22 08:17:00 BASE 2.62 242 4.12 250 -4.9 74 -8.8 0 0 991.3 NA 0.0000 9999 2660 0 0 0
2019/06/22 08:18:00 BASE 2.88 244 4.12 250 -4.9 74 -8.8 0 0 991.3 NA 0.0000 9999 2560 0 0 0
2019/06/22 08:19:00 BASE 2.94 244 4.12 250 -4.9 74 -8.8 0 0 991.3 NA 0.0000 9999 2590 0 0 0
2019/06/22 08:20:00 BASE 2.47 245 4.12 250 -4.8 74 -8.8 0 0 991.3 NA 0.0000 9999 2590 0 0 0
2019/06/22 08:21:00 BASE 2.56 245 4.12 250 -4.8 74 -8.8 0 0 991.3 NA 0.0000 9999 2690 0 0 0
2019/06/22 08:22:00 BASE 2.79 229 4.01 230 -4.8 74 -8.8 0 0 991.3 NA 0.0000 9999 2620 0 0 0
2019/06/22 08:23:00 BASE 2.19 198 4.01 230 -4.8 73 -8.9 0 0 991.3 NA 0.0000 9999 2620 0 0 0
2019/06/22 08:24:00 BASE 1.40 195 4.01 230 -4.9 73 -8.9 0 0 991.3 NA 0.0000 9999 2620 0 0 0
2019/06/22 08:25:00 BASE 1.95 221 4.01 230 -4.9 74 -8.9 0 0 991.3 NA 0.0000 9999 2620 0 0 0
2019/06/22 08:26:00 BASE 2.76 237 4.01 230 -5.0 74 -8.9 0 0 991.4 NA 0.0000 9999 2620 0 0 0
2019/06/22 08:27:00 BASE 2.67 241 4.01 230 -5.0 74 -8.8 0 0 991.4 NA 0.0000 9999 2400 0 0 0
2019/06/22 08:28:00 BASE 2.74 245 4.01 230 -5.0 75 -8.8 0 0 991.4 NA 0.0000 9999 2400 0 0 0
2019/06/22 08:29:00 BASE 2.87 247 4.01 230 -4.9 75 -8.7 0 0 991.4 NA 0.0000 9999 2360 0 0 0
2019/06/22 08:30:00 BASE 3.24 243 4.01 242 -4.9 75 -8.7 0 0 991.4 NA 0.0000 9999 2400 0 0 0
2019/06/22 08:31:00 BASE 3.62 242 4.01 242 -4.9 75 -8.7 0 0 991.4 NA 0.0000 9999 2430 0 0 0
2019/06/22 08:32:00 BASE 3.44 246 4.01 242 -4.9 75 -8.6 0 0 991.4 NA 0.0000 9999 2400 0 0 0
2019/06/22 08:33:00 BASE 3.16 249 4.01 242 -4.8 75 -8.6 0 0 991.4 NA 0.0000 9999 2400 0 0 0
2019/06/22 08:34:00 BASE 3.19 246 4.01 242 -4.8 75 -8.6 0 0 991.4 NA 0.0000 9999 2400 0 0 0
2019/06/22 08:35:00 BASE 3.89 224 4.78 213 -4.7 75 -8.5 0 0 991.4 NA 0.0000 9999 2330 0 0 0
2019/06/22 08:36:00 BASE 4.82 215 5.81 228 -4.7 75 -8.5 0 0 991.4 NA 0.0000 9999 2460 0 0 0
2019/06/22 08:37:00 BASE 4.95 228 5.81 228 -4.7 75 -8.5 0 0 991.4 NA 0.0000 9999 2400 0 0 0
2019/06/22 08:38:00 BASE 4.38 237 5.81 228 -4.7 75 -8.4 0 0 991.4 NA 0.0000 9999 2400 0 0 0
2019/06/22 08:39:00 BASE 3.96 249 5.81 228 -4.7 75 -8.4 0 0 991.4 NA 0.0000 9999 2330 0 0 0
2019/06/22 08:40:00 BASE 3.48 258 5.81 228 -4.7 76 -8.3 0 0 991.4 NA 0.0000 9999 2330 0 0 0
2019/06/22 08:41:00 BASE 2.84 265 5.81 228 -4.7 76 -8.3 0 0 991.4 NA 0.0000 9999 2330 0 0 0
2019/06/22 08:42:00 BASE 2.86 265 5.81 228 -4.7 76 -8.3 0 0 991.4 NA 0.0000 9999 2360 0 0 0
2019/06/22 08:43:00 BASE 2.83 256 5.81 228 -4.7 76 -8.3 0 0 991.4 NA 0.0000 9999 2330 0 0 0
2019/06/22 08:44:00 BASE 2.74 248 5.81 228 -4.7 76 -8.3 0 0 991.4 NA 0.0000 9999 2300 0 0 0
2019/06/22 08:45:00 BASE 3.59 229 5.81 228 -4.7 76 -8.3 0 0 991.4 NA 0.0000 9999 2400 0 0 0
2019/06/22 08:46:00 BASE 4.72 213 5.76 219 -4.7 76 -8.3 0 0 991.5 NA 0.0000 9999 2330 0 0 0
2019/06/22 08:47:00 BASE 4.95 215 5.76 219 -4.7 76 -8.2 0 0 991.5 NA 0.0000 9999 2330 0 0 0
2019/06/22 08:48:00 BASE 4.83 215 5.76 219 -4.7 77 -8.1 0 0 991.5 NA 0.0000 9999 2260 0 0 0
2019/06/22 08:49:00 BASE 5.01 220 6.02 219 -4.6 77 -8.1 0 0 991.5 NA 0.0000 9999 2330 0 0 0
2019/06/22 08:50:00 BASE 4.79 231 6.02 219 -4.6 77 -8.1 0 0 991.5 NA 0.0000 9999 2230 0 0 0
2019/06/22 08:51:00 BASE 4.49 234 6.02 219 -4.6 77 -8.1 0 0 991.5 NA 0.0000 9999 2100 0 0 0
2019/06/22 08:52:00 BASE 4.65 234 6.02 219 -4.7 77 -8.1 0 0 991.5 NA 0.0000 9999 2230 0 0 0
2019/06/22 08:53:00 BASE 4.61 235 6.02 219 -4.7 77 -8.2 0 0 991.5 NA 0.0000 9999 2260 0 0 0
2019/06/22 08:54:00 BASE 4.42 231 6.02 219 -4.7 77 -8.2 0 0 991.5 NA 0.0000 9999 2230 0 0 0
2019/06/22 08:55:00 BASE 4.70 220 6.02 219 -4.7 77 -8.1 0 0 991.5 NA 0.0000 9999 2170 0 0 0
2019/06/22 08:56:00 BASE 5.14 214 6.02 219 -4.7 77 -8.1 0 0 991.5 NA 0.0000 9999 2260 0 0 0
2019/06/22 08:57:00 BASE 4.96 212 6.02 219 -4.7 77 -8.1 0 0 991.5 NA 0.0000 9999 2230 0 0 0
2019/06/22 08:58:00 BASE 4.36 209 6.02 219 -4.7 78 -8.0 0 0 991.5 NA 0.0000 9999 2300 0 0 0
2019/06/22 08:59:00 BASE 3.53 209 5.97 212 -4.7 78 -8.0 0 0 991.5 NA 0.0000 9999 2260 0 0 0
2019/06/22 09:00:00 BASE 2.53 207 5.97 212 -4.7 78 -7.9 0 0 991.5 NA 0.0000 9999 2460 0 0 0
2019/06/22 09:01:00 BASE 2.05 208 5.97 212 -4.7 78 -8.0 0 0 991.5 NA 0.0000 9999 2070 0 0 0
2019/06/22 09:02:00 BASE 2.33 218 5.97 212 -4.7 78 -8.0 0 0 991.5 NA 0.0000 9999 2260 0 0 0
2019/06/22 09:03:00 BASE 2.71 233 5.97 212 -4.7 77 -8.0 0 0 991.5 NA 0.0000 9999 2260 0 0 0
2019/06/22 09:04:00 BASE 2.68 248 5.97 212 -4.7 77 -8.1 0 0 991.5 NA 0.0000 9999 0 0 0 0
2019/06/22 09:05:00 BASE 2.70 253 5.81 217 -4.8 77 -8.2 0 0 991.5 NA 0.0000 9999 2300 0 0 0
2019/06/22 09:06:00 BASE 2.65 247 4.99 214 -4.8 77 -8.1 0 0 991.5 NA 0.0000 9999 2130 0 0 0
2019/06/22 09:07:00 BASE 2.52 248 4.42 211 -4.8 78 -8.1 0 0 991.5 NA 0.0000 9999 2130 0 0 0
2019/06/22 09:08:00 BASE 2.39 255 3.91 215 -4.8 78 -8.1 0 0 991.5 NA 0.0000 9999 2200 0 0 0
2019/06/22 09:09:00 BASE 2.29 267 3.76 226 -4.8 78 -8.1 0 0 991.5 NA 0.0000 9999 2200 0 0 0
2019/06/22 09:10:00 BASE 1.62 270 3.76 226 -4.8 78 -8.0 0 0 991.5 NA 0.0000 9999 2170 0 0 0
2019/06/22 09:11:00 BASE 1.43 253 3.76 226 -4.7 78 -8.1 0 0 991.5 NA 0.0000 9999 3740 0 0 0
2019/06/22 09:12:00 BASE 2.22 240 3.65 246 -4.7 77 -8.1 0 0 991.5 NA 0.0000 9999 2330 0 0 0
2019/06/22 09:13:00 BASE 2.47 243 3.65 246 -4.7 78 -8.0 0 0 991.5 NA 0.0000 9999 2300 3810 0 0
2019/06/22 09:14:00 BASE 2.74 256 3.70 264 -4.7 77 -8.0 0 0 991.5 NA 0.0000 9999 2230 0 0 0
2019/06/22 09:15:00 BASE 2.54 263 3.70 264 -4.7 77 -8.1 0 0 991.5 NA 0.0000 9999 2130 3810 0 0
2019/06/22 09:16:00 BASE 2.09 258 3.70 264 -4.7 77 -8.1 0 0 991.6 NA 0.0000 9999 3640 0 0 0
2019/06/22 09:17:00 BASE 1.94 253 3.70 264 -4.8 78 -8.1 0 0 991.6 NA 0.0000 9999 3580 0 0 0
2019/06/22 09:18:00 BASE 1.67 254 3.70 264 -4.8 78 -8.1 0 0 991.6 NA 0.0000 9999 2460 3580 0 0
2019/06/22 09:19:00 BASE 1.51 250 3.70 264 -4.8 78 -8.0 0 0 991.6 NA 0.0000 9999 3670 0 0 0
2019/06/22 09:20:00 BASE 1.72 251 3.70 264 -4.8 78 -8.0 0 0 991.6 NA 0.0000 9999 2300 3670 0 0
2019/06/22 09:21:00 BASE 1.82 256 3.70 264 -4.8 79 -7.9 0 0 991.6 NA 0.0000 9999 2300 3770 0 0
2019/06/22 09:22:00 BASE 1.63 253 3.70 264 -4.8 79 -7.9 0 0 991.6 NA 0.0000 9999 2200 0 0 0
2019/06/22 09:23:00 BASE 1.53 250 3.70 264 -4.8 79 -7.8 0 0 991.6 NA 0.0000 9999 2100 0 0 0
2019/06/22 09:24:00 BASE 1.49 252 2.88 263 -4.7 79 -7.8 0 0 991.6 NA 0.0000 9999 2200 0 0 0
2019/06/22 09:25:00 BASE 1.46 251 2.42 255 -4.7 79 -7.8 0 0 991.6 NA 0.0000 9999 2200 0 0 0
2019/06/22 09:26:00 BASE 1.45 254 2.16 252 -4.7 79 -7.8 0 0 991.6 NA 0.0000 9999 2400 3840 0 0
2019/06/22 09:27:00 BASE 1.36 238 2.16 252 -4.7 79 -7.8 0 0 991.6 NA 0.0000 9999 2360 0 0 0
2019/06/22 09:28:00 BASE 1.31 239 2.31 260 -4.7 79 -7.8 0 0 991.6 NA 0.0000 9999 2260 0 0 0
2019/06/22 09:29:00 BASE 1.50 251 2.31 260 -4.8 79 -7.8 0 0 991.6 NA 0.0000 9999 2200 0 0 0
2019/06/22 09:30:00 BASE 1.11 244 2.31 260 -4.8 79 -7.8 0 0 991.6 NA 0.0000 9999 2130 0 0 0
2019/06/22 09:31:00 BASE 0.29 245 2.31 260 -4.8 80 -7.8 0 0 991.6 NA 0.0000 9999 2130 0 0 0
2019/06/22 09:32:00 BASE 0.24 245 2.31 260 -4.8 80 -7.7 0 0 991.6 NA 0.0000 9999 2100 0 0 0
2019/06/22 09:33:00 BASE 0.43 245 2.31 260 -4.8 80 -7.7 0 0 991.7 NA 0.0000 9999 2100 0 0 0
2019/06/22 09:34:00 BASE 0.28 249 2.31 260 -4.7 80 -7.7 0 0 991.7 NA 0.0000 9999 2130 4040 0 0
2019/06/22 09:35:00 BASE 0.10 268 2.31 260 -4.7 80 -7.7 0 0 991.7 NA 0.0000 9999 2260 0 0 0
2019/06/22 09:36:00 BASE 0.80 284 2.31 260 -4.7 80 -7.6 0 0 991.7 NA 0.0000 9999 2260 0 0 0
2019/06/22 09:37:00 BASE 2.00 276 2.98 266 -4.7 80 -7.6 0 0 991.7 NA 0.0000 9999 2230 0 0 0
2019/06/22 09:38:00 BASE 2.25 263 2.98 266 -4.7 80 -7.6 0 0 991.7 NA 0.0000 9999 2070 0 0 0
2019/06/22 09:39:00 BASE 1.97 256 2.98 266 -4.8 80 -7.7 0 0 991.7 NA 0.0000 9999 2030 0 0 0
2019/06/22 09:40:00 BASE 1.50 255 2.98 266 -4.8 80 -7.7 0 0 991.7 NA 0.0000 9999 2030 0 0 0
2019/06/22 09:41:00 BASE 0.58 246 2.98 266 -4.8 80 -7.6 0 0 991.7 NA 0.0000 9999 2070 4100 0 0
2019/06/22 09:42:00 BASE 0.00 224 2.98 266 -4.8 81 -7.6 0 0 991.7 NA 0.0000 9999 1940 0 0 0
2019/06/22 09:43:00 BASE 0.00 200 2.98 266 -4.7 81 -7.5 0 0 991.7 NA 0.0000 9999 1870 0 0 0
2019/06/22 09:44:00 BASE 0.00 193 2.98 266 -4.7 81 -7.5 0 0 991.7 NA 0.0000 9999 1970 0 0 0
2019/06/22 09:45:00 BASE 0.00 200 2.98 266 -4.6 81 -7.5 0 0 991.7 NA 0.0000 9999 2100 0 0 0
2019/06/22 09:46:00 BASE 0.00 203 2.98 266 -4.6 80 -7.5 0 0 991.7 NA 0.0000 9999 2070 0 0 0
2019/06/22 09:47:00 BASE 0.00 204 2.47 267 -4.6 80 -7.5 0 0 991.7 NA 0.0000 9999 1940 0 0 0
2019/06/22 09:48:00 BASE 0.00 204 2.21 267 -4.6 80 -7.5 0 0 991.7 NA 0.0000 9999 1970 0 0 0
2019/06/22 09:49:00 BASE 0.00 204 2.21 267 -4.6 80 -7.5 0 0 991.7 NA 0.0000 9999 2000 0 0 0
2019/06/22 09:50:00 BASE 0.00 204 M M -4.6 80 -7.5 0 0 991.7 NA 0.0000 9999 2100 0 0 0
2019/06/22 09:51:00 BASE 0.00 207 M M -4.6 79 -7.6 0 0 991.7 NA 0.0000 9999 2030 0 0 0
2019/06/22 09:52:00 BASE 0.00 203 M M -4.6 79 -7.6 0 0 991.7 NA 0.0000 9999 2100 0 0 0
2019/06/22 09:53:00 BASE 0.00 194 M M -4.6 79 -7.7 0 0 991.7 NA 0.0000 9999 2070 0 0 0
2019/06/22 09:54:00 BASE 0.00 211 M M -4.6 79 -7.7 0 0 991.7 NA 0.0000 9999 2070 0 0 0
2019/06/22 09:55:00 BASE 0.00 237 M M -4.6 79 -7.7 0 0 991.7 NA 0.0000 9999 2070 0 0 0
2019/06/22 09:56:00 BASE 0.00 226 M M -4.6 79 -7.6 0 0 991.7 NA 0.0000 9999 2200 0 0 0
2019/06/22 09:57:00 BASE 0.00 197 M M -4.6 80 -7.6 0 0 991.7 NA 0.0000 9999 2030 0 0 0
2019/06/22 09:58:00 BASE 0.00 180 M M -4.6 80 -7.5 0 0 991.7 NA 0.0000 9999 2070 0 0 0
2019/06/22 09:59:00 BASE 0.00 170 M M -4.6 80 -7.5 0 0 991.7 NA 0.0000 9999 2070 0 0 0
2019/06/22 10:00:00 BASE 0.39 181 1.44 205 -4.6 80 -7.5 0 0 991.7 NA 0.0000 9999 1970 0 0 0
2019/06/22 10:01:00 BASE 0.93 200 1.44 188 -4.6 80 -7.5 0 0 991.7 NA 0.0000 9999 2070 0 0 0
2019/06/22 10:02:00 BASE 1.27 196 2.06 211 -4.6 80 -7.5 0 0 991.7 NA 0.0000 9999 2000 0 0 0
2019/06/22 10:03:00 BASE 1.49 189 2.93 209 -4.6 80 -7.5 0 0 991.7 NA 0.0000 9999 2130 0 0 0
2019/06/22 10:04:00 BASE 1.01 173 2.93 209 -4.6 80 -7.5 0 0 991.7 NA 0.0000 9999 2030 0 0 0
2019/06/22 10:05:00 BASE 0.86 158 2.93 209 -4.6 80 -7.6 0 0 991.7 NA 0.0000 9999 2000 0 0 0
2019/06/22 10:06:00 BASE 1.28 161 2.93 209 -4.7 80 -7.6 0 0 991.7 NA 0.0000 9999 2100 0 0 0
2019/06/22 10:07:00 BASE 1.51 177 2.93 209 -4.7 80 -7.6 0 0 991.7 NA 0.0000 9999 2130 0 0 0
2019/06/22 10:08:00 BASE 0.88 192 2.93 209 -4.7 80 -7.6 0 0 991.7 NA 0.0000 9999 2130 0 0 0
2019/06/22 10:09:00 BASE 0.09 190 2.93 209 -4.7 80 -7.6 0 0 991.7 NA 0.0000 9999 2130 0 0 0
2019/06/22 10:10:00 BASE 0.04 200 2.93 209 -4.7 80 -7.6 0 0 991.7 NA 0.0000 9999 2030 0 0 0
2019/06/22 10:11:00 BASE 0.00 247 2.93 209 -4.7 80 -7.6 0 0 991.7 NA 0.0000 9999 2030 0 0 0
2019/06/22 10:12:00 BASE 0.00 281 2.93 209 -4.7 80 -7.6 0 0 991.8 NA 0.0000 9999 2100 0 0 0
2019/06/22 10:13:00 BASE 0.00 277 2.11 210 -4.7 80 -7.6 0 0 991.8 NA 0.0000 9999 2100 0 0 0
2019/06/22 10:14:00 BASE 0.09 260 2.11 210 -4.6 80 -7.6 0 0 991.8 NA 0.0000 9999 2100 0 0 0
2019/06/22 10:15:00 BASE 0.40 242 2.11 210 -4.6 80 -7.6 0 0 991.8 NA 0.0000 9999 2070 0 0 0
2019/06/22 10:16:00 BASE 0.39 207 2.11 210 -4.6 80 -7.6 0 0 991.8 NA 0.0000 9999 2070 0 0 0
2019/06/22 10:17:00 BASE 0.67 161 1.44 143 -4.7 80 -7.6 0 0 991.8 NA 0.0000 9999 2070 0 0 0
2019/06/22 10:18:00 BASE 1.09 146 1.44 143 -4.7 80 -7.6 0 0 991.7 NA 0.0000 9999 2170 0 0 0
2019/06/22 10:19:00 BASE 0.99 141 1.44 143 -4.7 80 -7.7 0 0 991.7 NA 0.0000 9999 2130 0 0 0
2019/06/22 10:20:00 BASE 0.68 142 1.44 143 -4.8 80 -7.7 0 0 991.7 NA 0.0000 9999 2130 0 0 0
2019/06/22 10:21:00 BASE 0.19 148 1.44 143 -4.8 80 -7.7 0 0 991.7 NA 0.0000 9999 2100 0 0 0
2019/06/22 10:22:00 BASE 0.00 157 1.44 143 -4.8 81 -7.6 0 0 991.7 NA 0.0000 9999 2030 0 0 0
2019/06/22 10:23:00 BASE 0.41 155 1.44 143 -4.8 81 -7.6 0 0 991.8 NA 0.0000 9999 2030 0 0 0
2019/06/22 10:24:00 BASE 0.45 150 1.44 143 -4.8 81 -7.6 0 0 991.8 NA 0.0000 9999 2070 4460 0 0
2019/06/22 10:25:00 BASE 1.00 174 2.88 224 -4.8 81 -7.6 0 0 991.8 NA 0.0000 9999 2130 0 0 0
2019/06/22 10:26:00 BASE 1.39 192 2.88 224 -4.9 81 -7.6 0 0 991.8 NA 0.0000 9999 2100 0 0 0
2019/06/22 10:27:00 BASE 1.46 199 2.93 196 -4.9 81 -7.7 0 0 991.8 NA 0.0000 9999 2070 0 0 0
2019/06/22 10:28:00 BASE 2.12 214 2.93 196 -4.9 81 -7.7 0 0 991.8 NA 0.0000 9999 2000 0 0 0
2019/06/22 10:29:00 BASE 2.25 221 2.93 196 -4.9 81 -7.6 0 0 991.7 NA 0.0000 9999 2000 0 0 0
2019/06/22 10:30:00 BASE 2.06 235 2.93 196 -4.9 82 -7.5 0 0 991.7 NA 0.0000 9999 1970 0 0 0
2019/06/22 10:31:00 BASE 1.89 240 2.93 196 -4.9 82 -7.5 0 0 991.7 NA 0.0000 9999 2030 0 0 0
2019/06/22 10:32:00 BASE 1.90 241 2.93 196 -4.8 82 -7.4 0 0 991.8 NA 0.0000 9999 2030 0 0 0
2019/06/22 10:33:00 BASE 1.73 242 2.93 196 -4.9 82 -7.5 0 0 991.8 NA 0.0000 9999 2070 4560 0 0
2019/06/22 10:34:00 BASE 1.94 235 3.04 246 -4.9 82 -7.5 0 0 991.8 NA 0.0000 9999 2030 2720 4590 0
2019/06/22 10:35:00 BASE 2.57 225 3.09 219 -4.9 82 -7.5 0 0 991.8 NA 0.0000 9999 2030 2620 0 0
2019/06/22 10:36:00 BASE 2.62 220 3.09 219 -4.9 82 -7.5 0 0 991.8 NA 0.0000 9999 2070 2530 0 0
2019/06/22 10:37:00 BASE 2.66 215 3.65 205 -4.8 82 -7.4 0 0 991.8 NA 0.0000 9999 2000 4560 0 0
2019/06/22 10:38:00 BASE 3.01 211 3.65 205 -4.8 82 -7.4 0 0 991.8 NA 0.0000 9999 2300 4490 0 0
2019/06/22 10:39:00 BASE 2.87 212 3.65 205 -4.8 82 -7.4 0 0 991.8 NA 0.0000 9999 2330 4460 0 0
2019/06/22 10:40:00 BASE 2.84 215 3.65 205 -4.8 82 -7.4 0 0 991.8 NA 0.0000 9999 2530 4490 0 0
2019/06/22 10:41:00 BASE 3.13 216 3.91 217 -4.7 82 -7.3 0 0 991.8 NA 0.0000 9999 2530 4460 0 0
2019/06/22 10:42:00 BASE 3.59 218 4.58 224 -4.7 82 -7.3 0 0 991.8 NA 0.0000 9999 2590 4530 0 0
2019/06/22 10:43:00 BASE 4.19 229 4.94 239 -4.7 82 -7.3 0 0 991.8 NA 0.0000 9999 2460 4560 0 0
2019/06/22 10:44:00 BASE 3.48 238 4.94 239 -4.7 82 -7.3 0 0 991.8 NA 0.0000 9999 2430 4660 0 0
2019/06/22 10:45:00 BASE 2.35 235 4.94 239 -4.7 82 -7.3 0 0 991.8 NA 0.0000 9999 2430 4630 0 0
2019/06/22 10:46:00 BASE 3.16 229 4.94 239 -4.7 82 -7.3 0 0 991.8 NA 0.0000 9999 2400 4660 0 0
2019/06/22 10:47:00 BASE 4.06 223 4.94 239 -4.7 82 -7.3 0 0 991.8 NA 0.0000 9999 4660 0 0 0
2019/06/22 10:48:00 BASE 3.48 219 4.94 239 -4.7 82 -7.3 0 0 991.8 NA 0.0000 9999 4660 0 0 0
2019/06/22 10:49:00 BASE 2.79 215 4.94 239 -4.7 82 -7.3 0 0 991.8 NA 0.0000 9999 4630 0 0 0
2019/06/22 10:50:00 BASE 2.66 211 4.94 239 -4.7 82 -7.3 0 0 991.8 NA 0.0000 9999 2260 4630 0 0
2019/06/22 10:51:00 BASE 2.99 215 4.94 239 -4.7 82 -7.3 0 0 991.8 NA 0.0000 9999 2230 4660 0 0
2019/06/22 10:52:00 BASE 3.02 215 4.94 239 -4.6 82 -7.2 0 0 991.8 NA 0.0000 9999 4690 0 0 0
2019/06/22 10:53:00 BASE 2.60 221 4.58 222 -4.6 82 -7.2 0 0 991.8 NA 0.0000 9999 3740 4590 0 0
2019/06/22 10:54:00 BASE 2.68 243 4.58 222 -4.7 82 -7.3 0 0 991.8 NA 0.0000 9999 3770 4560 0 0
2019/06/22 10:55:01 BASE 2.73 254 4.58 222 -4.7 82 -7.3 0 0 991.8 NA 0.0000 9999 4530 0 0 0
2019/06/22 10:56:00 BASE 2.09 256 4.48 219 -4.7 82 -7.3 0 0 991.8 NA 0.0000 9999 4000 0 0 0
2019/06/22 10:57:00 BASE 1.57 261 3.76 216 -4.7 82 -7.3 0 0 991.8 NA 0.0000 9999 4400 0 0 0
2019/06/22 10:58:00 BASE 1.87 255 3.76 216 -4.7 82 -7.3 0 0 991.8 NA 0.0000 9999 4400 0 0 0
2019/06/22 10:59:00 BASE 2.09 237 3.76 216 -4.6 82 -7.3 0 0 991.8 NA 0.0000 9999 4400 0 0 0
2019/06/22 11:00:00 BASE 1.82 234 3.70 220 -4.6 82 -7.3 0 0 991.8 NA 0.0000 9999 4400 0 0 0
2019/06/22 11:01:00 BASE 2.26 246 3.34 255 -4.6 81 -7.3 0 0 991.8 NA 0.0000 9999 4360 0 0 0
2019/06/22 11:02:00 BASE 3.07 249 3.50 247 -4.7 81 -7.4 0 0 991.8 NA 0.0000 9999 3610 4460 0 0
2019/06/22 11:03:00 BASE 3.05 246 3.50 247 -4.8 81 -7.5 0 0 991.8 NA 0.0000 9999 3540 4430 0 0
2019/06/22 11:04:00 BASE 2.44 245 3.50 247 -4.9 81 -7.6 0 0 991.8 NA 0.0000 9999 3580 4460 0 0
2019/06/22 11:05:00 BASE 1.77 246 3.50 247 -4.9 81 -7.6 0 0 991.8 NA 0.0000 9999 3540 4490 0 0
2019/06/22 11:06:00 BASE 1.56 250 3.50 247 -4.9 82 -7.5 0 0 991.8 NA 0.0000 9999 3580 4430 0 0
2019/06/22 11:07:00 BASE 1.74 255 3.50 247 -4.9 82 -7.5 0 0 991.8 NA 0.0000 9999 3640 4400 0 0
2019/06/22 11:08:00 BASE 1.73 262 3.50 247 -4.8 82 -7.4 0 0 991.8 NA 0.0000 9999 3610 4330 0 0
2019/06/22 11:09:00 BASE 1.63 270 3.50 247 -4.7 82 -7.3 0 0 991.8 NA 0.0000 9999 3640 4300 0 0
2019/06/22 11:10:00 BASE 2.21 270 3.50 247 -4.7 82 -7.3 0 0 991.8 NA 0.0000 9999 3640 4400 0 0
2019/06/22 11:11:00 BASE 2.90 262 3.50 247 -4.7 82 -7.3 0 0 991.8 NA 0.0000 9999 3610 4460 0 0
2019/06/22 11:12:00 BASE 2.92 256 3.24 243 -4.7 82 -7.3 0 0 991.8 NA 0.0000 9999 3510 4330 0 0
2019/06/22 11:13:00 BASE 2.61 258 3.19 251 -4.7 82 -7.3 0 0 991.8 NA 0.0000 9999 3450 4530 0 0
2019/06/22 11:14:00 BASE 2.29 263 3.19 251 -4.7 82 -7.3 0 0 991.8 NA 0.0000 9999 3350 4460 0 0
2019/06/22 11:15:00 BASE 2.10 266 3.19 251 -4.7 82 -7.3 0 0 991.8 NA 0.0000 9999 2990 0 0 0
2019/06/22 11:16:00 BASE 1.88 268 3.19 251 -4.8 82 -7.4 0 0 991.8 NA 0.0000 9999 2890 4490 0 0
2019/06/22 11:17:00 BASE 1.74 274 3.19 251 -4.7 82 -7.3 0 0 991.8 NA 0.0000 9999 2820 0 0 0
2019/06/22 11:18:00 BASE 1.67 271 3.19 251 -4.7 82 -7.3 0 0 991.8 NA 0.0000 9999 2720 0 0 0
2019/06/22 11:19:00 BASE 1.70 261 3.19 251 -4.7 82 -7.3 0 0 991.8 NA 0.0000 9999 2620 0 0 0
2019/06/22 11:20:00 BASE 1.81 263 3.19 251 -4.7 82 -7.3 0 0 991.8 NA 0.0000 9999 2460 0 0 0
2019/06/22 11:21:00 BASE 1.63 274 3.19 251 -4.7 82 -7.3 0 0 991.8 NA 0.0000 9999 2460 0 0 0
2019/06/22 11:22:00 BASE 1.58 278 2.78 261 -4.7 82 -7.3 0 0 991.8 NA 0.0000 9999 2360 0 0 0
2019/06/22 11:23:00 BASE 1.55 279 2.37 258 -4.7 82 -7.3 0 0 991.8 NA 0.0000 9999 2460 0 0 0
2019/06/22 11:24:00 BASE 1.11 279 2.37 258 -4.6 82 -7.3 0 0 991.8 NA 0.0000 9999 2460 0 0 0
2019/06/22 11:25:00 BASE 0.54 271 2.37 258 -4.6 82 -7.3 0 0 991.8 NA 0.0000 9999 2300 0 0 0
2019/06/22 11:26:00 BASE 0.81 267 2.37 258 -4.6 81 -7.3 0 0 991.8 NA 0.0000 9999 2360 3350 0 0
2019/06/22 11:27:00 BASE 1.49 266 2.37 258 -4.6 81 -7.3 0 0 991.8 NA 0.0000 9999 2260 0 0 0
2019/06/22 11:28:00 BASE 1.72 268 2.42 265 -4.6 81 -7.4 0 0 991.8 NA 0.0000 9999 2230 0 0 0
2019/06/22 11:29:00 BASE 1.62 291 2.42 265 -4.6 81 -7.4 0 0 991.9 NA 0.0000 9999 2230 0 0 0
2019/06/22 11:30:00 BASE 1.57 328 2.42 265 -4.6 81 -7.4 0 0 991.8 NA 0.0000 9999 2200 0 0 0
2019/06/22 11:31:00 BASE 1.65 353 2.42 265 -4.7 81 -7.4 0 0 991.8 NA 0.0000 9999 2170 0 0 0
2019/06/22 11:32:00 BASE 1.81 8 2.42 265 -4.7 81 -7.4 0 0 991.8 NA 0.0000 9999 2170 0 0 0
2019/06/22 11:33:00 BASE 2.01 17 2.52 23 -4.8 82 -7.4 0 0 991.9 NA 0.0000 9999 2460 0 0 0
2019/06/22 11:34:00 BASE 1.71 23 2.52 23 -4.8 82 -7.4 0 0 992.0 NA 0.0000 9999 2560 4630 0 0
2019/06/22 11:35:00 BASE 1.62 37 2.52 23 -4.8 83 -7.3 0 0 992.0 NA 0.0000 9999 2620 0 0 0
2019/06/22 11:36:00 BASE 1.80 48 2.52 23 -4.9 83 -7.3 0 0 992.0 NA 0.0000 9999 2850 0 0 0
2019/06/22 11:37:00 BASE 1.73 42 2.52 23 -4.9 83 -7.3 0 0 992.0 NA 0.0000 9999 2890 0 0 0
2019/06/22 11:38:00 BASE 1.65 30 2.52 23 -5.0 84 -7.3 0 0 992.0 NA 0.0000 9999 3020 0 0 0
2019/06/22 11:39:00 BASE 1.83 25 2.52 23 -5.0 84 -7.3 0 0 992.0 NA 0.0000 9999 2950 0 0 0
2019/06/22 11:40:00 BASE 1.52 18 2.52 23 -5.0 84 -7.3 0 0 992.0 NA 0.0000 9999 2990 0 0 0
2019/06/22 11:41:00 BASE 0.59 15 2.52 23 -5.1 85 -7.3 0 0 992.0 NA 0.0000 9999 2890 0 0 0
2019/06/22 11:42:00 BASE 0.25 45 2.52 23 -5.1 85 -7.2 0 0 992.0 NA 0.0000 9999 2850 0 0 0
2019/06/22 11:43:00 BASE 0.75 62 2.11 25 -5.1 85 -7.2 0 0 992.0 NA 0.0000 9999 2820 0 0 0
2019/06/22 11:44:00 BASE 1.50 48 2.11 31 -5.1 85 -7.2 0 0 992.0 NA 0.0000 9999 2690 0 0 0
2019/06/22 11:45:00 BASE 2.00 47 2.31 56 -5.0 85 -7.1 0 0 992.0 NA 0.0000 9999 2760 0 0 0
2019/06/22 11:46:00 BASE 2.27 52 2.62 49 -5.0 85 -7.1 0 0 992.0 NA 0.0000 9999 2850 0 0 0
2019/06/22 11:47:00 BASE 2.36 51 2.62 53 -5.0 86 -7.1 0 0 992.0 NA 0.0000 9999 2760 0 0 0
2019/06/22 11:48:00 BASE 1.74 45 2.62 53 -5.0 86 -7.0 0 0 992.0 NA 0.0000 9999 2720 0 0 0
2019/06/22 11:49:00 BASE 1.36 43 2.62 53 -5.0 86 -7.0 0 0 992.1 NA 0.0000 9999 2790 0 0 0
2019/06/22 11:50:00 BASE 1.29 54 2.62 53 -5.1 86 -7.0 0 0 992.1 NA 0.0000 9999 2850 0 0 0
2019/06/22 11:51:00 BASE 1.26 61 2.62 53 -5.1 86 -7.1 0 0 992.1 NA 0.0000 9999 2760 0 0 0
2019/06/22 11:52:00 BASE 1.52 63 2.62 53 -5.1 86 -7.1 0 0 992.1 NA 0.0000 9999 2660 0 0 0
2019/06/22 11:53:00 BASE 1.53 65 2.62 53 -5.2 86 -7.1 0 0 992.1 NA 0.0000 9999 2530 0 0 0
2019/06/22 11:54:00 BASE 1.54 68 2.62 53 -5.2 86 -7.1 0 0 992.1 NA 0.0000 9999 2490 0 0 0
2019/06/22 11:55:00 BASE 1.69 67 2.62 53 -5.2 87 -7.1 0 0 992.1 NA 0.0000 9999 2460 0 0 0
2019/06/22 11:56:00 BASE 2.01 65 2.62 67 -5.2 87 -7.1 0 0 992.1 NA 0.0000 9999 2430 0 0 0
2019/06/22 11:57:00 BASE 1.98 75 2.62 67 -5.2 87 -7.0 0 0 992.1 NA 0.0000 9999 2360 0 0 0
2019/06/22 11:58:00 BASE 1.57 79 2.62 67 -5.2 87 -7.0 0 0 992.1 NA 0.0000 9999 2070 2530 0 0
2019/06/22 11:59:00 BASE 1.14 80 2.62 67 -5.2 87 -7.0 0 0 992.1 NA 0.0000 9999 1970 2490 0 0
2019/06/22 12:00:00 BASE 0.44 93 2.62 67 -5.2 87 -7.0 0 0 992.2 NA 0.0000 9999 1900 2530 0 0
2019/06/22 12:01:00 BASE 0.14 114 2.62 67 -5.2 87 -7.0 0 0 992.2 NA 0.0000 9999 1900 2430 0 0
2019/06/22 12:02:00 BASE 0.74 121 2.62 67 -5.1 87 -7.0 0 0 992.2 NA 0.0000 9999 1900 2430 0 0
2019/06/22 12:03:00 BASE 1.16 122 2.62 67 -5.1 87 -6.9 0 0 992.2 NA 0.0000 9999 1940 2560 0 0
2019/06/22 12:04:00 BASE 1.64 125 2.62 67 -5.1 87 -7.0 0 0 992.2 NA 0.0000 9999 1900 0 0 0
2019/06/22 12:05:00 BASE 1.75 141 2.62 67 -5.2 87 -7.1 0 0 992.2 NA 0.0000 9999 1870 2430 0 0
2019/06/22 12:06:00 BASE 1.09 162 2.26 123 -5.3 87 -7.2 0 0 992.2 NA 0.0000 9999 2130 0 0 0
2019/06/22 12:07:00 BASE 0.41 160 2.26 123 -5.3 87 -7.2 0 0 992.2 NA 0.0000 9999 2070 0 0 0
2019/06/22 12:08:00 BASE 0.04 127 2.26 123 -5.2 87 -7.1 0 0 992.2 NA 0.0000 9999 1900 0 0 0
2019/06/22 12:09:00 BASE 0.04 106 2.26 123 -5.2 87 -7.0 0 0 992.2 NA 0.0000 9999 1870 0 0 0
2019/06/22 12:10:00 BASE 0.00 111 2.26 123 -5.1 87 -6.9 0 0 992.2 NA 0.0000 9999 1870 0 0 0
2019/06/22 12:11:00 BASE 0.00 119 2.26 123 -5.0 87 -6.9 0 0 992.2 NA 0.0000 9999 1870 0 0 0
2019/06/22 12:12:00 BASE 0.00 131 2.26 123 -5.0 87 -6.9 0 0 992.1 NA 0.0000 9999 1770 0 0 0
2019/06/22 12:13:00 BASE 0.00 132 2.26 123 -5.0 87 -6.8 0 0 992.1 NA 0.0000 9999 2070 0 0 0
2019/06/22 12:14:00 BASE 0.00 132 2.06 153 -5.0 87 -6.8 0 0 992.1 NA 0.0000 9999 2000 0 0 0
2019/06/22 12:15:00 BASE 0.00 132 2.01 181 -5.0 87 -6.8 0 0 992.1 NA 0.0000 9999 1870 0 0 0
2019/06/22 12:16:00 BASE 0.00 120 1.03 100 -4.9 87 -6.8 0 0 992.1 NA 0.0000 9999 1900 0 0 0
2019/06/22 12:17:00 BASE 0.24 74 1.18 51 -4.9 87 -6.8 0 0 992.1 NA 0.0000 9999 1710 0 0 0
2019/06/22 12:18:00 BASE 0.54 49 1.34 31 -4.9 87 -6.8 0 0 992.1 NA 0.0000 9999 1640 0 0 0
2019/06/22 12:19:00 BASE 0.39 57 1.34 31 -4.9 87 -6.8 0 0 992.1 NA 0.0000 9999 1540 0 0 0
2019/06/22 12:20:00 BASE 0.09 88 1.34 31 -4.9 87 -6.8 0 0 992.1 NA 0.0000 9999 1900 0 0 0
2019/06/22 12:21:00 BASE 0.00 136 1.34 31 -4.9 87 -6.8 0 0 992.1 NA 0.0000 9999 1940 0 0 0
2019/06/22 12:22:00 BASE 0.00 111 1.34 31 -4.9 87 -6.7 0 0 992.1 NA 0.0000 9999 1970 0 0 0
2019/06/22 12:23:00 BASE 0.00 77 1.34 31 -4.9 87 -6.7 0 0 992.1 NA 0.0000 9999 1640 0 0 0
2019/06/22 12:24:00 BASE 0.00 87 1.34 31 -4.9 87 -6.7 0 0 992.1 NA 0.0000 9999 1670 0 0 0
2019/06/22 12:25:00 BASE 0.00 89 1.34 31 -4.8 86 -6.8 0 0 992.1 NA 0.0000 9999 1210 0 0 0
2019/06/22 12:26:00 BASE 0.00 69 1.34 31 -4.8 86 -6.8 0 0 992.1 NA 0.0000 9999 1280 0 0 0
2019/06/22 12:27:00 BASE 0.04 64 1.34 31 -4.8 86 -6.8 0 0 992.1 NA 0.0000 9999 1080 0 0 0
2019/06/22 12:28:00 BASE 0.52 78 2.01 102 -4.8 86 -6.8 0 0 992.2 NA 0.0000 9999 1350 0 0 0
2019/06/22 12:29:00 BASE 1.06 73 2.01 102 -4.8 86 -6.8 0 0 992.2 NA 0.0000 9999 1900 0 0 0
2019/06/22 12:30:00 BASE 0.82 42 2.01 102 -4.8 86 -6.8 0 0 992.2 NA 0.0000 9999 1770 0 0 0
2019/06/22 12:31:00 BASE 1.09 11 2.26 5 -4.9 86 -6.8 0 0 992.2 NA 0.0000 9999 1970 0 0 0
2019/06/22 12:32:00 BASE 1.87 340 2.42 287 -4.9 86 -6.9 0 0 992.2 NA 0.0000 9999 2490 0 0 0
2019/06/22 12:33:00 BASE 1.74 312 2.42 289 -4.9 86 -6.9 0 0 992.2 NA 0.0000 9999 2360 0 0 0
2019/06/22 12:34:00 BASE 1.09 276 2.42 289 -4.9 86 -6.8 0 0 992.2 NA 0.0000 9999 2300 0 0 0
2019/06/22 12:35:00 BASE 0.51 294 2.42 289 -4.9 86 -6.8 0 0 992.2 NA 0.0000 9999 2400 0 0 0
2019/06/22 12:36:00 BASE 0.48 329 2.42 289 -4.9 86 -6.8 0 0 992.1 NA 0.0000 9999 2430 0 0 0
2019/06/22 12:37:00 BASE 1.18 313 2.47 312 -4.9 86 -6.8 0 0 992.1 NA 0.0000 9999 2460 0 0 0
2019/06/22 12:38:00 BASE 2.21 304 3.24 304 -4.8 86 -6.8 0 0 992.1 NA 0.0000 9999 2430 0 0 0
2019/06/22 12:39:00 BASE 3.04 297 3.96 281 -4.8 86 -6.8 0 0 992.1 NA 0.0000 9999 2460 3080 0 0
2019/06/22 12:40:00 BASE 3.06 286 3.96 281 -4.8 86 -6.8 0 0 992.2 NA 0.0000 9999 2360 3350 0 0
2019/06/22 12:41:00 BASE 2.66 279 3.96 281 -4.8 86 -6.8 0 0 992.2 NA 0.0000 9999 2130 0 0 0
2019/06/22 12:42:00 BASE 2.50 277 3.96 281 -4.8 86 -6.8 0 0 992.2 NA 0.0000 9999 2170 0 0 0
2019/06/22 12:43:00 BASE 2.50 272 3.96 281 -4.8 86 -6.7 0 0 992.2 NA 0.0000 9999 2070 0 0 0
2019/06/22 12:44:00 BASE 2.87 270 4.01 277 -4.7 86 -6.7 0 0 992.2 NA 0.0000 9999 1970 0 0 0
2019/06/22 12:45:00 BASE 3.40 273 4.53 285 -4.7 86 -6.7 0 0 992.2 NA 0.0000 9999 1970 0 0 0
2019/06/22 12:46:00 BASE 3.42 273 4.53 285 -4.7 86 -6.7 0 0 992.2 NA 0.0000 9999 1800 0 0 0
2019/06/22 12:47:00 BASE 3.12 271 4.53 285 -4.7 86 -6.7 0 0 992.2 NA 0.0000 9999 1740 0 0 0
2019/06/22 12:48:00 BASE 3.30 271 4.53 285 -4.7 86 -6.7 0 0 992.2 NA 0.0000 9999 1800 0 0 0
2019/06/22 12:49:00 BASE 3.48 276 4.53 285 -4.7 86 -6.7 0 0 992.2 NA 0.0000 9999 1480 0 0 0
2019/06/22 12:50:00 BASE 3.04 281 4.53 285 -4.7 85 -6.7 0 0 992.2 NA 0.0000 9999 1410 0 0 0
2019/06/22 12:51:00 BASE 2.61 278 4.53 285 -4.7 85 -6.8 0 0 992.2 NA 0.0000 9999 1710 0 0 0
2019/06/22 12:52:00 BASE 3.22 266 4.53 285 -4.7 85 -6.8 0 0 992.2 NA 0.0000 9999 1510 0 0 0
2019/06/22 12:53:00 BASE 4.05 259 4.68 259 -4.7 85 -6.8 0 0 992.2 NA 0.0000 9999 1640 0 0 0
2019/06/22 12:54:00 BASE 4.18 262 5.56 269 -4.7 85 -6.8 0 0 992.2 NA 0.0000 9999 1740 0 0 0
2019/06/22 12:55:00 BASE 3.95 262 5.56 269 -4.7 85 -6.8 0 0 992.2 NA 0.0000 9999 2070 0 0 0
2019/06/22 12:56:00 BASE 4.04 268 6.22 281 -4.7 85 -6.8 0 0 992.2 NA 0.0000 9999 1940 0 0 0
2019/06/22 12:57:00 BASE 4.98 282 6.58 288 -4.7 85 -6.8 0 0 992.2 NA 0.0000 9999 1870 0 0 0
2019/06/22 12:58:00 BASE 5.27 287 6.58 288 -4.7 85 -6.8 0 0 992.2 NA 0.0000 9999 1840 0 0 0
2019/06/22 12:59:00 BASE 5.13 282 6.69 274 -4.7 86 -6.8 0 0 992.2 NA 0.0000 9999 1870 3050 4360 0
2019/06/22 13:00:00 BASE 5.66 276 7.00 278 -4.8 86 -6.8 0 0 992.2 NA 0.0000 9999 1900 3020 4300 0
2019/06/22 13:01:00 BASE 5.45 265 7.00 278 -4.8 86 -6.7 0 0 992.2 NA 0.0000 9999 2990 4270 4890 0
2019/06/22 13:02:00 BASE 4.33 254 7.00 278 -4.8 86 -6.7 0 0 992.2 NA 0.0000 9999 2920 4200 4890 0
2019/06/22 13:03:00 BASE 3.17 250 7.00 278 -4.8 86 -6.8 0 0 992.2 NA 0.0000 9999 3020 4200 4990 0
2019/06/22 13:04:00 BASE 3.12 252 7.00 278 -4.8 86 -6.8 0 0 992.2 NA 0.0000 9999 3080 4230 0 0
2019/06/22 13:05:00 BASE 3.53 256 7.00 278 -4.8 86 -6.8 0 0 992.2 NA 0.0000 9999 3280 4270 5050 0
2019/06/22 13:06:00 BASE 3.56 264 7.00 278 -4.9 86 -6.8 0 0 992.2 NA 0.0000 9999 3250 4270 0 0
2019/06/22 13:07:00 BASE 3.42 270 7.00 278 -4.9 86 -6.8 0 0 992.2 NA 0.0000 9999 4200 0 0 0
2019/06/22 13:08:00 BASE 2.91 271 7.00 278 -4.9 86 -6.8 0 0 992.2 NA 0.0000 9999 2030 4200 0 0
2019/06/22 13:09:00 BASE 2.77 272 7.00 278 -4.8 86 -6.8 0 0 992.2 NA 0.0000 9999 1940 4330 0 0
2019/06/22 13:10:00 BASE 2.77 274 5.81 268 -4.8 86 -6.8 0 0 992.2 NA 0.0000 9999 1900 0 0 0
2019/06/22 13:11:00 BASE 2.81 274 4.32 257 -4.8 86 -6.8 0 0 992.2 NA 0.0000 9999 1770 3870 0 0
2019/06/22 13:12:00 BASE 3.10 273 4.32 257 -4.8 86 -6.8 0 0 992.2 NA 0.0000 9999 1900 4300 0 0
2019/06/22 13:13:00 BASE 2.81 279 4.32 257 -4.8 86 -6.7 0 0 992.2 NA 0.0000 9999 1800 4400 0 0
2019/06/22 13:14:00 BASE 2.21 288 4.01 255 -4.8 86 -6.7 0 0 992.3 NA 0.0000 9999 1800 0 0 0
2019/06/22 13:15:00 BASE 2.12 282 3.96 273 -4.8 86 -6.8 0 0 992.3 NA 0.0000 9999 1840 0 0 0
2019/06/22 13:16:00 BASE 2.38 272 3.76 281 -4.8 86 -6.8 0 0 992.3 NA 0.0000 9999 1940 0 0 0
2019/06/22 13:17:00 BASE 2.55 279 3.76 281 -4.8 86 -6.8 0 0 992.3 NA 0.0000 9999 1900 0 0 0
2019/06/22 13:18:00 BASE 2.75 289 3.76 281 -4.8 86 -6.8 0 0 992.3 NA 0.0000 9999 1940 0 0 0
2019/06/22 13:19:00 BASE 2.61 291 3.76 281 -4.8 86 -6.8 0 0 992.3 NA 0.0000 9999 1940 0 0 0
2019/06/22 13:20:00 BASE 2.17 290 3.76 281 -4.8 86 -6.8 0 0 992.3 NA 0.0000 9999 1940 0 0 0
2019/06/22 13:21:00 BASE 2.31 292 3.76 281 -4.8 86 -6.7 0 0 992.3 NA 0.0000 9999 1870 0 0 0
2019/06/22 13:22:01 BASE 2.71 295 3.34 293 -4.8 86 -6.7 0 0 992.3 NA 0.0000 9999 1970 0 0 0
2019/06/22 13:23:01 BASE 2.80 295 3.34 293 -4.7 86 -6.7 0 0 992.3 NA 0.0000 9999 1970 3740 0 0
2019/06/22 13:24:01 BASE 3.18 284 3.91 269 -4.7 86 -6.7 0 0 992.4 NA 0.0000 9999 2000 3670 0 0
2019/06/22 13:25:00 BASE 3.42 278 3.91 269 -4.7 86 -6.7 0 0 992.4 NA 0.0000 9999 2000 3510 0 0
2019/06/22 13:26:00 BASE 3.04 283 3.91 269 -4.7 86 -6.7 0 0 992.4 NA 0.0000 9999 1870 3580 0 0
2019/06/22 13:27:00 BASE 2.57 282 3.91 269 -4.8 86 -6.7 0 0 992.3 NA 0.0000 9999 2300 3510 0 0
2019/06/22 13:28:00 BASE 2.08 269 3.91 269 -4.8 86 -6.8 0 0 992.3 NA 0.0000 9999 2330 3380 0 0
2019/06/22 13:29:00 BASE 2.10 256 3.91 269 -4.8 86 -6.8 0 0 992.3 NA 0.0000 9999 2260 3310 0 0
2019/06/22 13:30:00 BASE 2.22 260 3.91 269 -4.8 86 -6.8 0 0 992.3 NA 0.0000 9999 2300 3310 0 0
2019/06/22 13:31:00 BASE 1.88 267 3.91 269 -4.8 86 -6.8 0 0 992.2 NA 0.0000 9999 3180 0 0 0
2019/06/22 13:32:00 BASE 1.85 261 3.91 269 -4.8 86 -6.8 0 0 991.7 NA 0.0000 9999 3150 0 0 0
2019/06/22 13:33:00 BASE 2.16 258 3.91 269 -4.8 86 -6.8 1 0 991.9 NA 0.0000 9999 3180 0 0 0
2019/06/22 13:34:00 BASE 2.16 266 3.45 276 -4.8 86 -6.8 1 0 992.3 NA 0.0000 9999 3150 0 0 0
2019/06/22 13:35:00 BASE 1.84 272 3.34 294 -4.8 86 -6.8 1 0 992.3 NA 0.0000 9999 3180 0 0 0
2019/06/22 13:36:00 BASE 1.69 282 3.29 269 -4.8 86 -6.8 1 0 992.4 NA 0.0000 9999 2720 0 0 0
2019/06/22 13:37:00 BASE 1.20 294 3.29 269 -4.8 86 -6.8 1 0 992.4 NA 0.0000 9999 2690 3610 0 0
2019/06/22 13:38:00 BASE 0.32 311 3.29 269 -4.8 86 -6.7 1 0 992.2 NA 0.0000 9999 2620 3580 0 0
2019/06/22 13:39:00 BASE 0.00 326 3.29 269 -4.7 86 -6.8 1 0 992.4 NA 0.0000 9999 2530 3450 0 0
2019/06/22 13:40:00 BASE 0.41 317 3.29 269 -4.7 86 -6.8 1 0 992.4 NA 0.0000 9999 2490 3510 4530 0
2019/06/22 13:41:00 BASE 1.26 311 3.29 269 -4.7 85 -6.8 1 0 991.9 NA 0.0000 9999 2170 3640 0 0
2019/06/22 13:42:00 BASE 1.87 309 3.29 269 -4.7 85 -6.8 1 0 992.4 NA 0.0000 9999 2230 3610 0 0
2019/06/22 13:43:00 BASE 1.94 302 2.78 270 -4.8 85 -6.9 1 0 992.4 NA 0.0000 9999 2490 3640 0 0
2019/06/22 13:44:00 BASE 1.79 305 2.26 306 -4.8 85 -6.9 1 0 992.4 NA 0.0000 9999 2170 3670 0 0
2019/06/22 13:45:00 BASE 1.77 309 2.26 306 -4.8 85 -6.8 1 0 992.0 NA 0.0000 9999 2200 0 0 0
2019/06/22 13:46:00 BASE 1.55 317 2.26 306 -4.8 86 -6.8 1 0 992.4 NA 0.0000 9999 2230 3710 0 0
2019/06/22 13:47:00 BASE 1.35 327 2.26 306 -4.8 86 -6.8 1 0 992.4 NA 0.0000 9999 2230 3670 0 0
2019/06/22 13:48:00 BASE 1.24 331 2.26 306 -4.8 86 -6.8 1 0 992.4 NA 0.0000 9999 2260 3670 0 0
2019/06/22 13:49:00 BASE 0.54 337 2.26 306 -4.8 86 -6.8 1 0 992.4 NA 0.0000 9999 2590 0 0 0
2019/06/22 13:50:00 BASE 0.00 354 2.26 306 -4.8 85 -6.8 1 0 992.4 NA 0.0000 9999 2330 0 0 0
2019/06/22 13:51:00 BASE 0.00 37 2.26 306 -4.8 85 -6.9 1 0 992.4 NA 0.0000 9999 2660 3670 0 0
2019/06/22 13:52:00 BASE 0.00 65 2.21 306 -4.8 86 -6.8 1 0 992.4 NA 0.0000 9999 2660 0 0 0
2019/06/22 13:53:00 BASE 0.00 77 2.11 311 -4.8 86 -6.8 1 0 992.4 NA 0.0000 9999 2690 0 0 0
2019/06/22 13:54:00 BASE 0.59 84 2.21 81 -4.9 86 -6.9 1 0 992.4 NA 0.0000 9999 2720 0 0 0
2019/06/22 13:55:00 BASE 1.70 78 2.42 77 -5.0 86 -6.9 2 0 992.5 NA 0.0000 9999 2690 0 0 0
2019/06/22 13:56:00 BASE 2.11 64 2.42 58 -5.1 86 -7.0 2 0 992.5 NA 0.0000 9999 2360 3250 0 0
2019/06/22 13:57:00 BASE 2.03 59 2.68 71 -5.1 86 -7.0 2 0 992.5 NA 0.0000 9999 2400 3580 0 0
2019/06/22 13:58:00 BASE 2.47 51 3.55 32 -5.2 87 -7.1 2 0 992.6 NA 0.0000 9999 2690 0 0 0
2019/06/22 13:59:00 BASE 3.10 39 3.60 39 -5.3 87 -7.1 2 0 992.6 NA 0.0000 9999 1800 0 0 0
2019/06/22 14:00:00 BASE 3.45 41 3.76 40 -5.3 88 -7.1 2 0 992.5 NA 0.0000 9999 1800 2330 3640 0
2019/06/22 14:01:00 BASE 3.54 40 3.81 38 -5.3 88 -7.0 2 0 992.5 NA 0.0000 9999 2620 3670 0 0
2019/06/22 14:02:00 BASE 3.59 38 4.06 43 -5.3 88 -7.0 2 0 992.4 NA 0.0000 9999 2660 3640 0 0
2019/06/22 14:03:00 BASE 3.88 39 4.32 40 -5.3 88 -7.0 2 0 992.4 NA 0.0000 9999 2660 3540 0 0
2019/06/22 14:04:00 BASE 4.08 40 4.63 41 -5.3 89 -6.9 2 0 992.4 NA 0.0000 9999 2660 3480 0 0
2019/06/22 14:05:00 BASE 4.06 41 4.63 41 -5.3 89 -6.9 2 0 992.4 NA 0.0000 9999 2660 4590 0 0
2019/06/22 14:06:00 BASE 4.08 41 4.63 41 -5.3 89 -6.8 2 0 992.4 NA 0.0000 9999 2620 4530 0 0
2019/06/22 14:07:00 BASE 4.29 41 4.73 39 -5.3 89 -6.8 3 0 992.4 NA 0.0000 9999 2620 4430 0 0
2019/06/22 14:08:00 BASE 4.43 39 4.73 39 -5.3 89 -6.7 3 0 992.4 NA 0.0000 9999 2590 3480 4400 0
2019/06/22 14:09:00 BASE 4.43 38 4.89 34 -5.2 89 -6.7 3 0 992.4 NA 0.0000 9999 2560 3540 4400 0
2019/06/22 14:10:00 BASE 4.34 38 4.89 34 -5.2 90 -6.6 3 0 992.4 NA 0.0000 9999 2590 4230 0 0
2019/06/22 14:11:00 BASE 4.07 38 4.89 34 -5.2 90 -6.6 3 0 992.4 NA 0.0000 9999 1970 2530 4200 0
2019/06/22 14:12:00 BASE 3.89 37 4.89 34 -5.2 90 -6.6 3 0 992.4 NA 0.0000 9999 2590 4070 0 0
2019/06/22 14:13:00 BASE 3.89 38 4.89 34 -5.2 90 -6.6 3 0 992.4 NA 0.0000 9999 2530 4040 0 0
2019/06/22 14:14:00 BASE 3.87 38 4.89 34 -5.3 90 -6.6 3 0 992.4 NA 0.0000 9999 2460 4070 0 0
2019/06/22 14:15:00 BASE 3.85 38 4.89 34 -5.3 90 -6.6 3 0 992.4 NA 0.0000 9999 4040 0 0 0
2019/06/22 14:16:00 BASE 3.75 37 4.89 34 -5.3 90 -6.6 3 0 992.4 NA 0.0000 9999 2460 4070 0 0
2019/06/22 14:17:00 BASE 3.68 38 4.89 34 -5.3 91 -6.6 4 0 992.4 NA 0.0000 9999 4100 0 0 0
2019/06/22 14:18:00 BASE 3.78 41 4.89 34 -5.4 91 -6.6 4 0 992.4 NA 0.0000 9999 2560 4170 0 0
2019/06/22 14:19:00 BASE 3.41 53 4.42 33 -5.4 91 -6.7 4 0 992.4 NA 0.0000 9999 2530 4230 0 0
2019/06/22 14:20:00 BASE 3.04 58 4.22 39 -5.5 91 -6.7 4 0 992.4 NA 0.0000 9999 2490 4200 0 0
2019/06/22 14:21:01 BASE 3.18 52 4.17 40 -5.5 91 -6.7 4 0 992.4 NA 0.0000 9999 0 0 0 0
2019/06/22 14:22:00 BASE 3.20 55 4.17 40 -5.6 91 -6.7 4 0 992.4 NA 0.0000 9999 0 0 0 0
2019/06/22 14:23:00 BASE 3.23 62 4.17 40 -5.6 92 -6.7 4 0 992.4 NA 0.0000 9999 0 0 0 0
2019/06/22 14:24:01 BASE 3.12 70 4.17 40 -5.6 92 -6.7 4 0 992.4 NA 0.0000 9999 0 0 0 0
2019/06/22 14:25:01 BASE 2.92 78 4.06 42 -5.6 92 -6.7 4 0 992.4 NA 0.0000 9999 0 0 0 0
2019/06/22 14:26:01 BASE 2.88 82 4.06 42 -5.6 92 -6.7 5 0 992.4 NA 0.0000 9999 0 0 0 0
2019/06/22 14:27:01 BASE 2.87 82 4.06 42 -5.6 92 -6.7 5 0 992.4 NA 0.0000 9999 0 0 0 0
2019/06/22 14:28:01 BASE 2.99 84 4.01 44 -5.6 92 -6.7 5 0 992.4 NA 0.0000 9999 0 0 0 0
2019/06/22 14:29:01 BASE 3.09 78 3.96 46 -5.6 92 -6.7 5 0 992.4 NA 0.0000 9999 0 0 0 0
2019/06/22 14:30:01 BASE 3.16 70 3.76 46 -5.6 92 -6.6 5 0 992.4 NA 0.0000 9999 0 0 0 0
2019/06/22 14:31:01 BASE 2.92 74 3.65 70 -5.6 93 -6.6 5 0 992.4 NA 0.0000 9999 0 0 0 0
2019/06/22 14:32:01 BASE 2.68 82 3.65 70 -5.6 93 -6.6 5 0 992.4 NA 0.0000 9999 0 0 0 0
2019/06/22 14:33:01 BASE 2.90 85 3.81 77 -5.6 93 -6.5 5 0 992.4 NA 0.0000 9999 0 0 0 0
2019/06/22 14:34:01 BASE 3.08 85 3.81 90 -5.6 93 -6.5 5 0 992.4 NA 0.0000 9999 0 0 0 0
2019/06/22 14:35:01 BASE 3.29 80 4.01 77 -5.6 93 -6.5 6 0 992.4 NA 0.0000 9999 0 0 0 0
2019/06/22 14:36:01 BASE 3.18 75 4.01 77 -5.6 93 -6.5 6 0 992.4 NA 0.0000 9999 0 0 0 0
2019/06/22 14:37:00 BASE 2.75 76 4.01 77 -5.6 93 -6.5 6 0 992.4 NA 0.0000 9999 0 0 0 0
2019/06/22 14:38:00 BASE 2.68 77 4.01 77 -5.6 93 -6.5 6 0 992.4 NA 0.0000 9999 11580 0 0 0
2019/06/22 14:39:00 BASE 2.88 76 4.01 77 -5.6 93 -6.5 6 0 992.4 NA 0.0000 9999 11480 0 0 0
2019/06/22 14:40:00 BASE 2.77 73 4.01 77 -5.5 93 -6.4 6 0 992.4 NA 0.0000 9999 11520 0 0 0
2019/06/22 14:41:00 BASE 2.93 71 4.01 77 -5.5 93 -6.4 6 0 992.4 NA 0.0000 9999 11550 0 0 0
2019/06/22 14:42:00 BASE 3.32 69 4.01 77 -5.5 94 -6.4 7 0 992.4 NA 0.0000 9999 11580 0 0 0
2019/06/22 14:43:00 BASE 2.84 72 4.01 77 -5.5 94 -6.3 7 0 992.3 NA 0.0000 9999 11480 0 0 0
2019/06/22 14:44:00 BASE 2.84 74 4.12 64 -5.5 94 -6.3 7 0 992.4 NA 0.0000 9999 11520 0 0 0
2019/06/22 14:45:00 BASE 3.06 69 4.12 64 -5.5 94 -6.4 7 0 992.4 NA 0.0000 9999 11480 0 0 0
2019/06/22 14:46:01 BASE 2.56 74 4.12 64 -5.5 94 -6.3 8 0 992.4 NA 0.0000 9999 11480 0 0 0
2019/06/22 14:47:01 BASE 2.69 81 4.12 64 -5.6 94 -6.4 8 0 992.4 NA 0.0000 9999 11450 0 0 0
2019/06/22 14:48:01 BASE 3.23 79 4.12 64 -5.6 94 -6.4 8 0 992.4 NA 0.0000 9999 11480 0 0 0
2019/06/22 14:49:01 BASE 3.31 77 4.12 64 -5.6 94 -6.4 8 0 992.4 NA 0.0000 9999 11580 0 0 0
2019/06/22 14:50:01 BASE 3.20 75 4.12 64 -5.6 94 -6.5 8 0 992.4 NA 0.0000 9999 11550 0 0 0
2019/06/22 14:51:01 BASE 3.37 73 4.37 81 -5.6 94 -6.5 9 0 992.5 NA 0.0000 9999 11550 0 0 0
2019/06/22 14:52:01 BASE 3.75 70 4.89 63 -5.6 94 -6.5 9 0 992.5 NA 0.0000 9999 11580 0 0 0
2019/06/22 14:53:01 BASE 3.77 66 4.89 63 -5.6 94 -6.5 9 0 992.5 NA 0.0000 9999 11550 0 0 0
2019/06/22 14:54:01 BASE 3.60 59 4.89 63 -5.6 94 -6.5 9 0 992.5 NA 0.0000 9999 11580 0 0 0
2019/06/22 14:55:01 BASE 3.66 57 4.89 63 -5.6 94 -6.4 9 0 992.5 NA 0.0000 9999 11650 0 0 0
2019/06/22 14:56:01 BASE 3.88 58 4.89 63 -5.6 94 -6.4 9 0 992.5 NA 0.0000 9999 11610 0 0 0
2019/06/22 14:57:01 BASE 3.95 52 4.89 63 -5.6 94 -6.5 9 0 992.5 NA 0.0000 9999 2890 11610 0 0
2019/06/22 14:58:01 BASE 3.77 53 4.89 63 -5.6 93 -6.5 10 0 992.6 NA 0.0000 9999 2850 0 0 0
2019/06/22 14:59:01 BASE 3.63 55 4.89 63 -5.6 93 -6.6 10 0 992.6 NA 0.0000 9999 11580 0 0 0
2019/06/22 15:00:01 BASE 3.57 52 4.89 63 -5.7 93 -6.6 10 0 992.6 NA 0.0000 9999 2890 0 0 0
2019/06/22 15:01:01 BASE 3.55 50 4.89 63 -5.7 93 -6.7 10 0 992.6 NA 0.0000 9999 2990 0 0 0
2019/06/22 15:02:01 BASE 3.37 51 4.22 47 -5.7 93 -6.7 10 0 992.6 NA 0.0000 9999 2890 0 0 0
2019/06/22 15:03:01 BASE 3.32 54 4.22 47 -5.8 93 -6.7 10 0 992.6 NA 0.0000 9999 2990 0 0 0
2019/06/22 15:04:01 BASE 3.43 53 4.22 47 -5.8 93 -6.7 10 0 992.6 NA 0.0000 9999 2950 0 0 0
2019/06/22 15:05:01 BASE 3.49 51 4.22 47 -5.8 93 -6.8 10 0 992.6 NA 0.0000 9999 2890 0 0 0
2019/06/22 15:06:01 BASE 3.51 52 4.12 50 -5.8 93 -6.8 10 0 992.6 NA 0.0000 9999 2890 0 0 0
2019/06/22 15:07:01 BASE 3.52 53 3.91 49 -5.8 93 -6.8 10 0 992.6 NA 0.0000 9999 2920 0 0 0
2019/06/22 15:08:01 BASE 3.67 53 3.91 52 -5.8 92 -6.8 10 0 992.6 NA 0.0000 9999 2850 0 0 0
2019/06/22 15:09:01 BASE 3.59 52 3.91 52 -5.8 92 -6.9 10 0 992.6 NA 0.0000 9999 2850 0 0 0
2019/06/22 15:10:01 BASE 3.47 52 3.91 52 -5.8 92 -6.8 10 0 992.6 NA 0.0000 9999 2890 0 0 0
2019/06/22 15:11:01 BASE 3.45 51 3.91 52 -5.8 92 -6.8 9 0 992.7 NA 0.0000 9999 2950 0 0 0
2019/06/22 15:12:01 BASE 3.52 49 3.91 52 -5.8 92 -6.9 9 0 992.7 NA 0.0000 9999 0 0 0 0
2019/06/22 15:13:01 BASE 3.56 50 3.91 52 -5.7 92 -6.8 9 0 992.6 NA 0.0000 9999 0 0 0 0
2019/06/22 15:14:01 BASE 3.42 46 3.91 52 -5.7 92 -6.8 9 0 992.6 NA 0.0000 9999 2890 0 0 0
2019/06/22 15:15:01 BASE 3.36 47 3.91 52 -5.7 92 -6.8 9 0 992.6 NA 0.0000 9999 2850 0 0 0
2019/06/22 15:16:01 BASE 3.36 48 3.91 52 -5.7 92 -6.8 9 0 992.7 NA 0.0000 9999 3050 0 0 0
2019/06/22 15:17:01 BASE 3.40 45 3.91 52 -5.7 92 -6.8 9 0 992.7 NA 0.0000 9999 3020 0 0 0
2019/06/22 15:18:01 BASE 3.37 44 3.81 56 -5.7 92 -6.8 9 0 992.7 NA 0.0000 9999 3120 0 0 0
2019/06/22 15:19:01 BASE 3.28 44 3.81 56 -5.7 92 -6.8 9 0 992.7 NA 0.0000 9999 3050 0 0 0
2019/06/22 15:20:01 BASE 3.02 44 3.81 56 -5.8 92 -6.9 10 0 992.7 NA 0.0000 9999 3080 0 0 0
2019/06/22 15:21:01 BASE 2.97 44 3.81 56 -5.8 92 -7.0 10 0 992.7 NA 0.0000 9999 3080 0 0 0
2019/06/22 15:22:01 BASE 3.09 44 3.65 47 -5.8 92 -7.0 10 0 992.8 NA 0.0000 9999 2990 0 0 0
2019/06/22 15:23:01 BASE 2.88 41 3.65 47 -5.9 92 -7.0 10 0 992.8 NA 0.0000 9999 3020 0 0 0
2019/06/22 15:24:01 BASE 2.81 39 3.55 41 -5.9 91 -7.1 11 0 992.8 NA 0.0000 9999 2990 0 0 0
2019/06/22 15:25:01 BASE 2.81 43 3.55 41 -5.9 91 -7.1 11 0 992.8 NA 0.0000 9999 3080 0 0 0
2019/06/22 15:26:01 BASE 2.83 46 3.55 41 -5.9 91 -7.1 11 0 992.8 NA 0.0000 9999 0 0 0 0
2019/06/22 15:27:01 BASE 3.16 48 3.55 50 -5.9 91 -7.1 10 0 992.8 NA 0.0000 9999 0 0 0 0
2019/06/22 15:28:01 BASE 3.33 47 3.55 50 -5.9 91 -7.2 10 0 992.8 NA 0.0000 9999 0 0 0 0
2019/06/22 15:29:01 BASE 3.34 47 3.60 49 -5.9 91 -7.1 10 0 992.8 NA 0.0000 9999 0 0 0 0
2019/06/22 15:30:01 BASE 3.57 48 4.01 42 -5.9 91 -7.1 10 0 992.8 NA 0.0000 9999 0 0 0 0
2019/06/22 15:31:01 BASE 3.65 46 4.01 42 -5.9 91 -7.1 10 0 992.8 NA 0.0000 9999 3350 0 0 0
2019/06/22 15:32:01 BASE 3.53 45 4.01 38 -5.9 91 -7.1 10 0 992.8 NA 0.0000 9999 3350 4000 0 0
2019/06/22 15:33:01 BASE 3.71 46 4.32 44 -5.9 91 -7.1 11 0 992.8 NA 0.0000 9999 3310 3940 0 0
2019/06/22 15:34:01 BASE 3.78 46 4.32 44 -5.9 91 -7.1 11 0 992.8 NA 0.0000 9999 3250 3870 0 0
2019/06/22 15:35:01 BASE 3.84 46 4.32 46 -5.9 91 -7.1 11 0 992.8 NA 0.0000 9999 3250 3770 0 0
2019/06/22 15:36:01 BASE 4.02 47 4.32 46 -6.0 91 -7.1 11 0 992.8 NA 0.0000 9999 3810 0 0 0
2019/06/22 15:37:01 BASE 3.92 48 4.37 50 -6.0 92 -7.1 12 0 992.8 NA 0.0000 9999 3710 0 0 0
2019/06/22 15:38:01 BASE 3.96 52 4.37 54 -5.9 92 -7.1 12 0 992.8 NA 0.0000 9999 1900 3670 0 0
2019/06/22 15:39:01 BASE 4.15 52 4.78 53 -5.9 92 -7.0 13 0 992.7 NA 0.0000 9999 1840 3640 0 0
2019/06/22 15:40:01 BASE 4.31 51 4.78 53 -5.9 92 -7.0 13 0 992.7 NA 0.0000 9999 1870 3510 0 0
2019/06/22 15:41:01 BASE 4.31 52 4.78 53 -5.9 92 -7.0 14 0 992.8 NA 0.0000 9999 1900 3610 0 0
2019/06/22 15:42:01 BASE 4.11 58 4.78 53 -5.9 92 -7.0 14 0 992.8 NA 0.0000 9999 3350 0 0 0
2019/06/22 15:43:01 BASE 4.12 60 4.78 53 -5.8 92 -6.9 14 0 992.8 NA 0.0000 9999 1900 3310 0 0
2019/06/22 15:44:01 BASE 4.03 60 4.78 53 -5.8 92 -6.9 15 0 992.8 NA 0.0000 9999 3280 0 0 0
2019/06/22 15:45:01 BASE 3.92 63 4.78 53 -5.8 92 -6.9 15 0 992.8 NA 0.0000 9999 3280 0 0 0
2019/06/22 15:46:01 BASE 4.16 63 4.78 53 -5.8 92 -6.9 16 0 992.8 NA 0.0000 9999 3220 0 0 0
2019/06/22 15:47:01 BASE 4.07 66 4.78 53 -5.7 92 -6.9 16 0 992.7 NA 0.0000 9999 3150 0 0 0
2019/06/22 15:48:01 BASE 3.93 67 4.78 53 -5.7 91 -6.9 17 0 992.7 NA 0.0000 9999 3120 0 0 0
2019/06/22 15:49:01 BASE 3.93 66 4.73 62 -5.7 91 -6.9 17 0 992.7 NA 0.0000 9999 3150 0 0 0
2019/06/22 15:50:01 BASE 3.90 68 4.73 62 -5.7 91 -7.0 17 0 992.7 NA 0.0000 9999 3080 0 0 0
2019/06/22 15:51:01 BASE 3.93 65 4.73 62 -5.7 91 -7.0 18 0 992.7 NA 0.0000 9999 3180 0 0 0
2019/06/22 15:52:01 BASE 4.12 64 4.68 65 -5.7 91 -6.9 18 0 992.8 NA 0.0000 9999 3220 0 0 0
2019/06/22 15:53:01 BASE 4.20 64 4.68 65 -5.7 91 -7.0 18 0 992.8 NA 0.0000 9999 3250 0 0 0
2019/06/22 15:54:01 BASE 4.07 63 4.68 65 -5.7 91 -7.0 17 0 992.8 NA 0.0000 9999 3180 0 0 0
2019/06/22 15:55:01 BASE 4.05 62 4.68 65 -5.8 91 -7.0 17 0 992.8 NA 0.0000 9999 3250 0 0 0
2019/06/22 15:56:01 BASE 4.02 63 4.58 62 -5.8 90 -7.1 17 0 992.8 NA 0.0000 9999 3220 0 0 0
2019/06/22 15:57:01 BASE 4.11 63 4.58 62 -5.8 90 -7.1 16 0 992.8 NA 0.0000 9999 3250 0 0 0
2019/06/22 15:58:01 BASE 4.06 64 4.58 62 -5.8 90 -7.2 15 0 992.7 NA 0.0000 9999 3250 0 0 0
2019/06/22 15:59:01 BASE 3.98 62 4.58 62 -5.8 90 -7.1 15 0 992.7 NA 0.0000 9999 3180 0 0 0
2019/06/22 16:00:01 BASE 3.99 62 4.58 68 -5.7 90 -7.1 14 0 992.7 NA 0.0000 9999 3150 0 0 0
2019/06/22 16:01:01 BASE 3.84 66 4.58 68 -5.7 90 -7.1 14 0 992.7 NA 0.0000 9999 3120 0 0 0
2019/06/22 16:02:01 BASE 3.86 65 4.58 68 -5.7 90 -7.1 13 0 992.8 NA 0.0000 9999 3120 0 0 0
2019/06/22 16:03:01 BASE 3.95 64 4.58 68 -5.7 90 -7.1 13 0 992.7 NA 0.0000 9999 3150 0 0 0
2019/06/22 16:04:01 BASE 3.84 62 4.58 68 -5.7 90 -7.1 13 0 992.8 NA 0.0000 9999 3180 0 0 0
2019/06/22 16:05:01 BASE 3.71 61 4.58 68 -5.7 90 -7.1 13 0 992.8 NA 0.0000 9999 3220 0 0 0
2019/06/22 16:06:01 BASE 3.71 62 4.58 68 -5.7 90 -7.1 13 0 992.8 NA 0.0000 9999 3180 0 0 0
2019/06/22 16:07:01 BASE 3.57 60 4.58 68 -5.7 89 -7.1 14 0 992.4 NA 0.0000 9999 3180 0 0 0
2019/06/22 16:08:01 BASE 3.45 57 4.58 68 -5.6 89 -7.1 14 0 992.4 NA 0.0000 9999 3220 0 0 0
2019/06/22 16:09:01 BASE 3.45 55 4.58 68 -5.6 89 -7.2 14 0 992.8 NA 0.0000 9999 3180 0 0 0
2019/06/22 16:10:01 BASE 3.37 53 4.48 64 -5.6 89 -7.1 15 0 992.8 NA 0.0000 9999 3220 0 0 0
2019/06/22 16:11:01 BASE 3.33 52 4.48 64 -5.6 89 -7.1 15 0 992.8 NA 0.0000 9999 3050 0 0 0
2019/06/22 16:12:01 BASE 3.31 53 4.17 56 -5.6 89 -7.2 15 0 992.8 NA 0.0000 9999 3150 0 0 0
2019/06/22 16:13:01 BASE 3.27 53 4.06 66 -5.7 89 -7.2 15 0 992.2 NA 0.0000 9999 3150 0 0 0
2019/06/22 16:14:01 BASE 3.28 49 4.06 66 -5.7 89 -7.2 14 0 992.8 NA 0.0000 9999 3150 0 0 0
2019/06/22 16:15:01 BASE 3.27 47 4.06 66 -5.7 89 -7.2 14 0 992.8 NA 0.0000 9999 2990 0 0 0
2019/06/22 16:16:01 BASE 3.26 46 3.86 51 -5.7 89 -7.2 14 0 992.8 NA 0.0000 9999 3050 0 0 0
2019/06/22 16:17:01 BASE 3.14 48 3.86 51 -5.7 89 -7.3 14 0 992.8 NA 0.0000 9999 3020 0 0 0
2019/06/22 16:18:01 BASE 2.95 51 3.76 45 -5.7 89 -7.3 14 0 992.8 NA 0.0000 9999 3050 0 0 0
2019/06/22 16:19:01 BASE 3.30 48 4.01 41 -5.7 89 -7.3 13 0 992.8 NA 0.0000 9999 3050 0 0 0
2019/06/22 16:20:01 BASE 3.50 45 4.01 41 -5.7 89 -7.2 13 0 992.8 NA 0.0000 9999 3020 0 0 0
2019/06/22 16:21:01 BASE 3.23 43 4.01 41 -5.7 89 -7.2 13 0 992.8 NA 0.0000 9999 2950 0 0 0
2019/06/22 16:22:01 BASE 3.11 46 4.01 41 -5.7 89 -7.2 13 0 992.8 NA 0.0000 9999 2950 0 0 0
2019/06/22 16:23:01 BASE 3.25 48 4.01 41 -5.7 89 -7.2 13 0 992.8 NA 0.0000 9999 3020 0 0 0
2019/06/22 16:24:01 BASE 3.34 46 4.01 41 -5.7 89 -7.2 13 0 992.8 NA 0.0000 9999 2890 0 0 0
2019/06/22 16:25:01 BASE 3.38 48 4.01 41 -5.7 89 -7.3 12 0 992.8 NA 0.0000 9999 2850 0 0 0
2019/06/22 16:26:01 BASE 3.47 45 4.01 41 -5.7 89 -7.3 12 0 992.8 NA 0.0000 9999 2850 0 0 0
2019/06/22 16:27:01 BASE 3.30 45 4.01 41 -5.8 89 -7.3 12 0 992.8 NA 0.0000 9999 2720 0 0 0
2019/06/22 16:28:01 BASE 3.20 51 4.01 41 -5.8 89 -7.3 12 0 992.8 NA 0.0000 9999 2660 0 0 0
2019/06/22 16:29:01 BASE 3.28 54 3.96 48 -5.8 89 -7.3 12 0 992.8 NA 0.0000 9999 2660 0 0 0
2019/06/22 16:30:01 BASE 3.31 53 3.96 48 -5.7 89 -7.2 12 0 992.8 NA 0.0000 9999 2560 0 0 0
2019/06/22 16:31:01 BASE 3.38 48 3.96 48 -5.7 89 -7.2 12 0 992.8 NA 0.0000 9999 2790 0 0 0
2019/06/22 16:32:01 BASE 3.45 49 4.01 51 -5.7 89 -7.2 11 0 992.8 NA 0.0000 9999 2850 0 0 0
2019/06/22 16:33:01 BASE 3.70 51 4.32 52 -5.7 89 -7.2 12 0 992.8 NA 0.0000 9999 2850 0 0 0
2019/06/22 16:34:01 BASE 3.76 48 4.32 52 -5.7 89 -7.3 11 0 992.9 NA 0.0000 9999 2890 0 0 0
2019/06/22 16:35:01 BASE 3.47 43 4.32 52 -5.7 89 -7.3 11 0 992.7 NA 0.0000 9999 2950 0 0 0
2019/06/22 16:36:01 BASE 3.49 39 4.32 46 -5.7 89 -7.3 11 0 992.9 NA 0.0000 9999 2990 0 0 0
2019/06/22 16:37:01 BASE 3.38 39 4.32 46 -5.7 89 -7.2 12 0 992.9 NA 0.0000 9999 3020 0 0 0
2019/06/22 16:38:01 BASE 2.87 49 4.32 46 -5.6 89 -7.1 12 0 992.6 NA 0.0000 9999 2990 0 0 0
2019/06/22 16:39:01 BASE 2.60 56 4.32 46 -5.5 89 -7.0 12 0 992.7 NA 0.0000 9999 2890 0 0 0
2019/06/22 16:40:01 BASE 2.76 57 4.32 46 -5.5 89 -7.1 12 0 992.9 NA 0.0000 9999 2920 0 0 0
2019/06/22 16:41:01 BASE 3.01 63 4.32 46 -5.5 89 -7.1 12 0 992.9 NA 0.0000 9999 2920 0 0 0
2019/06/22 16:42:01 BASE 2.92 63 4.32 46 -5.5 89 -7.1 12 0 992.9 NA 0.0000 9999 2820 0 0 0
2019/06/22 16:43:01 BASE 2.69 71 4.32 46 -5.5 88 -7.1 13 0 992.9 NA 0.0000 9999 2790 0 0 0
2019/06/22 16:44:01 BASE 2.91 79 4.32 46 -5.5 88 -7.2 13 0 992.8 NA 0.0000 9999 2720 0 0 0
2019/06/22 16:45:01 BASE 3.25 77 4.32 46 -5.5 88 -7.2 13 0 992.9 NA 0.0000 9999 2720 0 0 0
2019/06/22 16:46:01 BASE 3.50 76 4.48 78 -5.5 88 -7.2 14 0 992.9 NA 0.0000 9999 2690 0 0 0
2019/06/22 16:47:01 BASE 3.45 77 4.48 78 -5.6 88 -7.2 15 0 992.9 NA 0.0000 9999 2590 0 0 0
2019/06/22 16:48:01 BASE 3.51 80 4.48 78 -5.6 88 -7.3 16 0 992.8 NA 0.0000 9999 2560 0 0 0
2019/06/22 16:49:01 BASE 3.55 80 4.48 78 -5.6 88 -7.3 16 0 992.8 NA 0.0000 9999 2560 0 0 0
2019/06/22 16:50:01 BASE 3.32 80 4.48 78 -5.7 88 -7.3 17 0 992.8 NA 0.0000 9999 2490 0 0 0
2019/06/22 16:51:01 BASE 3.34 79 4.48 78 -5.7 88 -7.3 18 0 992.7 NA 0.0000 9999 2490 0 0 0
2019/06/22 16:52:01 BASE 3.50 79 4.48 78 -5.7 88 -7.4 18 0 992.8 NA 0.0000 9999 2530 0 0 0
2019/06/22 16:53:01 BASE 3.48 80 4.48 78 -5.7 88 -7.4 18 0 992.8 NA 0.0000 9999 2490 0 0 0
2019/06/22 16:54:01 BASE 3.13 79 4.48 78 -5.7 88 -7.4 18 0 992.8 NA 0.0000 9999 2460 0 0 0
2019/06/22 16:55:01 BASE 2.92 73 4.48 78 -5.6 88 -7.4 18 0 992.6 NA 0.0000 9999 0 0 0 0
2019/06/22 16:56:01 BASE 2.98 69 4.32 79 -5.6 87 -7.3 18 0 992.8 NA 0.0000 9999 0 0 0 0
2019/06/22 16:57:01 BASE 2.98 66 4.32 79 -5.6 87 -7.3 17 0 992.8 NA 0.0000 9999 0 0 0 0
2019/06/22 16:58:01 BASE 3.09 66 4.22 78 -5.5 87 -7.3 16 0 992.8 NA 0.0000 9999 0 0 0 0
2019/06/22 16:59:01 BASE 3.02 68 4.22 78 -5.5 87 -7.3 16 0 992.8 NA 0.0000 9999 0 0 0 0
2019/06/22 17:00:01 BASE 2.92 71 4.22 78 -5.5 87 -7.3 15 0 992.8 NA 0.0000 9999 0 0 0 0
2019/06/22 17:01:01 BASE 3.18 66 4.17 80 -5.4 87 -7.3 15 0 992.8 NA 0.0000 9999 0 0 0 0
2019/06/22 17:02:01 BASE 3.34 59 4.17 80 -5.4 87 -7.3 14 0 992.8 NA 0.0000 9999 0 0 0 0
2019/06/22 17:03:01 BASE 3.64 58 4.37 52 -5.4 87 -7.3 13 0 992.8 NA 0.0000 9999 0 0 0 0
2019/06/22 17:04:01 BASE 3.89 54 4.37 52 -5.4 86 -7.3 12 0 992.8 NA 0.0000 9999 0 0 0 0
2019/06/22 17:05:01 BASE 3.66 61 4.84 70 -5.4 86 -7.4 12 0 992.8 NA 0.0000 9999 0 0 0 0
2019/06/22 17:06:01 BASE 3.57 62 4.84 70 -5.5 86 -7.4 11 0 992.8 NA 0.0000 9999 0 0 0 0
2019/06/22 17:07:01 BASE 3.79 57 4.84 70 -5.5 86 -7.4 11 0 992.8 NA 0.0000 9999 0 0 0 0
2019/06/22 17:08:01 BASE 3.95 55 4.84 70 -5.5 86 -7.5 10 0 992.8 NA 0.0000 9999 0 0 0 0
2019/06/22 17:09:01 BASE 3.93 55 4.84 70 -5.5 86 -7.5 10 0 992.8 NA 0.0000 9999 0 0 0 0
2019/06/22 17:10:01 BASE 3.89 54 4.84 70 -5.5 85 -7.6 10 0 992.8 NA 0.0000 9999 0 0 0 0
2019/06/22 17:11:01 BASE 4.14 54 4.84 70 -5.6 85 -7.7 10 0 992.8 NA 0.0000 9999 0 0 0 0
2019/06/22 17:12:01 BASE 4.19 55 4.84 70 -5.6 85 -7.7 10 0 992.8 NA 0.0000 9999 0 0 0 0
2019/06/22 17:13:01 BASE 4.01 57 4.84 70 -5.7 85 -7.8 9 0 992.8 NA 0.0000 9999 0 0 0 0
2019/06/22 17:14:01 BASE 3.78 60 4.84 70 -5.7 85 -7.8 9 0 992.8 NA 0.0000 9999 0 0 0 0
2019/06/22 17:15:01 BASE 3.68 57 4.78 59 -5.8 85 -7.9 9 0 992.8 NA 0.0000 9999 0 0 0 0
2019/06/22 17:16:01 BASE 3.91 54 4.78 59 -5.8 85 -7.9 9 0 992.7 NA 0.0000 9999 0 0 0 0
2019/06/22 17:17:01 BASE 3.94 53 4.78 59 -5.8 85 -8.0 9 0 992.7 NA 0.0000 9999 0 0 0 0
2019/06/22 17:18:01 BASE 3.78 52 4.78 59 -5.9 85 -7.9 9 0 992.7 NA 0.0000 9999 0 0 0 0
2019/06/22 17:19:01 BASE 3.70 55 4.78 59 -5.9 85 -7.9 9 0 992.7 NA 0.0000 9999 0 0 0 0
2019/06/22 17:20:01 BASE 4.06 55 4.84 52 -5.9 86 -7.9 9 0 992.7 NA 0.0000 9999 0 0 0 0
2019/06/22 17:21:01 BASE 4.21 54 4.84 52 -5.9 86 -7.9 9 0 992.7 NA 0.0000 9999 0 0 0 0
2019/06/22 17:22:01 BASE 4.18 56 4.84 52 -5.8 86 -7.8 9 0 992.7 NA 0.0000 9999 0 0 0 0
2019/06/22 17:23:01 BASE 4.24 58 4.84 52 -5.9 86 -7.8 9 0 992.7 NA 0.0000 9999 0 0 0 0
2019/06/22 17:24:01 BASE 4.01 59 4.84 52 -5.9 86 -7.9 8 0 992.7 NA 0.0000 9999 0 0 0 0
2019/06/22 17:25:01 BASE 3.64 65 4.84 52 -5.9 86 -7.9 8 0 992.7 NA 0.0000 9999 0 0 0 0
2019/06/22 17:26:01 BASE 3.49 69 4.84 52 -5.9 86 -7.9 8 0 992.7 NA 0.0000 9999 0 0 0 0
2019/06/22 17:27:01 BASE 3.55 69 4.84 52 -5.9 86 -7.8 8 0 992.7 NA 0.0000 9999 0 0 0 0
2019/06/22 17:28:01 BASE 3.62 72 4.84 52 -5.9 86 -7.8 8 0 992.8 NA 0.0000 9999 0 0 0 0
2019/06/22 17:29:01 BASE 3.66 78 4.84 52 -5.8 86 -7.8 8 0 992.7 NA 0.0000 9999 0 0 0 0
2019/06/22 17:30:01 BASE 3.81 84 4.78 81 -5.8 86 -7.8 8 0 992.7 NA 0.0000 9999 0 0 0 0
2019/06/22 17:31:01 BASE 3.87 80 4.78 81 -5.9 86 -7.8 8 0 992.2 NA 0.0000 9999 0 0 0 0
2019/06/22 17:32:01 BASE 3.76 78 4.78 81 -5.9 86 -7.9 8 0 992.7 NA 0.0000 9999 0 0 0 0
2019/06/22 17:33:01 BASE 4.09 75 5.40 81 -6.0 86 -7.9 8 0 992.7 NA 0.0000 9999 0 0 0 0
2019/06/22 17:34:01 BASE 4.45 66 5.40 81 -6.0 86 -8.0 8 0 992.7 NA 0.0000 9999 0 0 0 0
2019/06/22 17:35:01 BASE 4.10 62 5.40 81 -6.1 86 -8.1 8 0 992.7 NA 0.0000 9999 0 0 0 0
2019/06/22 17:36:01 BASE 3.81 62 5.40 81 -6.1 86 -8.1 8 0 992.3 NA 0.0000 9999 0 0 0 0
2019/06/22 17:37:01 BASE 3.48 65 5.40 81 -6.1 86 -8.0 7 0 992.4 NA 0.0000 9999 0 0 0 0
2019/06/22 17:38:01 BASE 3.13 72 5.40 81 -6.1 86 -8.0 7 0 992.7 NA 0.0000 9999 0 0 0 0
2019/06/22 17:39:01 BASE 3.32 66 5.40 81 -6.0 86 -8.0 7 0 992.7 NA 0.0000 9999 0 0 0 0
2019/06/22 17:40:01 BASE 3.51 54 5.40 81 -6.0 86 -8.0 7 0 992.7 NA 0.0000 9999 0 0 0 0
2019/06/22 17:41:01 BASE 3.53 50 5.40 81 -6.0 86 -8.0 7 0 992.7 NA 0.0000 9999 0 0 0 0
2019/06/22 17:42:01 BASE 3.51 49 5.40 81 -6.0 86 -7.9 7 0 992.7 NA 0.0000 9999 0 0 0 0
2019/06/22 17:43:01 BASE 3.67 47 5.04 54 -6.0 86 -7.9 7 0 992.7 NA 0.0000 9999 0 0 0 0
2019/06/22 17:44:01 BASE 3.74 43 4.48 39 -6.0 86 -8.0 7 0 992.7 NA 0.0000 9999 0 0 0 0
2019/06/22 17:45:01 BASE 3.47 43 4.48 39 -6.0 86 -8.0 7 0 992.7 NA 0.0000 9999 0 0 0 0
2019/06/22 17:46:01 BASE 3.20 41 4.48 39 -6.1 86 -8.0 7 0 992.7 NA 0.0000 9999 0 0 0 0
2019/06/22 17:47:01 BASE 3.09 37 4.48 39 -6.1 86 -8.1 7 0 992.7 NA 0.0000 9999 0 0 0 0
2019/06/22 17:48:01 BASE 3.12 42 4.48 39 -6.2 86 -8.1 7 0 992.7 NA 0.0000 9999 0 0 0 0
2019/06/22 17:49:01 BASE 3.07 44 4.48 39 -6.1 86 -8.1 6 0 992.7 NA 0.0000 9999 0 0 0 0
2019/06/22 17:50:01 BASE 3.20 44 4.48 39 -6.2 86 -8.1 6 0 992.7 NA 0.0000 9999 0 0 0 0
2019/06/22 17:51:01 BASE 3.27 47 4.48 39 -6.1 86 -8.1 6 0 992.7 NA 0.0000 9999 0 0 0 0
2019/06/22 17:52:01 BASE 3.17 50 4.48 39 -6.1 86 -8.1 6 0 992.7 NA 0.0000 9999 0 0 0 0
2019/06/22 17:53:01 BASE 3.23 55 4.32 43 -6.1 86 -8.0 6 0 992.5 NA 0.0000 9999 0 0 0 0
2019/06/22 17:54:01 BASE 3.29 57 3.96 49 -6.0 86 -8.0 6 0 992.7 NA 0.0000 9999 0 0 0 0
2019/06/22 17:55:01 BASE 3.39 56 3.96 49 -6.0 86 -8.0 6 0 992.7 NA 0.0000 9999 0 0 0 0
2019/06/22 17:56:01 BASE 3.55 57 3.96 49 -6.0 86 -7.9 6 0 992.7 NA 0.0000 9999 0 0 0 0
2019/06/22 17:57:00 BASE 3.65 56 3.96 49 -5.9 86 -7.9 6 0 992.5 NA 0.0000 9999 0 0 0 0
2019/06/22 17:58:01 BASE 3.38 50 3.96 49 -5.9 86 -7.9 6 0 992.0 NA 0.0000 9999 0 0 0 0
2019/06/22 17:59:01 BASE 3.19 42 3.96 49 -5.9 86 -7.9 6 0 992.7 NA 0.0000 9999 0 0 0 0
2019/06/22 18:00:01 BASE 2.99 36 3.91 60 -6.0 86 -8.0 6 0 992.7 NA 0.0000 9999 0 0 0 0
2019/06/22 18:01:01 BASE 2.87 41 3.91 60 -6.0 86 -8.0 5 0 992.3 NA 0.0000 9999 0 0 0 0
2019/06/22 18:02:01 BASE 3.24 49 3.91 53 -6.0 86 -8.0 5 0 992.7 NA 0.0000 9999 0 0 0 0
2019/06/22 18:03:01 BASE 3.44 50 3.91 53 -6.0 86 -8.0 5 0 992.7 NA 0.0000 9999 0 0 0 0
2019/06/22 18:04:01 BASE 3.64 52 4.27 53 -6.0 86 -8.0 5 0 992.5 NA 0.0000 9999 0 0 0 0
2019/06/22 18:05:01 BASE 3.94 56 4.32 61 -6.0 86 -8.0 5 0 991.4 NA 0.0000 9999 0 0 0 0
2019/06/22 18:06:01 BASE 3.97 54 4.48 52 -6.0 86 -7.9 5 0 992.7 NA 0.0000 9999 0 0 0 0
2019/06/22 18:07:01 BASE 3.99 55 4.48 52 -6.0 86 -8.0 5 0 992.7 NA 0.0000 9999 0 0 0 0
2019/06/22 18:08:01 BASE 4.14 57 4.78 61 -6.0 86 -8.0 5 0 992.1 NA 0.0000 9999 0 0 0 0
2019/06/22 18:09:01 BASE 4.13 57 4.78 61 -6.1 86 -8.1 5 0 992.5 NA 0.0000 9999 0 0 0 0
2019/06/22 18:10:01 BASE 3.85 53 4.78 61 -6.1 86 -8.1 5 0 992.5 NA 0.0000 9999 0 0 0 0
2019/06/22 18:11:01 BASE 3.66 52 4.78 61 -6.1 86 -8.1 5 0 991.1 NA 0.0000 9999 0 0 0 0
2019/06/22 18:12:01 BASE 3.53 52 4.78 61 -6.0 86 -8.1 4 0 991.9 NA 0.0000 9999 0 0 0 0
2019/06/22 18:13:01 BASE 3.57 52 4.78 61 -6.0 86 -8.0 4 0 992.7 NA 0.0000 9999 0 0 0 0
2019/06/22 18:14:01 BASE 3.66 54 4.78 61 -6.0 85 -8.0 4 0 992.7 NA 0.0000 9999 0 0 0 0
2019/06/22 18:15:01 BASE 3.63 53 4.78 61 -5.9 85 -8.0 4 0 992.7 NA 0.0000 9999 0 0 0 0
2019/06/22 18:16:01 BASE 3.48 52 4.78 61 -5.9 85 -8.0 4 0 992.7 NA 0.0000 9999 0 0 0 0
2019/06/22 18:17:01 BASE 3.58 53 4.78 61 -5.9 85 -8.0 4 0 992.7 NA 0.0000 9999 0 0 0 0
2019/06/22 18:18:01 BASE 3.77 52 4.42 56 -5.8 85 -8.0 4 0 992.7 NA 0.0000 9999 0 0 0 0
2019/06/22 18:19:01 BASE 3.72 53 4.42 56 -5.8 85 -8.0 4 0 992.7 NA 0.0000 9999 0 0 0 0
2019/06/22 18:20:01 BASE 3.78 52 4.42 56 -5.8 84 -8.0 4 0 992.7 NA 0.0000 9999 0 0 0 0
2019/06/22 18:21:01 BASE 3.81 49 4.42 51 -5.9 84 -8.1 4 0 992.7 NA 0.0000 9999 0 0 0 0
2019/06/22 18:22:01 BASE 3.65 50 4.42 51 -5.9 84 -8.2 4 0 992.7 NA 0.0000 9999 0 0 0 0
2019/06/22 18:23:01 BASE 3.85 55 4.48 58 -6.0 84 -8.2 4 0 992.7 NA 0.0000 9999 0 0 0 0
2019/06/22 18:24:01 BASE 4.09 57 4.48 58 -6.0 84 -8.3 3 0 992.7 NA 0.0000 9999 0 0 0 0
2019/06/22 18:25:01 BASE 4.03 56 4.48 59 -6.1 84 -8.4 3 0 992.7 NA 0.0000 9999 0 0 0 0
2019/06/22 18:26:01 BASE 3.99 58 4.48 59 -6.1 84 -8.4 3 0 992.7 NA 0.0000 9999 0 0 0 0
2019/06/22 18:27:01 BASE 4.22 59 4.63 62 -6.1 84 -8.4 3 0 992.7 NA 0.0000 9999 0 0 0 0
2019/06/22 18:28:01 BASE 4.34 58 4.63 62 -6.0 84 -8.3 3 0 992.7 NA 0.0000 9999 0 0 0 0
2019/06/22 18:29:01 BASE 4.27 59 4.63 62 -6.0 84 -8.2 3 0 992.7 NA 0.0000 9999 0 0 0 0
2019/06/22 18:30:01 BASE 4.29 59 4.63 52 -5.9 84 -8.2 3 0 992.7 NA 0.0000 9999 0 0 0 0
2019/06/22 18:31:01 BASE 4.22 58 4.63 52 -5.9 84 -8.2 3 0 992.7 NA 0.0000 9999 0 0 0 0
2019/06/22 18:32:01 BASE 4.05 59 4.63 52 -5.9 84 -8.2 3 0 992.7 NA 0.0000 9999 0 0 0 0
2019/06/22 18:33:01 BASE 3.83 59 4.63 52 -5.9 84 -8.1 3 0 992.7 NA 0.0000 9999 0 0 0 0
2019/06/22 18:34:01 BASE 3.69 62 4.63 52 -5.8 84 -8.1 3 0 992.7 NA 0.0000 9999 0 0 0 0
2019/06/22 18:35:01 BASE 3.62 66 4.63 52 -5.8 84 -8.2 2 0 992.7 NA 0.0000 9999 0 0 0 0
2019/06/22 18:36:01 BASE 3.53 67 4.63 52 -5.8 83 -8.2 2 0 992.7 NA 0.0000 9999 0 0 0 0
2019/06/22 18:37:01 BASE 3.58 65 4.63 52 -5.8 83 -8.2 2 0 992.7 NA 0.0000 9999 0 0 0 0
2019/06/22 18:38:01 BASE 3.71 64 4.63 52 -5.7 83 -8.2 2 0 992.7 NA 0.0000 9999 0 0 0 0
2019/06/22 18:39:01 BASE 3.46 64 4.63 52 -5.7 82 -8.2 2 0 992.6 NA 0.0000 9999 0 0 0 0
2019/06/22 18:40:01 BASE 3.34 67 4.48 59 -5.7 82 -8.3 2 0 992.6 NA 0.0000 9999 0 0 0 0
2019/06/22 18:41:01 BASE 3.81 68 4.37 69 -5.7 82 -8.3 2 0 992.6 NA 0.0000 9999 0 0 0 0
2019/06/22 18:42:01 BASE 4.24 67 4.58 63 -5.8 81 -8.5 2 0 992.6 NA 0.0000 9999 0 0 0 0
2019/06/22 18:43:00 BASE 4.48 66 4.89 60 -5.9 81 -8.7 2 0 992.6 NA 0.0000 9999 0 0 0 0
2019/06/22 18:44:00 BASE 4.64 64 5.25 66 -6.0 80 -8.8 2 0 992.6 NA 0.0000 9999 0 0 0 0
2019/06/22 18:45:01 BASE 4.60 66 5.25 66 -6.1 80 -9.0 2 0 992.6 NA 0.0000 9999 0 0 0 0
2019/06/22 18:46:01 BASE 4.51 67 5.25 66 -6.2 80 -9.1 2 0 992.6 NA 0.0000 9999 0 0 0 0
2019/06/22 18:47:00 BASE 4.53 67 5.25 66 -6.2 80 -9.0 1 0 992.6 NA 0.0000 9999 0 0 0 0
2019/06/22 18:48:00 BASE 4.70 65 5.35 60 -6.1 81 -8.9 1 0 992.6 NA 0.0000 9999 0 0 0 0
2019/06/22 18:49:00 BASE 4.77 61 5.35 60 -6.0 81 -8.8 1 0 992.6 NA 0.0000 9999 0 0 0 0
2019/06/22 18:50:01 BASE 4.68 60 5.35 60 -5.9 81 -8.6 1 0 992.6 NA 0.0000 9999 0 0 0 0
2019/06/22 18:51:00 BASE 4.51 60 5.35 60 -5.8 81 -8.6 1 0 992.6 NA 0.0000 9999 0 0 0 0
2019/06/22 18:52:00 BASE 4.36 60 5.35 60 -5.9 81 -8.6 1 0 992.4 NA 0.0000 9999 0 0 0 0
2019/06/22 18:53:01 BASE 4.57 61 5.35 60 -5.9 81 -8.7 1 0 991.6 NA 0.0000 9999 0 0 0 0
2019/06/22 18:54:00 BASE 4.51 60 5.35 60 -5.9 81 -8.7 1 0 992.3 NA 0.0000 9999 0 0 0 0
2019/06/22 18:55:00 BASE 3.99 60 5.35 60 -6.0 81 -8.7 1 0 992.7 NA 0.0000 9999 0 0 0 0
2019/06/22 18:56:00 BASE 3.82 62 5.35 60 -6.0 81 -8.7 1 0 992.7 NA 0.0000 9999 0 0 0 0
2019/06/22 18:57:00 BASE 3.89 63 5.35 60 -6.0 81 -8.7 1 0 992.7 NA 0.0000 9999 0 0 0 0
2019/06/22 18:58:01 BASE 4.12 64 5.25 60 -6.0 81 -8.7 1 0 992.7 NA 0.0000 9999 0 0 0 0
2019/06/22 18:59:01 BASE 4.40 63 5.25 60 -6.0 81 -8.8 1 0 992.2 NA 0.0000 9999 0 0 0 0
2019/06/22 19:00:00 BASE 4.17 62 5.25 60 -6.1 81 -8.8 1 0 992.5 NA 0.0000 9999 0 0 0 0
2019/06/22 19:01:00 BASE 3.76 67 5.25 60 -6.1 80 -8.9 0 0 992.7 NA 0.0000 9999 0 0 0 0
2019/06/22 19:02:00 BASE 3.72 70 5.25 60 -6.1 80 -8.9 0 0 992.7 NA 0.0000 9999 0 0 0 0
2019/06/22 19:03:00 BASE 4.04 73 4.78 64 -6.1 80 -9.1 0 0 992.7 NA 0.0000 9999 0 0 0 0
2019/06/22 19:04:01 BASE 4.16 81 4.78 64 -6.1 80 -9.1 0 0 992.7 NA 0.0000 9999 0 0 0 0
2019/06/22 19:05:00 BASE 4.12 87 4.78 64 -6.2 79 -9.3 0 0 992.7 NA 0.0000 9999 0 0 0 0
2019/06/22 19:06:00 BASE 4.27 87 4.78 84 -6.3 79 -9.3 0 0 992.7 NA 0.0000 9999 0 0 0 0
2019/06/22 19:07:00 BASE 3.91 87 4.78 84 -6.3 79 -9.4 0 0 992.7 NA 0.0000 9999 0 0 0 0
2019/06/22 19:08:00 BASE 3.60 89 4.78 84 -6.3 79 -9.4 0 0 992.7 NA 0.0000 9999 0 0 0 0
2019/06/22 19:09:01 BASE 3.73 87 4.78 84 -6.4 79 -9.4 0 0 992.7 NA 0.0000 9999 0 0 0 0
2019/06/22 19:10:00 BASE 3.67 85 4.78 84 -6.3 79 -9.3 0 0 992.7 NA 0.0000 9999 0 0 0 0
2019/06/22 19:11:00 BASE 3.53 86 4.78 84 -6.3 79 -9.3 0 0 992.7 NA 0.0000 9999 0 0 0 0
2019/06/22 19:12:00 BASE 3.66 86 4.78 84 -6.2 79 -9.2 0 0 992.7 NA 0.0000 9999 0 0 0 0
2019/06/22 19:13:00 BASE 3.70 84 4.78 84 -6.1 79 -9.0 0 0 992.7 NA 0.0000 9999 0 0 0 0
2019/06/22 19:14:00 BASE 3.44 78 4.78 84 -5.9 79 -8.9 0 0 992.7 NA 0.0000 9999 0 0 0 0
2019/06/22 19:15:00 BASE 3.28 73 4.78 84 -5.9 79 -8.9 0 0 992.7 NA 0.0000 9999 0 0 0 0
2019/06/22 19:16:00 BASE 3.01 75 4.12 83 -5.7 79 -8.7 0 0 992.7 NA 0.0000 9999 0 0 0 0
2019/06/22 19:17:00 BASE 3.35 66 4.32 63 -5.7 79 -8.7 0 0 992.8 NA 0.0000 9999 0 0 0 0
2019/06/22 19:18:00 BASE 3.64 53 4.32 63 -5.8 79 -8.8 0 0 992.6 NA 0.0000 9999 0 0 0 0
2019/06/22 19:19:00 BASE 3.51 44 4.32 63 -5.9 79 -8.9 0 0 992.8 NA 0.0000 9999 0 0 0 0
2019/06/22 19:20:00 BASE 3.50 45 4.32 63 -5.9 79 -8.9 0 0 992.8 NA 0.0000 9999 0 0 0 0
2019/06/22 19:21:00 BASE 3.48 52 4.32 63 -6.0 80 -9.0 0 0 992.8 NA 0.0000 9999 0 0 0 0
2019/06/22 19:22:00 BASE 3.63 57 4.32 58 -6.1 80 -9.0 0 0 992.8 NA 0.0000 9999 0 0 0 0
2019/06/22 19:23:00 BASE 3.64 62 4.32 58 -6.2 81 -8.9 0 0 992.8 NA 0.0000 9999 0 0 0 0
2019/06/22 19:24:00 BASE 3.65 65 4.32 58 -6.2 81 -8.9 0 0 992.8 NA 0.0000 9999 0 0 0 0
2019/06/22 19:25:01 BASE 3.23 60 4.32 58 -6.2 81 -8.9 0 0 992.8 NA 0.0000 9999 0 0 0 0
2019/06/22 19:26:00 BASE 2.65 60 4.32 58 -6.2 81 -8.9 0 0 992.6 NA 0.0000 9999 0 0 0 0
2019/06/22 19:27:00 BASE 2.64 63 4.32 58 -6.1 81 -8.8 0 0 992.8 NA 0.0000 9999 0 0 0 0
2019/06/22 19:28:00 BASE 2.69 63 4.32 58 -6.1 81 -8.8 0 0 992.6 NA 0.0000 9999 0 0 0 0
2019/06/22 19:29:00 BASE 2.73 59 4.32 58 -6.0 81 -8.8 0 0 992.8 NA 0.0000 9999 0 0 0 0
2019/06/22 19:30:00 BASE 2.95 54 4.32 58 -6.0 81 -8.7 0 0 992.8 NA 0.0000 9999 0 0 0 0
2019/06/22 19:31:00 BASE 3.30 51 4.32 58 -5.9 81 -8.7 0 0 992.8 NA 0.0000 9999 0 0 0 0
2019/06/22 19:32:00 BASE 3.41 46 4.17 71 -6.0 81 -8.7 0 0 992.8 NA 0.0000 9999 0 0 0 0
2019/06/22 19:33:00 BASE 3.12 46 4.17 71 -6.0 81 -8.7 0 0 992.8 NA 0.0000 9999 0 0 0 0
2019/06/22 19:34:00 BASE 3.22 46 3.70 55 -6.1 81 -8.8 0 0 992.6 NA 0.0000 9999 0 0 0 0
2019/06/22 19:35:00 BASE 3.52 45 3.70 45 -6.2 81 -8.9 0 0 992.7 NA 0.0000 9999 0 0 0 0
2019/06/22 19:36:00 BASE 3.59 42 4.01 40 -6.2 81 -9.0 0 0 992.8 NA 0.0000 9999 0 0 0 0
2019/06/22 19:37:00 BASE 3.58 43 4.01 40 -6.3 81 -9.0 0 0 992.8 NA 0.0000 9999 0 0 0 0
2019/06/22 19:38:00 BASE 3.63 44 4.01 40 -6.3 81 -9.1 0 0 992.8 NA 0.0000 9999 0 0 0 0
2019/06/22 19:39:00 BASE 3.65 44 4.01 40 -6.4 81 -9.1 0 0 992.8 NA 0.0000 9999 0 0 0 0
2019/06/22 19:40:00 BASE 3.82 45 4.37 46 -6.4 81 -9.2 0 0 992.8 NA 0.0000 9999 0 0 0 0
2019/06/22 19:41:00 BASE 3.97 42 4.42 41 -6.4 81 -9.1 0 0 992.8 NA 0.0000 9999 0 0 0 0
2019/06/22 19:42:00 BASE 3.84 42 4.42 41 -6.4 81 -9.2 0 0 992.8 NA 0.0000 9999 0 0 0 0
2019/06/22 19:43:00 BASE 4.11 43 4.99 34 -6.4 81 -9.2 0 0 992.7 NA 0.0000 9999 0 0 0 0
2019/06/22 19:44:00 BASE 4.39 42 4.99 34 -6.4 81 -9.2 0 0 992.5 NA 0.0000 9999 0 0 0 0
2019/06/22 19:45:00 BASE 4.23 43 4.99 34 -6.5 81 -9.3 0 0 992.8 NA 0.0000 9999 0 0 0 0
2019/06/22 19:46:00 BASE 4.15 44 4.99 34 -6.5 80 -9.4 0 0 992.8 NA 0.0000 9999 0 0 0 0
2019/06/22 19:47:00 BASE 4.08 45 4.99 34 -6.6 80 -9.4 0 0 992.8 NA 0.0000 9999 0 0 0 0
2019/06/22 19:48:00 BASE 3.78 47 4.99 34 -6.6 80 -9.4 0 0 992.8 NA 0.0000 9999 0 0 0 0
2019/06/22 19:49:00 BASE 3.75 47 4.99 34 -6.6 81 -9.4 0 0 992.8 NA 0.0000 9999 0 0 0 0
2019/06/22 19:50:00 BASE 3.76 42 4.99 34 -6.6 81 -9.3 0 0 992.9 NA 0.0000 9999 0 0 0 0
2019/06/22 19:51:00 BASE 3.37 39 4.99 34 -6.6 81 -9.3 0 0 992.9 NA 0.0000 9999 0 0 0 0
2019/06/22 19:52:00 BASE 3.35 34 4.99 34 -6.5 81 -9.2 0 0 992.9 NA 0.0000 9999 0 0 0 0
2019/06/22 19:53:00 BASE 3.65 32 4.89 37 -6.5 81 -9.3 0 0 992.9 NA 0.0000 9999 0 0 0 0
2019/06/22 19:54:00 BASE 3.66 35 4.73 45 -6.6 81 -9.3 0 0 992.9 NA 0.0000 9999 0 0 0 0
2019/06/22 19:55:00 BASE 3.18 35 4.53 41 -6.6 81 -9.3 0 0 992.9 NA 0.0000 9999 0 0 0 0
2019/06/22 19:56:00 BASE 2.89 37 4.53 41 -6.5 81 -9.2 0 0 992.9 NA 0.0000 9999 0 0 0 0
2019/06/22 19:57:00 BASE 2.92 36 4.53 41 -6.5 81 -9.2 0 0 992.9 NA 0.0000 9999 0 0 0 0
2019/06/22 19:58:00 BASE 3.10 35 4.53 41 -6.4 81 -9.1 0 0 992.9 NA 0.0000 9999 0 0 0 0
2019/06/22 19:59:00 BASE 3.07 33 4.37 34 -6.4 81 -9.1 0 0 992.9 NA 0.0000 9999 0 0 0 0
2019/06/22 20:00:00 BASE 3.82 34 5.40 41 -6.3 81 -9.1 0 0 992.9 NA 0.0000 9999 0 0 0 0
2019/06/22 20:01:00 BASE 4.21 36 5.40 41 -6.4 81 -9.1 0 0 992.9 NA 0.0000 9999 0 0 0 0
2019/06/22 20:02:00 BASE 3.67 38 5.40 41 -6.4 81 -9.1 0 0 992.9 NA 0.0000 9999 0 0 0 0
2019/06/22 20:03:00 BASE 3.49 43 5.40 41 -6.4 81 -9.2 0 0 992.9 NA 0.0000 9999 0 0 0 0
2019/06/22 20:04:00 BASE 3.53 43 5.40 41 -6.5 81 -9.3 0 0 992.9 NA 0.0000 9999 0 0 0 0
2019/06/22 20:05:00 BASE 4.20 37 5.40 41 -6.6 81 -9.4 0 0 992.9 NA 0.0000 9999 0 0 0 0
2019/06/22 20:06:00 BASE 4.40 36 5.40 41 -6.6 81 -9.4 0 0 992.9 NA 0.0000 9999 0 0 0 0
2019/06/22 20:07:00 BASE 4.00 40 5.40 41 -6.7 81 -9.4 0 0 992.9 NA 0.0000 9999 0 0 0 0
2019/06/22 20:08:00 BASE 4.42 39 5.76 38 -6.7 81 -9.5 0 0 992.9 NA 0.0000 9999 0 0 0 0
2019/06/22 20:09:00 BASE 4.65 34 5.76 38 -6.7 81 -9.5 0 0 992.9 NA 0.0000 9999 0 0 0 0
2019/06/22 20:10:00 BASE 4.23 34 5.76 38 -6.7 81 -9.4 0 0 992.9 NA 0.0000 9999 0 0 0 0
2019/06/22 20:11:00 BASE 4.16 40 5.76 38 -6.7 81 -9.4 0 0 992.9 NA 0.0000 9999 0 0 0 0
2019/06/22 20:12:00 BASE 3.98 42 5.76 38 -6.7 81 -9.4 0 0 992.9 NA 0.0000 9999 0 0 0 0
2019/06/22 20:13:00 BASE 3.73 44 5.76 38 -6.7 81 -9.4 0 0 992.9 NA 0.0000 9999 0 0 0 0
2019/06/22 20:14:00 BASE 3.42 47 5.76 38 -6.6 81 -9.3 0 0 992.9 NA 0.0000 9999 0 0 0 0
2019/06/22 20:15:00 BASE 3.36 48 5.76 38 -6.5 81 -9.2 0 0 992.9 NA 0.0000 9999 0 0 0 0
2019/06/22 20:16:00 BASE 3.56 51 5.76 38 -6.4 81 -9.1 0 0 992.9 NA 0.0000 9999 0 0 0 0
2019/06/22 20:17:00 BASE 3.90 54 5.76 38 -6.4 81 -9.1 0 0 992.9 NA 0.0000 9999 0 0 0 0
2019/06/22 20:18:00 BASE 4.34 52 5.14 45 -6.3 81 -9.1 0 0 992.9 NA 0.0000 9999 0 0 0 0
2019/06/22 20:19:00 BASE 4.61 48 5.14 45 -6.3 80 -9.1 0 0 992.9 NA 0.0000 9999 0 0 0 0
2019/06/22 20:20:00 BASE 4.66 46 5.14 45 -6.3 80 -9.2 0 0 992.9 NA 0.0000 9999 0 0 0 0
2019/06/22 20:21:00 BASE 4.22 51 5.14 45 -6.4 80 -9.3 0 0 993.0 NA 0.0000 9999 0 0 0 0
2019/06/22 20:22:00 BASE 3.63 51 5.14 45 -6.4 80 -9.3 0 0 993.0 NA 0.0000 9999 0 0 0 0
2019/06/22 20:23:00 BASE 3.14 47 5.14 45 -6.4 80 -9.3 0 0 993.0 NA 0.0000 9999 0 0 0 0
2019/06/22 20:24:00 BASE 2.89 44 5.14 45 -6.4 80 -9.3 0 0 993.0 NA 0.0000 9999 0 0 0 0
2019/06/22 20:25:00 BASE 3.22 47 5.14 45 -6.4 80 -9.2 0 0 993.1 NA 0.0000 9999 0 0 0 0
2019/06/22 20:26:00 BASE 3.58 51 5.14 45 -6.3 80 -9.3 0 0 993.1 NA 0.0000 9999 0 0 0 0
2019/06/22 20:27:00 BASE 3.52 49 5.14 45 -6.3 80 -9.3 0 0 993.1 NA 0.0000 9999 0 0 0 0
2019/06/22 20:28:00 BASE 3.23 45 4.99 44 -6.3 79 -9.3 0 0 993.1 NA 0.0000 9999 0 0 0 0
2019/06/22 20:29:00 BASE 3.00 45 4.99 44 -6.3 79 -9.3 0 0 993.0 NA 0.0000 9999 0 0 0 0
2019/06/22 20:30:00 BASE 2.74 45 4.32 57 -6.3 79 -9.3 0 0 993.0 NA 0.0000 9999 0 0 0 0
2019/06/22 20:31:00 BASE 2.53 46 4.32 57 -6.2 79 -9.3 0 0 993.0 NA 0.0000 9999 0 0 0 0
2019/06/22 20:32:00 BASE 2.57 50 4.32 57 -6.2 79 -9.3 0 0 993.0 NA 0.0000 9999 0 0 0 0
2019/06/22 20:33:01 BASE 2.64 49 4.32 57 -6.2 79 -9.2 0 0 992.9 NA 0.0000 9999 0 0 0 0
2019/06/22 20:34:00 BASE 2.77 47 4.32 57 -6.2 79 -9.2 0 0 992.9 NA 0.0000 9999 0 0 0 0
2019/06/22 20:35:01 BASE 3.61 49 4.89 47 -6.1 79 -9.2 0 0 993.0 NA 0.0000 9999 0 0 0 0
2019/06/22 20:36:00 BASE 4.73 50 6.69 42 -6.2 79 -9.3 0 0 993.0 NA 0.0000 9999 0 0 0 0
2019/06/22 20:37:00 BASE 5.45 44 7.41 35 -6.2 78 -9.3 0 0 993.0 NA 0.0000 9999 0 0 0 0
2019/06/22 20:38:00 BASE 5.01 46 7.41 35 -6.2 78 -9.4 0 0 993.1 NA 0.0000 9999 0 0 0 0
2019/06/22 20:39:00 BASE 4.21 59 7.41 35 -6.3 78 -9.5 0 0 993.0 NA 0.0000 9999 0 0 0 0
2019/06/22 20:40:01 BASE 4.24 67 7.41 35 -6.4 78 -9.5 0 0 993.0 NA 0.0000 9999 0 0 0 0
2019/06/22 20:41:00 BASE 4.56 70 7.41 35 -6.4 78 -9.6 0 0 993.1 NA 0.0000 9999 0 0 0 0
2019/06/22 20:42:01 BASE 4.37 77 7.41 35 -6.4 78 -9.6 0 0 993.0 NA 0.0000 9999 0 0 0 0
2019/06/22 20:43:00 BASE 4.81 82 7.41 35 -6.5 78 -9.7 0 0 993.0 NA 0.0000 9999 0 0 0 0
2019/06/22 20:44:00 BASE 5.39 81 7.41 35 -6.6 78 -9.8 0 0 993.0 NA 0.0000 9999 0 0 0 0
2019/06/22 20:45:00 BASE 5.87 80 7.72 94 -6.7 79 -9.8 0 0 993.1 NA 0.0000 9999 0 0 0 0
2019/06/22 20:46:00 BASE 6.09 80 7.72 94 -6.8 79 -9.9 0 0 993.0 NA 0.0000 9999 0 0 0 0
2019/06/22 20:47:00 BASE 5.86 78 7.72 94 -6.9 79 -9.9 0 0 993.0 NA 0.0000 9999 0 0 0 0
2019/06/22 20:48:00 BASE 5.62 80 7.72 94 -6.9 79 -9.9 0 0 993.0 NA 0.0000 9999 0 0 0 0
2019/06/22 20:49:00 BASE 4.97 84 7.72 94 -6.9 80 -9.9 0 0 993.0 NA 0.0000 9999 0 0 0 0
2019/06/22 20:50:00 BASE 4.75 76 7.72 94 -6.9 80 -9.8 0 0 993.0 NA 0.0000 9999 0 0 0 0
2019/06/22 20:51:00 BASE 4.33 66 7.72 94 -6.9 80 -9.8 0 0 993.0 NA 0.0000 9999 0 0 0 0
2019/06/22 20:52:00 BASE 4.15 71 7.72 94 -7.0 80 -9.8 0 0 993.0 NA 0.0000 9999 0 0 0 0
2019/06/22 20:53:00 BASE 4.25 69 7.72 94 -7.0 81 -9.7 0 0 992.9 NA 0.0000 9999 0 0 0 0
2019/06/22 20:54:01 BASE 4.33 61 7.72 94 -6.9 81 -9.6 0 0 993.0 NA 0.0000 9999 0 0 0 0
2019/06/22 20:55:01 BASE 4.14 54 6.74 79 -6.9 82 -9.5 0 0 993.0 NA 0.0000 9999 4070 0 0 0
2019/06/22 20:56:00 BASE 4.22 52 6.74 79 -6.8 82 -9.4 0 0 993.0 NA 0.0000 9999 4070 0 0 0
2019/06/22 20:57:00 BASE 4.63 48 6.53 35 -6.7 82 -9.2 0 0 992.9 NA 0.0000 9999 0 0 0 0
2019/06/22 20:58:00 BASE 5.01 37 6.53 35 -6.6 82 -9.1 0 0 992.9 NA 0.0000 9999 4000 0 0 0
2019/06/22 20:59:00 BASE 5.39 38 6.84 35 -6.5 82 -9.0 0 0 992.9 NA 0.0000 9999 0 0 0 0
2019/06/22 21:00:00 BASE 5.49 37 6.84 35 -6.4 82 -8.9 0 0 992.9 NA 0.0000 9999 0 0 0 0
2019/06/22 21:01:00 BASE 6.16 31 7.82 27 -6.2 82 -8.8 0 0 992.9 NA 0.0000 9999 0 0 0 0
2019/06/22 21:02:00 BASE 7.56 31 9.21 24 -6.2 82 -8.7 0 0 992.9 NA 0.0000 9999 0 0 0 0
2019/06/22 21:03:00 BASE 8.38 31 9.21 24 -6.2 82 -8.7 0 0 992.9 NA 0.0000 9999 0 0 0 0
2019/06/22 21:04:00 BASE 8.74 28 9.67 24 -6.1 82 -8.7 0 0 992.9 NA 0.0000 9999 0 0 0 0
2019/06/22 21:05:01 BASE 8.94 25 9.67 24 -6.1 82 -8.7 0 0 992.9 NA 0.0000 9999 0 0 0 0
2019/06/22 21:06:00 BASE 9.00 24 9.83 23 -6.1 82 -8.6 0 0 992.9 NA 0.0000 9999 0 0 0 0
2019/06/22 21:07:00 BASE 8.73 23 9.83 23 -6.1 83 -8.5 0 0 992.9 NA 0.0000 9999 0 0 0 0
2019/06/22 21:08:00 BASE 8.38 18 9.83 23 -6.0 83 -8.5 0 0 992.9 NA 0.0000 9999 0 0 0 0
2019/06/22 21:09:00 BASE 9.05 15 10.91 18 -5.9 83 -8.3 0 0 992.9 NA 0.0000 9999 0 0 0 0
2019/06/22 21:10:00 BASE 9.30 10 10.91 18 -5.8 83 -8.2 0 0 992.9 NA 0.0000 9999 0 0 0 0
2019/06/22 21:11:00 BASE 9.22 6 10.91 18 -5.6 83 -8.1 0 0 992.9 NA 0.0000 9999 0 0 0 0
2019/06/22 21:12:00 BASE 9.26 8 10.91 18 -5.5 83 -8.0 0 0 992.9 NA 0.0000 9999 0 0 0 0
2019/06/22 21:13:00 BASE 9.48 13 11.21 20 -5.4 83 -7.9 0 0 992.9 NA 0.0000 9999 0 0 0 0
2019/06/22 21:14:00 BASE 9.42 15 11.21 20 -5.4 83 -7.8 0 0 992.9 NA 0.0000 9999 0 0 0 0
2019/06/22 21:15:00 BASE 8.52 15 11.21 20 -5.4 83 -7.8 0 0 992.9 NA 0.0000 9999 0 0 0 0
2019/06/22 21:16:00 BASE 8.29 22 11.21 20 -5.4 83 -7.8 0 0 992.9 NA 0.0000 9999 0 0 0 0
2019/06/22 21:17:00 BASE 8.83 26 11.21 20 -5.4 83 -7.8 0 0 992.9 NA 0.0000 9999 0 0 0 0
2019/06/22 21:18:00 BASE 8.72 25 11.21 20 -5.4 83 -7.9 0 0 992.9 NA 0.0000 9999 0 0 0 0
2019/06/22 21:19:00 BASE 7.86 28 11.21 20 -5.4 83 -7.9 0 0 992.9 NA 0.0000 9999 0 0 0 0
2019/06/22 21:20:00 BASE 7.55 29 11.21 20 -5.5 83 -8.0 0 0 992.9 NA 0.0000 9999 0 0 0 0
2019/06/22 21:21:00 BASE 7.75 25 11.21 20 -5.5 83 -8.0 0 0 992.9 NA 0.0000 9999 0 0 0 0
2019/06/22 21:22:00 BASE 7.25 23 11.21 20 -5.5 83 -8.0 0 0 992.9 NA 0.0000 9999 0 0 0 0
2019/06/22 21:23:00 BASE 6.72 26 10.55 32 -5.5 83 -7.9 0 0 992.9 NA 0.0000 9999 0 0 0 0
2019/06/22 21:24:00 BASE 6.73 27 10.55 32 -5.4 83 -7.9 0 0 992.9 NA 0.0000 9999 0 0 0 0
2019/06/22 21:25:00 BASE 6.48 29 10.55 32 -5.4 83 -7.8 0 0 992.9 NA 0.0000 9999 0 0 0 0
2019/06/22 21:26:00 BASE 7.11 33 10.55 32 -5.4 83 -7.8 0 0 992.9 NA 0.0000 9999 0 0 0 0
2019/06/22 21:27:00 BASE 8.24 34 9.11 35 -5.4 83 -7.8 0 0 992.9 NA 0.0000 9999 0 0 0 0
2019/06/22 21:28:00 BASE 8.47 36 9.41 38 -5.4 83 -7.9 0 0 992.8 NA 0.0000 9999 0 0 0 0
2019/06/22 21:29:00 BASE 8.85 37 10.44 37 -5.5 83 -8.0 0 0 992.8 NA 0.0000 9999 0 0 0 0
2019/06/22 21:30:00 BASE 9.52 37 10.44 34 -5.6 83 -8.0 0 0 992.8 NA 0.0000 9999 0 0 0 0
2019/06/22 21:31:00 BASE 9.16 38 10.44 34 -5.7 83 -8.1 0 0 992.8 NA 0.0000 9999 0 0 0 0
2019/06/22 21:32:00 BASE 8.97 40 11.01 37 -5.8 84 -8.1 0 0 992.8 NA 0.0000 9999 0 0 0 0
2019/06/22 21:33:00 BASE 9.55 39 11.01 37 -5.9 84 -8.2 0 0 992.7 NA 0.0000 9999 0 0 0 0
2019/06/22 21:34:00 BASE 9.83 37 11.42 38 -6.0 84 -8.2 0 0 992.7 NA 0.0000 9999 2950 0 0 0
2019/06/22 21:35:00 BASE 9.83 39 11.57 36 -6.1 84 -8.3 0 0 992.7 NA 0.0000 9999 2950 0 0 0
2019/06/22 21:36:00 BASE 10.31 35 11.57 36 -6.1 85 -8.3 0 0 992.7 NA 0.0000 9999 0 0 0 0
2019/06/22 21:37:00 BASE 10.68 35 11.83 38 -6.2 85 -8.3 0 0 992.7 NA 0.0000 9999 2490 0 0 0
2019/06/22 21:38:00 BASE 11.20 38 12.96 37 -6.2 85 -8.3 0 0 992.7 NA 0.0000 9999 2690 0 0 0
2019/06/22 21:39:00 BASE 11.83 37 12.96 37 -6.2 85 -8.3 0 0 992.7 NA 0.0000 9999 0 0 0 0
2019/06/22 21:40:00 BASE 11.43 38 12.96 37 -6.2 85 -8.3 0 0 992.7 NA 0.0000 9999 2950 0 0 0
2019/06/22 21:41:00 BASE 11.17 39 12.96 37 -6.3 85 -8.4 0 0 992.6 NA 0.0000 9999 2920 0 0 0
2019/06/22 21:42:00 BASE 11.10 38 12.96 37 -6.3 85 -8.4 0 0 992.7 NA 0.0000 9999 0 0 0 0
2019/06/22 21:43:00 BASE 10.53 39 12.96 37 -6.3 85 -8.4 0 0 992.7 NA 0.0000 9999 0 0 0 0
2019/06/22 21:44:00 BASE 10.85 40 12.96 37 -6.3 85 -8.4 0 0 992.7 NA 0.0000 9999 0 0 0 0
2019/06/22 21:45:00 BASE 11.48 40 12.96 37 -6.3 85 -8.4 0 0 992.7 NA 0.0000 9999 0 0 0 0
2019/06/22 21:46:00 BASE 11.32 40 12.96 37 -6.3 85 -8.4 0 0 992.7 NA 0.0000 9999 0 0 0 0
2019/06/22 21:47:00 BASE 10.96 41 12.96 37 -6.2 85 -8.3 0 0 992.6 NA 0.0000 9999 0 0 0 0
2019/06/22 21:48:00 BASE 10.18 44 12.71 40 -6.2 85 -8.3 0 0 992.7 NA 0.0000 9999 0 0 0 0
2019/06/22 21:49:00 BASE 9.55 45 12.71 40 -6.2 85 -8.3 0 0 992.7 NA 0.0000 9999 0 0 0 0
2019/06/22 21:50:00 BASE 9.35 45 12.71 40 -6.2 85 -8.3 0 0 992.7 NA 0.0000 9999 0 0 0 0
2019/06/22 21:51:00 BASE 8.90 45 12.71 40 -6.3 85 -8.4 0 0 992.7 NA 0.0000 9999 0 0 0 0
2019/06/22 21:52:00 BASE 8.14 44 12.71 40 -6.3 85 -8.4 0 0 992.6 NA 0.0000 9999 0 0 0 0
2019/06/22 21:53:00 BASE 7.63 42 12.71 40 -6.3 85 -8.4 0 0 992.7 NA 0.0000 9999 0 0 0 0
2019/06/22 21:54:00 BASE 7.22 42 12.30 35 -6.3 86 -8.3 0 0 992.6 NA 0.0000 9999 0 0 0 0
2019/06/22 21:55:00 BASE 6.94 41 12.14 35 -6.3 86 -8.3 0 0 992.6 NA 0.0000 9999 0 0 0 0
2019/06/22 21:56:00 BASE 6.76 43 11.06 45 -6.2 86 -8.1 0 0 992.6 NA 0.0000 9999 0 0 0 0
2019/06/22 21:57:00 BASE 6.96 49 10.80 40 -6.1 86 -8.0 0 0 992.6 NA 0.0000 9999 0 0 0 0
2019/06/22 21:58:00 BASE 7.29 52 10.34 42 -6.0 86 -7.9 0 0 992.6 NA 0.0000 9999 0 0 0 0
2019/06/22 21:59:00 BASE 7.17 52 9.98 43 -5.9 86 -7.9 0 0 992.6 NA 0.0000 9999 0 0 0 0
2019/06/22 22:00:00 BASE 6.34 62 8.95 43 -5.9 86 -8.0 0 0 992.6 NA 0.0000 9999 0 0 0 0
2019/06/22 22:01:00 BASE 4.53 89 8.39 36 -6.0 85 -8.0 0 0 992.7 NA 0.0000 9999 0 0 0 0
2019/06/22 22:02:00 BASE 3.29 106 8.28 41 -6.0 85 -8.1 0 0 992.7 NA 0.0000 9999 0 0 0 0
2019/06/22 22:03:00 BASE 2.87 100 8.18 48 -6.1 85 -8.2 0 0 992.6 NA 0.0000 9999 0 0 0 0
2019/06/22 22:04:00 BASE 3.35 102 8.18 48 -6.1 85 -8.2 0 0 992.6 NA 0.0000 9999 0 0 0 0
2019/06/22 22:05:00 BASE 4.46 115 8.18 48 -6.1 85 -8.2 0 0 992.6 NA 0.0000 9999 0 0 0 0
2019/06/22 22:06:00 BASE 4.17 125 8.18 48 -6.0 85 -8.1 0 0 992.6 NA 0.0000 9999 0 0 0 0
2019/06/22 22:07:00 BASE 4.81 120 8.18 48 -6.1 85 -8.3 0 0 992.7 NA 0.0000 9999 0 0 0 0
2019/06/22 22:08:00 BASE 7.05 113 8.75 121 -6.2 84 -8.5 0 0 992.7 NA 0.0000 9999 0 0 0 0
2019/06/22 22:09:00 BASE 7.78 121 8.75 121 -6.2 84 -8.5 0 0 992.6 NA 0.0000 9999 0 0 0 0
2019/06/22 22:10:00 BASE 7.10 117 8.75 121 -6.3 84 -8.6 0 0 992.6 NA 0.0000 9999 0 0 0 0
2019/06/22 22:11:00 BASE 6.70 112 8.85 113 -6.5 83 -8.9 0 0 992.6 NA 0.0000 9999 0 0 0 0
2019/06/22 22:12:00 BASE 7.23 107 9.52 89 -6.6 83 -9.0 0 0 992.6 NA 0.0000 9999 0 0 0 0
2019/06/22 22:13:00 BASE 7.96 103 9.52 89 -6.5 83 -8.8 0 0 992.6 NA 0.0000 9999 0 0 0 0
2019/06/22 22:14:00 BASE 7.93 105 9.52 89 -6.4 83 -8.8 0 0 992.6 NA 0.0000 9999 0 0 0 0
2019/06/22 22:15:00 BASE 6.47 103 9.52 89 -6.4 83 -8.7 0 0 992.6 NA 0.0000 9999 0 0 0 0
2019/06/22 22:16:00 BASE 5.67 102 9.52 89 -6.2 83 -8.6 0 0 992.5 NA 0.0000 9999 0 0 0 0
2019/06/22 22:17:00 BASE 5.58 104 9.52 89 -6.1 83 -8.5 0 0 992.5 NA 0.0000 9999 0 0 0 0
2019/06/22 22:18:00 BASE 4.72 103 9.52 89 -6.0 83 -8.5 0 0 992.4 NA 0.0000 9999 2850 0 0 0
2019/06/22 22:19:00 BASE 4.37 112 9.52 89 -6.0 82 -8.5 0 0 992.4 NA 0.0000 9999 2850 0 0 0
2019/06/22 22:20:00 BASE 3.84 126 9.52 89 -6.0 82 -8.5 0 0 992.3 NA 0.0000 9999 2820 0 0 0
2019/06/22 22:21:00 BASE 2.52 122 9.52 89 -5.8 82 -8.4 0 0 992.3 NA 0.0000 9999 3080 0 0 0
2019/06/22 22:22:00 BASE 1.23 103 9.00 105 -5.6 82 -8.2 0 0 992.3 NA 0.0000 9999 2560 0 0 0
2019/06/22 22:23:00 BASE 1.61 89 8.08 98 -5.5 82 -8.1 0 0 992.3 NA 0.0000 9999 2690 0 0 0
2019/06/22 22:24:00 BASE 2.87 97 6.58 97 -5.5 81 -8.2 0 0 992.4 NA 0.0000 9999 2690 0 0 0
2019/06/22 22:25:00 BASE 3.66 103 6.58 97 -5.4 81 -8.2 0 0 992.4 NA 0.0000 9999 2530 0 0 0
2019/06/22 22:26:00 BASE 3.68 110 5.92 110 -5.4 80 -8.3 0 0 992.4 NA 0.0000 9999 2620 0 0 0
2019/06/22 22:27:00 BASE 4.15 116 5.97 93 -5.5 79 -8.5 0 0 992.4 NA 0.0000 9999 0 0 0 0
2019/06/22 22:28:00 BASE 5.20 106 6.28 95 -5.8 79 -8.9 0 0 992.4 NA 0.0000 9999 0 0 0 0
2019/06/22 22:29:00 BASE 5.35 101 6.28 95 -5.9 79 -9.0 0 0 992.4 NA 0.0000 9999 0 0 0 0
2019/06/22 22:30:00 BASE 4.67 104 6.28 95 -6.0 79 -9.1 0 0 992.4 NA 0.0000 9999 0 0 0 0
2019/06/22 22:31:00 BASE 3.75 103 6.28 95 -6.2 78 -9.4 0 0 992.4 NA 0.0000 9999 0 0 0 0
2019/06/22 22:32:00 BASE 3.59 89 6.28 95 -6.3 79 -9.4 0 0 992.4 NA 0.0000 9999 0 0 0 0
2019/06/22 22:33:00 BASE 3.44 65 6.28 95 -6.2 79 -9.2 0 0 992.4 NA 0.0000 9999 0 0 0 0
2019/06/22 22:34:00 BASE 2.80 34 6.28 95 -6.0 79 -8.9 0 0 992.3 NA 0.0000 9999 0 0 0 0
2019/06/22 22:35:01 BASE 2.28 24 6.28 95 -5.8 80 -8.7 0 0 992.3 NA 0.0000 9999 0 0 0 0
2019/06/22 22:36:00 BASE 2.53 50 6.28 95 -5.5 80 -8.5 0 0 992.4 NA 0.0000 9999 0 0 0 0
2019/06/22 22:37:00 BASE 3.49 84 6.28 95 -5.4 79 -8.5 0 0 992.4 NA 0.0000 9999 0 0 0 0
2019/06/22 22:38:00 BASE 3.60 75 6.12 91 -5.4 79 -8.5 0 0 992.4 NA 0.0000 9999 0 0 0 0
2019/06/22 22:39:00 BASE 2.94 56 6.12 91 -5.4 79 -8.5 0 0 992.4 NA 0.0000 9999 0 0 0 0
2019/06/22 22:40:00 BASE 2.08 48 6.12 91 -5.4 78 -8.6 0 0 992.4 NA 0.0000 9999 0 0 0 0
2019/06/22 22:41:00 BASE 1.30 34 6.12 91 -5.5 78 -8.7 0 0 992.4 NA 0.0000 9999 3050 0 0 0
2019/06/22 22:42:00 BASE 1.01 20 6.12 91 -5.4 78 -8.6 0 0 992.4 NA 0.0000 9999 3120 0 0 0
2019/06/22 22:43:00 BASE 1.04 4 6.12 91 -5.4 78 -8.6 0 0 992.4 NA 0.0000 9999 3480 0 0 0
2019/06/22 22:44:00 BASE 1.41 357 6.12 91 -5.4 78 -8.6 0 0 992.4 NA 0.0000 9999 3350 0 0 0
2019/06/22 22:45:00 BASE 1.04 3 6.12 91 -5.4 78 -8.6 0 0 992.5 NA 0.0000 9999 3580 0 0 0
2019/06/22 22:46:00 BASE 0.85 31 6.12 91 -5.4 78 -8.6 0 0 992.6 NA 0.0000 9999 3220 0 0 0
2019/06/22 22:47:00 BASE 0.94 51 4.58 84 -5.3 78 -8.5 0 0 992.6 NA 0.0000 9999 3150 0 0 0
2019/06/22 22:48:00 BASE 0.88 14 3.81 45 -5.3 78 -8.4 0 0 992.6 NA 0.0000 9999 3310 0 0 0
2019/06/22 22:49:00 BASE 2.57 345 5.61 337 -5.2 78 -8.4 0 0 992.6 NA 0.0000 9999 3180 0 0 0
2019/06/22 22:50:00 BASE 4.14 346 5.81 347 -5.3 78 -8.5 0 0 992.6 NA 0.0000 9999 3150 0 0 0
2019/06/22 22:51:00 BASE 3.05 321 5.81 347 -5.2 78 -8.5 0 0 992.6 NA 0.0000 9999 3150 0 0 0
2019/06/22 22:52:00 BASE 1.79 316 5.81 347 -5.2 77 -8.6 0 0 992.6 NA 0.0000 9999 3050 0 0 0
2019/06/22 22:53:00 BASE 1.62 314 5.81 347 -5.2 77 -8.6 0 0 992.6 NA 0.0000 9999 3020 0 0 0
2019/06/22 22:54:00 BASE 1.63 310 5.81 347 -5.2 77 -8.6 0 0 992.6 NA 0.0000 9999 3120 0 0 0
2019/06/22 22:55:00 BASE 1.44 346 5.81 347 -5.2 77 -8.5 0 0 992.6 NA 0.0000 9999 3380 0 0 0
2019/06/22 22:56:00 BASE 0.62 33 5.81 347 -5.2 77 -8.6 0 0 992.6 NA 0.0000 9999 3580 0 0 0
2019/06/22 22:57:00 BASE 0.81 74 5.81 347 -5.2 77 -8.6 0 0 992.6 NA 0.0000 9999 3020 0 0 0
2019/06/22 22:58:00 BASE 1.40 100 5.81 347 -5.2 77 -8.7 0 0 992.6 NA 0.0000 9999 3670 0 0 0
2019/06/22 22:59:00 BASE 0.64 116 5.81 347 -5.3 77 -8.7 0 0 992.6 NA 0.0000 9999 3610 0 0 0
2019/06/22 23:00:01 BASE 0.00 161 3.04 293 -5.3 77 -8.7 0 0 992.6 NA 0.0000 9999 3540 0 0 0
2019/06/22 23:01:00 BASE 0.00 223 2.11 304 -5.3 77 -8.8 0 0 992.6 NA 0.0000 9999 3410 0 0 0
2019/06/22 23:02:00 BASE 0.00 261 1.95 78 -5.4 77 -8.8 0 0 992.6 NA 0.0000 9999 3310 0 0 0
2019/06/22 23:03:00 BASE 0.60 332 1.95 78 -5.3 77 -8.7 0 0 992.7 NA 0.0000 9999 3120 0 0 0
2019/06/22 23:04:00 BASE 2.39 19 4.27 12 -5.3 77 -8.8 0 0 992.7 NA 0.0000 9999 3280 0 0 0
2019/06/22 23:05:00 BASE 3.70 16 4.58 18 -5.4 77 -8.8 0 0 992.7 NA 0.0000 9999 3180 0 0 0
2019/06/22 23:06:00 BASE 3.50 12 4.58 18 -5.4 77 -8.9 0 0 992.7 NA 0.0000 9999 3280 0 0 0
2019/06/22 23:07:00 BASE 2.20 5 4.58 18 -5.4 77 -8.8 0 0 992.7 NA 0.0000 9999 3410 0 0 0
2019/06/22 23:08:00 BASE 0.86 6 4.58 18 -5.4 77 -8.9 0 0 992.7 NA 0.0000 9999 3350 0 0 0
2019/06/22 23:09:00 BASE 0.24 357 4.58 18 -5.4 77 -8.8 0 0 992.7 NA 0.0000 9999 3080 0 0 0
2019/06/22 23:10:01 BASE 0.00 332 4.58 18 -5.4 77 -8.8 0 0 992.7 NA 0.0000 9999 3050 0 0 0
2019/06/22 23:11:00 BASE 0.48 160 4.58 18 -5.4 77 -8.7 0 0 992.8 NA 0.0000 9999 3310 0 0 0
2019/06/22 23:12:00 BASE 0.80 141 4.58 18 -5.5 77 -8.9 0 0 992.8 NA 0.0000 9999 3350 0 0 0
2019/06/22 23:13:00 BASE 0.32 114 4.58 18 -5.5 77 -8.9 0 0 992.8 NA 0.0000 9999 3120 0 0 0
2019/06/22 23:14:00 BASE 0.00 65 4.58 18 -5.6 77 -8.9 0 0 992.8 NA 0.0000 9999 3180 0 0 0
2019/06/22 23:15:00 BASE 0.31 340 3.60 1 -5.6 78 -8.9 0 0 992.8 NA 0.0000 9999 3180 0 0 0
2019/06/22 23:16:00 BASE 2.73 336 5.92 11 -5.7 78 -8.9 0 0 992.8 NA 0.0000 9999 3080 0 0 0
2019/06/22 23:17:00 BASE 5.04 6 7.61 13 -5.8 78 -9.0 0 0 992.7 NA 0.0000 9999 3120 0 0 0
2019/06/22 23:18:00 BASE 4.00 0 7.61 13 -5.8 78 -9.0 0 0 992.8 NA 0.0000 9999 3220 0 0 0
2019/06/22 23:19:00 BASE 3.06 356 7.61 13 -5.8 78 -9.1 0 0 992.8 NA 0.0000 9999 3180 0 0 0
2019/06/22 23:20:00 BASE 3.40 356 7.61 13 -5.8 78 -9.0 0 0 992.8 NA 0.0000 9999 3350 0 0 0
2019/06/22 23:21:00 BASE 3.48 13 7.61 13 -5.8 78 -9.0 0 0 992.8 NA 0.0000 9999 3770 0 0 0
2019/06/22 23:22:00 BASE 2.90 24 7.61 13 -5.7 78 -8.9 0 0 992.8 NA 0.0000 9999 3120 0 0 0
2019/06/22 23:23:00 BASE 1.51 15 7.61 13 -5.6 78 -8.9 0 0 992.8 NA 0.0000 9999 3610 0 0 0
2019/06/22 23:24:00 BASE 0.90 5 7.61 13 -5.6 78 -8.8 0 0 992.8 NA 0.0000 9999 3610 0 0 0
2019/06/22 23:25:00 BASE 1.14 0 7.61 13 -5.6 78 -8.8 0 0 992.8 NA 0.0000 9999 3870 0 0 0
2019/06/22 23:26:00 BASE 1.31 18 7.61 13 -5.5 78 -8.7 0 0 992.8 NA 0.0000 9999 3840 0 0 0
2019/06/22 23:27:00 BASE 2.00 39 3.96 22 -5.5 78 -8.7 0 0 992.8 NA 0.0000 9999 3610 0 0 0
2019/06/22 23:28:00 BASE 1.43 40 3.96 22 -5.5 78 -8.7 0 0 992.8 NA 0.0000 9999 3540 0 0 0
2019/06/22 23:29:00 BASE 0.28 59 3.96 22 -5.5 78 -8.8 0 0 992.8 NA 0.0000 9999 3380 0 0 0
2019/06/22 23:30:00 BASE 0.61 84 3.96 22 -5.6 78 -8.8 0 0 992.8 NA 0.0000 9999 3220 0 0 0
2019/06/22 23:31:00 BASE 2.98 77 7.72 43 -5.6 78 -8.8 0 0 992.8 NA 0.0000 9999 3180 0 0 0
2019/06/22 23:32:00 BASE 6.89 54 9.88 43 -5.7 78 -9.0 0 0 992.7 NA 0.0000 9999 3540 0 0 0
2019/06/22 23:33:00 BASE 7.58 44 9.88 43 -5.9 78 -9.2 0 0 992.8 NA 0.0000 9999 3870 0 0 0
2019/06/22 23:34:00 BASE 6.85 45 9.88 43 -6.0 78 -9.3 0 0 992.8 NA 0.0000 9999 3840 0 0 0
2019/06/22 23:35:00 BASE 7.04 44 9.88 43 -6.2 78 -9.5 0 0 992.8 NA 0.0000 9999 3670 0 0 0
2019/06/22 23:36:00 BASE 6.24 46 9.88 43 -6.3 78 -9.6 0 0 992.8 NA 0.0000 9999 3580 0 0 0
2019/06/22 23:37:00 BASE 5.13 38 9.88 43 -6.4 78 -9.6 0 0 992.8 NA 0.0000 9999 3840 0 0 0
2019/06/22 23:38:00 BASE 3.05 24 9.88 43 -6.3 78 -9.5 0 0 992.8 NA 0.0000 9999 3900 0 0 0
2019/06/22 23:39:00 BASE 1.22 33 9.88 43 -6.3 78 -9.4 0 0 992.7 NA 0.0000 9999 3970 0 0 0
2019/06/22 23:40:00 BASE 1.87 40 9.88 43 -6.2 79 -9.3 0 0 992.7 NA 0.0000 9999 3940 0 0 0
2019/06/22 23:41:00 BASE 2.90 48 9.88 43 -6.2 79 -9.2 0 0 992.7 NA 0.0000 9999 3940 0 0 0
2019/06/22 23:42:00 BASE 3.10 67 8.54 45 -6.1 79 -9.1 0 0 992.7 NA 0.0000 9999 3870 0 0 0
2019/06/22 23:43:00 BASE 3.64 70 8.18 46 -6.2 80 -9.1 0 0 992.7 NA 0.0000 9999 3900 0 0 0
2019/06/22 23:44:00 BASE 5.51 62 9.00 43 -6.2 80 -9.0 0 0 992.7 NA 0.0000 9999 3810 0 0 0
2019/06/22 23:45:00 BASE 7.88 51 9.62 37 -6.2 81 -9.0 0 0 992.7 NA 0.0000 9999 0 0 0 0
2019/06/22 23:46:00 BASE 8.40 49 10.70 47 -6.2 81 -8.9 0 0 992.7 NA 0.0000 9999 0 0 0 0
2019/06/22 23:47:00 BASE 8.63 54 11.32 48 -6.2 82 -8.8 0 0 992.7 NA 0.0000 9999 4230 0 0 0
2019/06/22 23:48:00 BASE 9.12 54 11.32 48 -6.2 82 -8.8 0 0 992.7 NA 0.0000 9999 4070 0 0 0
2019/06/22 23:49:00 BASE 9.48 46 11.99 45 -6.2 83 -8.6 0 0 992.7 NA 0.0000 9999 0 0 0 0
2019/06/22 23:50:00 BASE 10.32 43 12.50 38 -6.2 83 -8.5 0 0 992.6 NA 0.0000 9999 0 0 0 0
2019/06/22 23:51:00 BASE 10.53 43 12.50 38 -6.1 84 -8.4 0 0 992.6 NA 0.0000 9999 0 0 0 0
2019/06/22 23:52:00 BASE 10.71 41 13.17 39 -6.0 84 -8.3 0 0 992.5 NA 0.0000 9999 0 0 0 0
2019/06/22 23:53:00 BASE 11.21 37 13.17 39 -6.0 85 -8.2 0 0 992.5 NA 0.0000 9999 0 0 0 0
2019/06/22 23:54:00 BASE 11.74 36 13.38 37 -5.9 85 -8.0 0 0 992.4 NA 0.0000 9999 0 0 0 0
2019/06/22 23:55:00 BASE 12.35 38 13.48 36 -5.9 85 -7.9 0 0 992.4 NA 0.0000 9999 0 0 0 0
2019/06/22 23:56:00 BASE 12.76 37 14.25 29 -5.8 86 -7.8 0 0 992.4 NA 0.0000 9999 0 0 0 0
2019/06/22 23:57:00 BASE 12.91 35 14.25 29 -5.7 86 -7.7 0 0 992.4 NA 0.0000 9999 0 0 0 0
2019/06/22 23:58:00 BASE 13.09 36 14.97 39 -5.6 86 -7.6 0 0 992.4 NA 0.0000 9999 0 0 0 0
2019/06/22 23:59:00 BASE 13.20 38 15.59 36 -5.6 86 -7.5 0 0 992.3 NA 0.0000 9999 0 0 0 0